[[{"header":{"parameterUnit":"m.s-1","parameterCategory":1,"la1":30.6,"la2":28.766,"lo1":-90.7593,"lo2":-88.6598,"dy":0.0162,"dx":0.0183,"nx":116,"ny":114,"refTime":"2023-09-19T12:00:00:Z","depth":0,"parameterNumber":2,"parameterNumberName":"U-component_of_WINDS"},"data":[0.0,0.0,0.0,0.0,0.0,0.0,0.0,0.0,0.0,0.0,0.0,0.0,0.0,0.0,0.0,0.0,0.0,0.0,0.0,0.0,0.0,0.0,0.0,0.0,0.0,0.0,0.0,0.0,0.0,0.0,0.0,0.0,0.0,0.0,0.0,0.0,0.0,0.0,0.0,0.0,0.0,0.0,0.0,0.0,0.0,0.0,0.0,0.0,0.0,0.0,0.0,0.0,0.0,0.0,0.0,0.0,0.0,0.0,0.0,0.0,0.0,0.0,0.0,0.0,0.0,0.0,0.0,0.0,0.0,0.0,0.0,0.0,0.0,0.0,0.0,0.0,0.0,0.0,0.0,0.0,0.0,0.0,0.0,0.0,0.0,0.0,0.0,0.0,0.0,0.0,0.0,0.0,0.0,0.0,0.0,0.0,0.0,0.0,0.0,0.0,0.0,0.0,0.0,0.0,0.0,0.0,0.0,0.0,0.0,0.0,0.0,0.0,0.0,0.0,0.0,0.0,0.0,0.0,0.0,0.0,0.0,0.0,0.0,0.0,0.0,0.0,0.0,0.0,0.0,0.0,0.0,0.0,0.0,0.0,0.0,0.0,0.0,0.0,0.0,0.0,0.0,0.0,0.0,0.0,0.0,0.0,0.0,0.0,0.0,0.0,0.0,0.0,0.0,0.0,0.0,0.0,0.0,0.0,0.0,0.0,0.0,0.0,0.0,0.0,0.0,0.0,0.0,0.0,0.0,0.0,0.0,0.0,0.0,0.0,0.0,0.0,0.0,0.0,0.0,0.0,0.0,0.0,0.0,0.0,0.0,0.0,0.0,0.0,0.0,0.0,0.0,0.0,0.0,0.0,0.0,0.0,0.0,0.0,0.0,0.0,0.0,0.0,0.0,0.0,0.0,0.0,0.0,0.0,0.0,0.0,0.0,0.0,0.0,0.0,0.0,0.0,0.0,0.0,0.0,0.0,0.0,0.0,0.0,0.0,0.0,0.0,0.0,0.0,0.0,0.0,0.0,0.0,0.0,0.0,0.0,0.0,0.0,0.0,0.0,0.0,0.0,0.0,0.0,0.0,0.0,0.0,0.0,0.0,0.0,0.0,0.0,0.0,0.0,0.0,0.0,0.0,0.0,0.0,0.0,0.0,0.0,0.0,0.0,0.0,0.0,0.0,0.0,0.0,0.0,0.0,0.0,0.0,0.0,0.0,0.0,0.0,0.0,0.0,0.0,0.0,0.0,0.0,0.0,0.0,0.0,0.0,0.0,0.0,0.0,0.0,0.0,0.0,0.0,0.0,0.0,0.0,0.0,0.0,0.0,0.0,0.0,0.0,0.0,0.0,0.0,0.0,0.0,0.0,0.0,0.0,0.0,0.0,0.0,0.0,0.0,0.0,0.0,0.0,0.0,0.0,0.0,0.0,0.0,0.0,0.0,0.0,0.0,0.0,0.0,0.0,0.0,0.0,0.0,0.0,0.0,0.0,0.0,0.0,0.0,0.0,0.0,0.0,0.0,0.0,0.0,0.0,0.0,0.0,0.0,0.0,0.0,0.0,0.0,0.0,0.0,0.0,0.0,0.0,0.0,0.0,0.0,0.0,0.0,0.0,0.0,0.0,0.0,0.0,0.0,0.0,0.0,0.0,0.0,0.0,0.0,0.0,0.0,0.0,0.0,0.0,0.0,0.0,0.0,0.0,0.0,0.0,0.0,0.0,0.0,0.0,0.0,0.0,0.0,0.0,0.0,0.0,0.0,0.0,0.0,0.0,0.0,0.0,0.0,0.0,0.0,0.0,0.0,0.0,0.0,0.0,0.0,0.0,0.0,0.0,0.0,0.0,0.0,0.0,0.0,0.0,0.0,0.0,0.0,0.0,0.0,0.0,0.0,0.0,0.0,0.0,0.0,0.0,0.0,0.0,0.0,0.0,0.0,0.0,0.0,0.0,0.0,0.0,0.0,0.0,0.0,0.0,0.0,0.0,0.0,0.0,0.0,0.0,0.0,0.0,0.0,0.0,0.0,0.0,0.0,0.0,0.0,0.0,0.0,0.0,0.0,0.0,0.0,0.0,0.0,0.0,0.0,0.0,0.0,0.0,0.0,0.0,0.0,0.0,0.0,0.0,0.0,0.0,0.0,0.0,0.0,0.0,0.0,0.0,0.0,0.0,0.0,0.0,0.0,0.0,0.0,0.0,0.0,0.0,0.0,0.0,0.0,0.0,0.0,0.0,0.0,0.0,0.0,0.0,0.0,0.0,0.0,0.0,0.0,0.0,0.0,0.0,0.0,0.0,0.0,0.0,0.0,0.0,0.0,0.0,0.0,0.0,0.0,0.0,0.0,0.0,0.0,0.0,0.0,0.0,0.0,0.0,0.0,0.0,0.0,0.0,0.0,0.0,0.0,0.0,0.0,0.0,0.0,0.0,0.0,0.0,0.0,0.0,0.0,0.0,0.0,0.0,0.0,0.0,0.0,0.0,0.0,0.0,0.0,0.0,0.0,0.0,0.0,0.0,0.0,0.0,0.0,0.0,0.0,0.0,0.0,0.0,0.0,0.0,0.0,0.0,0.0,0.0,0.0,0.0,0.0,0.0,0.0,0.0,0.0,0.0,0.0,0.0,0.0,0.0,0.0,0.0,0.0,0.0,0.0,0.0,0.0,0.0,0.0,0.0,0.0,0.0,0.0,0.0,0.0,0.0,0.0,0.0,0.0,0.0,0.0,0.0,0.0,0.0,0.0,0.0,0.0,0.0,0.0,0.0,0.0,0.0,0.0,0.0,0.0,0.0,0.0,0.0,0.0,0.0,0.0,0.0,0.0,0.0,0.0,0.0,0.0,0.0,0.0,0.0,0.0,0.0,0.0,0.0,0.0,0.0,0.0,0.0,0.0,0.0,0.0,0.0,0.0,0.0,0.0,0.0,0.0,0.0,0.0,0.0,0.0,0.0,0.0,0.0,0.0,0.0,0.0,0.0,0.0,0.0,0.0,0.0,0.0,0.0,0.0,0.0,0.0,0.0,0.0,0.0,0.0,0.0,0.0,0.0,0.0,0.0,0.0,0.0,0.0,0.0,0.0,0.0,0.0,0.0,0.0,0.0,0.0,0.0,0.0,0.0,0.0,0.0,0.0,0.0,0.0,0.0,0.0,0.0,0.0,0.0,0.0,0.0,0.0,0.0,0.0,0.0,0.0,0.0,0.0,0.0,0.0,0.0,0.0,0.0,0.0,0.0,0.0,0.0,0.0,0.0,0.0,0.0,0.0,0.0,0.0,0.0,0.0,0.0,0.0,0.0,0.0,0.0,0.0,0.0,0.0,0.0,0.0,0.0,0.0,0.0,0.0,0.0,0.0,0.0,0.0,0.0,0.0,0.0,0.0,0.0,0.0,0.0,0.0,0.0,0.0,0.0,0.0,0.0,0.0,0.0,0.0,0.0,0.0,0.0,0.0,0.0,0.0,0.0,0.0,0.0,0.0,0.0,0.0,0.0,0.0,0.0,0.0,0.0,0.0,0.0,0.0,0.0,0.0,0.0,0.0,0.0,0.0,0.0,0.0,0.0,0.0,0.0,0.0,0.0,0.0,0.0,0.0,0.0,0.0,0.0,0.0,0.0,0.0,0.0,0.0,0.0,0.0,0.0,0.0,0.0,0.0,0.0,0.0,0.0,0.0,0.0,0.0,0.0,0.0,0.0,0.0,0.0,0.0,0.0,0.0,0.0,0.0,0.0,0.0,0.0,0.0,0.0,0.0,0.0,0.0,0.0,0.0,0.0,0.0,0.0,0.0,0.0,0.0,0.0,0.0,0.0,0.0,0.0,0.0,0.0,0.0,0.0,0.0,0.0,0.0,0.0,0.0,0.0,0.0,0.0,0.0,0.0,0.0,0.0,0.0,0.0,0.0,0.0,0.0,0.0,0.0,0.0,0.0,0.0,0.0,0.0,0.0,0.0,0.0,0.0,0.0,0.0,0.0,0.0,0.0,0.0,0.0,0.0,0.0,0.0,0.0,0.0,0.0,0.0,0.0,0.0,0.0,0.0,0.0,0.0,0.0,0.0,0.0,0.0,0.0,0.0,0.0,0.0,0.0,0.0,0.0,0.0,0.0,0.0,0.0,0.0,0.0,0.0,0.0,0.0,0.0,0.0,0.0,0.0,0.0,0.0,0.0,0.0,0.0,0.0,0.0,0.0,0.0,0.0,0.0,0.0,0.0,0.0,0.0,0.0,0.0,0.0,0.0,0.0,0.0,0.0,0.0,0.0,0.0,0.0,0.0,0.0,0.0,0.0,0.0,0.0,0.0,0.0,0.0,0.0,0.0,0.0,0.0,0.0,0.0,0.0,0.0,0.0,0.0,0.0,0.0,0.0,0.0,0.0,0.0,0.0,0.0,0.0,0.0,0.0,0.0,0.0,0.0,0.0,0.0,0.0,0.0,0.0,0.0,0.0,0.0,0.0,0.0,0.0,0.0,0.0,0.0,0.0,0.0,0.0,0.0,0.0,0.0,0.0,0.0,0.0,0.0,0.0,0.0,0.0,0.0,0.0,0.0,0.0,0.0,0.0,0.0,0.0,0.0,0.0,0.0,0.0,0.0,0.0,0.0,0.0,0.0,0.0,0.0,0.0,0.0,0.0,0.0,0.0,0.0,0.0,0.0,0.0,0.0,0.0,0.0,0.0,0.0,0.0,0.0,0.0,0.0,0.0,0.0,0.0,0.0,0.0,0.0,0.0,0.0,0.0,0.0,0.0,0.0,0.0,0.0,0.0,0.0,0.0,0.0,0.0,0.0,0.0,0.0,0.0,0.0,0.0,0.0,0.0,0.0,0.0,0.0,0.0,0.0,0.0,0.0,0.0,0.0,0.0,0.0,0.0,0.0,0.0,0.0,0.0,0.0,0.0,0.0,0.0,0.0,0.0,0.0,0.0,0.0,0.0,0.0,0.0,0.0,0.0,0.0,0.0,0.0,0.0,0.0,0.0,0.0,0.0,0.0,0.0,0.0,0.0,0.0,0.0,0.0,0.0,0.0,0.0,0.0,0.0,0.0,0.0,0.0,0.0,0.0,0.0,0.0,0.0,0.0,0.0,0.0,0.0,0.0,0.0,0.0,0.0,0.0,0.0,0.0,0.0,0.0,0.0,0.0,0.0,0.0,0.0,0.0,0.0,0.0,0.0,0.0,0.0,0.0,0.0,0.0,0.0,0.0,0.0,0.0,0.0,0.0,0.0,0.0,0.0,0.0,0.0,0.0,0.0,0.0,0.0,0.0,0.0,0.0,0.0,0.0,0.0,0.0,0.0,0.0,0.0,0.0,0.0,0.0,0.0,0.0,0.0,0.0,0.0,0.0,0.0,0.0,0.0,0.0,0.0,0.0,0.0,0.0,0.0,0.0,0.0,0.0,0.0,0.0,0.0,0.0,0.0,0.0,0.0,0.0,0.0,0.0,0.0,0.0,0.0,0.0,0.0,0.0,0.0,0.0,0.0,0.0,0.0,0.0,0.0,0.0,0.0,0.0,0.0,0.0,0.0,0.0,0.0,0.0,0.0,0.0,0.0,0.0,0.0,0.0,0.0,0.0,0.0,0.0,0.0,0.0,0.0,0.0,0.0,0.0,0.0,0.0,0.0,0.0,0.0,0.0,0.0,0.0,0.0,0.0,0.0,0.0,0.0,0.0,0.0,0.0,0.0,0.0,0.0,0.0,0.0,0.0,0.0,0.0,0.0,0.0,0.0,0.0,0.0,0.0,0.0,0.0,0.0,0.0,0.0,0.0,0.0,0.0,0.0,0.0,0.0,0.0,0.0,0.0,0.0,0.0,0.0,0.0,0.0,0.0,0.0,0.0,0.0,0.0,0.0,0.0,0.0,0.0,0.0,0.0,0.0,0.0,0.0,0.0,0.0,0.0,0.0,0.0,0.0,0.0,0.0,0.0,0.0,0.0,0.0,0.0,0.0,0.0,0.0,0.0,0.0,0.0,0.0,0.0,0.0,0.0,0.0,0.0,0.0,0.0,0.0,0.0,0.0,0.0,0.0,0.0,0.0,0.0,0.0,0.0,0.0,0.0,0.0,0.0,0.0,0.0,0.0,0.0,0.0,0.0,0.0,0.0,0.0,-1.3088,-1.4126,0.0,0.0,0.0,0.0,0.0,0.0,0.0,0.0,0.0,0.0,0.0,0.0,0.0,0.0,0.0,0.0,0.0,0.0,0.0,0.0,0.0,0.0,0.0,0.0,0.0,0.0,0.0,0.0,0.0,0.0,0.0,0.0,0.0,0.0,0.0,0.0,0.0,0.0,-2.6488,-2.6582,-2.6589,-2.6219,-2.6176,-2.6465,0.0,0.0,0.0,0.0,0.0,0.0,0.0,0.0,0.0,0.0,0.0,0.0,0.0,0.0,0.0,0.0,0.0,0.0,0.0,0.0,0.0,0.0,0.0,0.0,0.0,0.0,0.0,0.0,0.0,0.0,0.0,0.0,0.0,0.0,0.0,0.0,0.0,0.0,0.0,0.0,0.0,0.0,0.0,0.0,0.0,0.0,0.0,0.0,0.0,0.0,0.0,0.0,0.0,0.0,0.0,0.0,0.0,0.0,0.0,0.0,0.0,0.0,0.0,0.0,0.0,0.0,0.0,0.0,0.0,0.0,-1.5964,-1.6632,0.0,0.0,0.0,0.0,0.0,0.0,0.0,0.0,0.0,0.0,0.0,0.0,0.0,0.0,0.0,0.0,0.0,0.0,0.0,0.0,0.0,0.0,0.0,0.0,-2.5873,-2.6176,-2.6002,-2.5674,0.0,0.0,0.0,0.0,0.0,0.0,0.0,0.0,0.0,-2.6108,-2.6498,-2.6589,-2.6533,-2.6533,-2.6533,-2.6465,-2.6258,0.0,0.0,0.0,0.0,0.0,0.0,0.0,0.0,0.0,0.0,0.0,0.0,0.0,0.0,0.0,0.0,0.0,0.0,0.0,0.0,0.0,0.0,0.0,0.0,0.0,0.0,0.0,0.0,0.0,0.0,0.0,0.0,0.0,0.0,0.0,0.0,0.0,0.0,0.0,0.0,0.0,0.0,0.0,0.0,0.0,0.0,0.0,0.0,0.0,0.0,0.0,0.0,0.0,0.0,0.0,0.0,0.0,0.0,0.0,0.0,0.0,0.0,0.0,-1.181,-1.3011,-1.4225,-1.5895,-1.751,-1.8936,-1.8874,-1.9362,-2.0309,-2.2115,0.0,0.0,0.0,0.0,0.0,0.0,0.0,0.0,0.0,0.0,0.0,0.0,0.0,0.0,0.0,0.0,0.0,0.0,0.0,0.0,0.0,-2.6139,-2.6279,-2.5988,-2.5784,-2.5508,-2.4892,0.0,0.0,0.0,0.0,0.0,0.0,-2.6505,-2.6634,-2.6828,-2.6633,-2.6521,-2.6533,-2.6533,-2.6533,-2.6452,-2.6119,-2.591,-2.591,0.0,0.0,0.0,0.0,0.0,0.0,0.0,0.0,0.0,0.0,0.0,0.0,0.0,0.0,0.0,0.0,0.0,0.0,0.0,0.0,0.0,0.0,0.0,0.0,0.0,0.0,0.0,0.0,0.0,0.0,0.0,0.0,0.0,0.0,0.0,0.0,0.0,0.0,0.0,0.0,0.0,-0.8097,-0.718,0.0,0.0,0.0,0.0,0.0,0.0,0.0,0.0,0.0,0.0,0.0,0.0,0.0,-0.8138,-0.9185,-1.0248,-1.1292,-1.2478,-1.3484,-1.4712,-1.6118,-1.7868,-1.954,-2.1243,-2.2803,0.0,-2.2065,-2.3492,0.0,0.0,0.0,0.0,0.0,0.0,0.0,0.0,0.0,0.0,0.0,0.0,0.0,0.0,0.0,0.0,0.0,0.0,0.0,0.0,0.0,-2.594,-2.5988,-2.555,-2.5342,-2.5048,-2.465,-2.4914,0.0,0.0,0.0,-2.6214,-2.6518,-2.6646,-2.6675,-2.6739,-2.6602,-2.6533,-2.6533,-2.6533,-2.6533,-2.6452,-2.605,-2.5828,-2.5688,-2.5135,0.0,0.0,0.0,0.0,0.0,0.0,0.0,0.0,0.0,0.0,0.0,0.0,0.0,0.0,0.0,0.0,0.0,0.0,0.0,0.0,0.0,0.0,0.0,0.0,0.0,0.0,0.0,0.0,0.0,0.0,0.0,0.0,0.0,0.0,0.0,0.0,0.0,0.0,0.0,-0.9139,-0.8422,-0.794,-0.7304,-0.6743,0.0,0.0,0.0,0.0,0.0,0.0,0.0,0.0,0.0,-0.8053,-0.9247,-1.0506,-1.1831,-1.2752,-1.3823,-1.5032,-1.6043,-1.7216,-1.862,-2.0097,-2.1596,-2.3018,-2.463,-2.5296,-2.5375,-2.6031,-2.6877,-2.7964,0.0,0.0,0.0,0.0,-3.316,-3.3656,0.0,0.0,0.0,0.0,0.0,0.0,0.0,0.0,0.0,0.0,0.0,0.0,-2.5526,-2.572,-2.5619,-2.5048,-2.4892,-2.4708,-2.4452,-2.5037,0.0,0.0,0.0,-2.6726,-2.6726,-2.6768,-2.6658,-2.6533,-2.6533,-2.6533,-2.6533,-2.6533,-2.6533,-2.6465,-2.605,-2.5688,-2.5465,-2.4921,-2.4345,-2.3824,0.0,0.0,0.0,0.0,0.0,0.0,0.0,0.0,0.0,0.0,0.0,0.0,0.0,0.0,0.0,0.0,0.0,0.0,0.0,0.0,0.0,0.0,0.0,0.0,0.0,0.0,0.0,0.0,0.0,0.0,0.0,0.0,0.0,0.0,0.0,0.0,0.0,-0.9233,-0.8759,-0.8509,-0.7769,-0.7274,0.0,0.0,0.0,0.0,0.0,0.0,-0.7589,-0.841,-0.9299,-1.0342,-1.1467,-1.2672,-1.4109,-1.4957,-1.5964,-1.7177,-1.8138,-1.936,-2.0759,-2.2098,-2.347,-2.4793,-2.6177,-2.742,-2.8379,-2.8197,-2.8773,-2.9803,-3.0869,-3.1709,-3.2471,-3.3278,-3.3862,-3.4277,0.0,0.0,0.0,0.0,0.0,0.0,0.0,0.0,0.0,0.0,0.0,-2.5013,-2.5602,-2.5701,-2.5384,-2.4567,-2.4708,-2.4664,-2.435,-2.4978,-2.5681,-2.6228,-2.6651,-2.7182,-2.7723,-2.7255,-2.6807,-2.6533,-2.6533,-2.6533,-2.6533,-2.6533,-2.6533,-2.6452,-2.5886,-2.5523,-2.5241,-2.455,-2.3751,-2.3001,-2.2628,0.0,0.0,0.0,0.0,0.0,0.0,0.0,0.0,0.0,0.0,0.0,0.0,0.0,0.0,0.0,0.0,0.0,0.0,0.0,0.0,0.0,0.0,0.0,0.0,0.0,0.0,0.0,0.0,0.0,0.0,0.0,0.0,0.0,0.0,0.0,0.0,0.0,0.0,-0.8759,-0.8102,0.0,0.0,0.0,0.0,-0.7349,-0.7765,-0.8263,-0.8664,-0.9882,-1.102,-1.1896,-1.3081,-1.4265,-1.5374,-1.6201,-1.7252,-1.8387,-1.933,-2.0627,-2.2265,-2.3607,-2.5054,-2.6642,-2.8036,-2.9324,-3.0261,-2.9413,-2.9682,-3.0861,-3.2024,-3.2983,-3.3819,-3.4764,-3.5453,-3.5994,0.0,0.0,0.0,0.0,0.0,0.0,0.0,0.0,-2.3822,-2.4563,-2.4575,-2.4796,-2.5452,-2.5272,-2.4892,-2.4261,-2.4332,-2.449,-2.486,-2.5681,-2.6451,-2.7166,-2.7504,-2.7591,-2.7456,-2.7268,-2.7079,-2.6807,-2.6658,-2.6658,-2.6658,-2.6521,-2.6533,-2.6465,-2.5968,-2.5465,-2.4862,-2.402,-2.3224,-2.2553,-2.1883,-2.1502,0.0,0.0,0.0,0.0,0.0,0.0,0.0,0.0,0.0,0.0,0.0,0.0,0.0,0.0,0.0,0.0,0.0,0.0,0.0,0.0,0.0,0.0,0.0,0.0,0.0,0.0,0.0,0.0,0.0,0.0,0.0,0.0,0.0,0.0,0.0,0.0,0.0,-0.9307,-0.8704,0.0,-0.8451,-0.8369,-0.8451,-0.9042,-0.9464,-0.9889,-1.0393,-1.1405,-1.2498,-1.3494,-1.4629,-1.5844,-1.7129,-1.7918,-1.9007,-2.0239,-2.1131,-2.2312,-2.3927,-2.5114,-2.638,-2.771,-2.9129,-3.0375,-3.1447,-3.1712,-3.2201,-3.2796,-3.3762,-3.4466,-3.5037,-3.5548,-3.5941,-3.6241,0.0,0.0,0.0,0.0,0.0,0.0,0.0,0.0,-2.3702,-2.4514,-2.444,-2.4605,-2.5287,-2.5048,-2.4664,-2.4216,-2.4274,-2.4641,-2.5329,-2.623,-2.7081,-2.7865,-2.8147,-2.8066,-2.7523,-2.7456,-2.7403,-2.7146,-2.6998,-2.685,-2.6782,-2.6658,-2.6521,-2.6465,-2.6037,-2.5465,-2.4719,-2.3728,-2.2852,-2.2101,-2.1512,-2.1128,-2.0964,0.0,0.0,0.0,0.0,0.0,0.0,0.0,0.0,0.0,0.0,0.0,0.0,0.0,0.0,0.0,0.0,0.0,0.0,0.0,0.0,0.0,0.0,0.0,0.0,0.0,0.0,0.0,0.0,0.0,0.0,0.0,0.0,0.0,0.0,-1.1064,-1.0549,-1.0033,-0.9423,-0.9074,-0.9257,-0.917,-0.9432,-1.0038,-1.0463,-1.0982,-1.1499,-1.2607,-1.3717,-1.4803,-1.5959,-1.718,-1.8407,-1.9292,-2.0391,-2.1614,-2.2499,-2.3672,-2.5193,-2.6433,-2.7564,-2.8798,-3.0104,-3.1246,-3.2281,-3.3271,-3.3937,-3.4414,-3.5052,-3.5526,-3.5941,-3.6148,-3.6318,-3.6468,0.0,0.0,0.0,0.0,0.0,0.0,0.0,-2.3436,-2.3596,-2.4514,-2.4355,-2.4479,-2.5149,-2.5118,-2.4835,-2.435,-2.4607,-2.5104,-2.5697,-2.6576,-2.7358,-2.8201,-2.8466,-2.8444,-2.8039,-2.7908,-2.7723,-2.7523,-2.7403,-2.7255,-2.704,-2.6782,-2.6658,-2.6452,-2.5886,-2.5382,-2.4945,-2.3801,-2.2767,-2.1807,-2.1359,-2.0964,-2.0644,0.0,0.0,0.0,0.0,0.0,0.0,0.0,0.0,0.0,0.0,0.0,0.0,0.0,0.0,0.0,0.0,0.0,0.0,0.0,0.0,0.0,0.0,0.0,0.0,0.0,0.0,0.0,0.0,0.0,0.0,0.0,0.0,0.0,-1.2534,-1.202,-1.1499,-1.0722,-1.0202,-0.9946,-1.0038,-0.9777,-0.9864,-1.0294,-1.0814,-1.1327,-1.2015,-1.3372,-1.4636,-1.5703,-1.7025,-1.8256,-1.9301,-2.0167,-2.1242,-2.2435,-2.3379,-2.4612,-2.6183,-2.7445,-2.8671,-2.9832,-3.094,-3.2003,-3.2895,-3.3869,-3.4719,-3.5548,-3.5749,-3.6088,-3.6544,-3.6643,-3.6766,-3.6811,0.0,0.0,0.0,0.0,0.0,0.0,0.0,-2.3494,-2.3656,-2.4612,-2.4455,-2.4531,-2.548,-2.523,-2.5005,-2.4935,-2.5061,-2.5611,-2.6931,-2.7343,-2.7959,-2.8955,-2.9101,-2.9008,-2.883,-2.8766,-2.8624,-2.8417,-2.8157,-2.7842,-2.7577,-2.7108,-2.685,-2.6658,-2.6188,-2.5758,-2.5158,-2.4576,-2.379,-2.2777,-2.1949,-2.1502,-2.1272,0.0,0.0,0.0,0.0,0.0,0.0,0.0,0.0,0.0,0.0,0.0,0.0,0.0,0.0,0.0,0.0,0.0,0.0,0.0,0.0,0.0,0.0,0.0,0.0,0.0,0.0,0.0,0.0,0.0,0.0,0.0,-1.4159,-1.3737,-1.3052,-1.2619,-1.2186,-1.1499,-1.1068,-1.0895,-1.0727,-1.0982,-1.1241,-1.1499,-1.2272,-1.2869,-1.3197,-1.4384,-1.5545,-1.6593,-1.7747,-1.8966,-2.0245,-2.1031,-2.208,-2.3254,-2.4204,-2.5463,-2.6909,-2.8258,-2.9572,-3.0764,-3.1916,-3.2971,-3.3887,-3.4625,-3.5386,-3.6172,-3.6284,-3.655,-3.6913,-3.6908,-3.6869,-3.6829,0.0,0.0,0.0,0.0,0.0,0.0,0.0,-2.3625,-2.3644,-2.444,-2.4367,-2.4623,-2.5455,-2.5521,-2.5495,-2.5646,-2.5701,-2.6329,-2.7795,-2.8507,-2.9177,-2.9842,-2.9747,-2.9699,-2.9588,-2.9526,-2.9449,-2.9233,-2.8853,-2.8495,-2.8118,-2.7577,-2.7175,-2.6782,-2.6452,-2.6037,-2.5535,-2.5087,-2.4576,-2.3936,-2.3265,-2.2531,-2.1883,-2.1807,-2.1807,-2.1807,-2.1731,-2.1731,-2.1807,-2.1502,0.0,0.0,0.0,0.0,0.0,0.0,0.0,0.0,0.0,0.0,0.0,0.0,0.0,0.0,0.0,0.0,0.0,0.0,0.0,0.0,0.0,0.0,0.0,0.0,-1.4328,-1.3997,-1.3568,-1.3307,-1.2875,-1.2363,-1.2192,-1.1929,-1.1757,-1.1929,-1.2186,-1.2272,-1.296,-1.3561,-1.3964,-1.513,-1.6363,-1.7641,-1.8771,-2.0041,-2.1308,-2.222,-2.318,-2.4337,-2.5334,-2.6557,-2.8025,-2.9275,-3.0527,-3.1814,-3.2826,-3.3767,-3.464,-3.5237,-3.5959,-3.6666,0.0,0.0,0.0,0.0,-3.7009,-3.693,0.0,0.0,0.0,0.0,0.0,0.0,0.0,-2.3824,-2.3732,-2.4205,-2.4413,-2.4719,-2.5377,-2.5902,-2.6204,-2.6351,-2.651,-2.7097,-2.8367,-2.9784,-3.0569,-3.0628,-3.0507,-3.0387,-3.0387,-3.0251,-3.0129,-2.9931,-2.956,-2.9198,-2.8716,-2.8118,-2.7643,-2.7108,-2.6688,-2.6358,-2.5968,-2.5664,-2.537,-2.5087,-2.4933,-2.3925,-2.2553,-2.2402,-2.2553,-2.2777,-2.2628,-2.2628,-2.2703,-2.2327,0.0,0.0,0.0,0.0,0.0,0.0,0.0,0.0,0.0,0.0,0.0,0.0,0.0,0.0,0.0,0.0,0.0,0.0,0.0,0.0,0.0,0.0,0.0,0.0,-1.4439,-1.422,-1.422,-1.407,-1.3815,-1.3272,-1.3187,-1.3114,-1.2961,-1.2942,-1.2918,-1.3003,-1.3404,-1.3977,-1.4643,-1.5869,0.0,0.0,0.0,-2.1268,-2.2574,-2.3452,-2.4469,-2.5463,-2.6569,-2.7762,-2.9178,-3.0346,-3.1562,-3.2833,-3.3646,-3.4464,-3.5316,-3.5776,-3.6381,-3.7076,-3.6956,-3.7129,-3.7392,-3.7223,-3.7108,-3.7108,0.0,0.0,0.0,0.0,0.0,0.0,0.0,-2.4287,-2.4152,-2.4642,-2.487,-2.5243,-2.5821,-2.6307,-2.6645,-2.6832,-2.6884,-2.7477,-2.8899,-2.9736,-3.0411,-3.0999,-3.0955,-3.0955,-3.0955,-3.0895,-3.0821,-3.0628,-3.0251,-2.9898,-2.9415,-2.878,-2.8249,-2.7776,-2.7443,-2.7108,-2.6769,-2.6688,-2.6289,-2.5688,-2.5676,-2.4957,-2.3852,-2.3779,-2.3655,-2.3446,-2.3372,-2.3298,-2.315,-2.2703,-2.2327,-2.1883,-2.1359,-2.0974,0.0,0.0,0.0,0.0,0.0,0.0,0.0,0.0,0.0,0.0,0.0,0.0,0.0,0.0,0.0,0.0,0.0,0.0,0.0,-1.4734,-1.4689,-1.4861,-1.5297,-1.5503,-1.521,-1.4109,-1.3996,-1.4086,-1.432,-1.4219,-1.4342,-1.4681,-1.5043,-1.5567,-1.6237,-1.7277,-1.855,-1.9875,-2.0884,-2.2103,-2.3526,-2.4337,-2.5392,-2.6612,-2.7538,0.0,-3.0029,-3.1275,-3.24,-3.3479,-3.4218,-3.5055,-3.5871,-3.6131,-3.6741,-3.7577,-3.7721,-3.7667,-3.754,-3.7392,-3.7223,-3.7069,0.0,0.0,0.0,0.0,0.0,0.0,0.0,-2.4614,-2.4284,-2.4422,-2.494,-2.5401,-2.5663,-2.6526,-2.7115,-2.7284,-2.761,-2.8121,-2.8812,-2.9763,-3.0461,-3.0787,-3.1129,-3.1307,-3.1307,-3.1307,-3.1249,-3.1058,-3.0792,-3.0433,-2.996,-2.9449,-2.8944,-2.8417,-2.8105,-2.7776,-2.7377,-2.731,-2.6918,-2.644,-2.6314,-2.5886,-2.5182,-2.4731,-2.4515,-2.4455,-2.4311,-2.4154,-2.3936,-2.3593,-2.3001,-2.2327,-2.1655,-2.1205,-2.0829,0.0,0.0,0.0,0.0,0.0,0.0,0.0,0.0,0.0,0.0,0.0,0.0,0.0,0.0,-1.761,0.0,0.0,-1.5727,-1.5565,-1.5655,-1.5944,-1.6133,-1.6433,-1.6301,-1.5455,-1.5353,-1.5415,-1.5569,-1.5613,-1.5777,-1.5944,-1.648,-1.7146,-1.7895,-1.9124,-2.0419,-2.1778,-2.3019,-2.413,-2.5095,-2.6159,-2.7041,-2.7788,-2.8771,-2.9893,-3.1101,-3.218,-3.3166,-3.4169,-3.4833,-3.5605,-3.6343,-3.6917,-3.745,-3.7931,-3.8168,-3.807,-3.7739,-3.7667,-3.7466,-3.7223,0.0,0.0,0.0,0.0,0.0,0.0,0.0,-2.4997,-2.4517,-2.4271,-2.4866,-2.5403,-2.5491,-2.653,-2.7354,-2.756,-2.8068,-2.8457,-2.8592,-2.9564,-3.0238,-3.0492,-3.1046,-3.1405,-3.1482,-3.1482,-3.1467,-3.1351,-3.1161,-3.0851,-3.0433,-3.0129,-2.9623,-2.9044,-2.8853,-2.8481,-2.8105,-2.7855,-2.7456,-2.7108,-2.6918,-2.6589,-2.6201,-2.5594,-2.537,-2.5382,-2.5229,-2.5087,-2.4791,-2.4467,-2.374,-2.2852,-2.2176,-2.1578,-2.1051,-2.0731,-2.0654,0.0,0.0,0.0,0.0,0.0,0.0,0.0,0.0,0.0,-2.0186,-1.9715,-1.9216,-1.8539,-1.7654,-1.7287,-1.7009,-1.6675,-1.6862,-1.7155,-1.7332,-1.765,-1.7697,-1.7447,-1.6951,-1.6766,-1.6914,-1.7024,-1.7155,-1.7332,-1.7961,-1.8682,-1.9528,-2.0847,-2.2249,-2.3732,-2.5149,-2.6273,-2.6844,-2.8087,-2.8906,-2.937,-3.0416,-3.1516,-3.2609,-3.3471,-3.4358,-3.5278,-3.6011,-3.6689,-3.7253,-3.8133,-3.8538,-3.864,-3.8921,-3.8809,-3.8471,-3.8077,-3.7757,-3.7485,0.0,0.0,0.0,0.0,0.0,0.0,0.0,0.0,-2.513,-2.4775,-2.4976,-2.5288,-2.5694,-2.6321,-2.6946,-2.7565,-2.7685,-2.7949,-2.8562,-2.8727,-2.9325,-3.0447,-3.0567,-3.0911,-3.1467,-3.1482,-3.1482,-3.1467,-3.1351,-3.1161,-3.0911,-3.0628,-3.0387,-3.0129,-2.9808,-2.9435,-2.9107,-2.8638,-2.8052,-2.7456,-2.7268,-2.6998,-2.6658,-2.6726,-2.6383,-2.584,-2.5828,-2.5676,-2.5465,-2.5016,-2.4527,-2.3897,-2.2927,-2.2327,-2.1807,-2.1051,0.0,-2.0819,-2.0644,-2.0566,-2.0566,-2.0566,-2.0566,-2.0566,0.0,0.0,-2.0186,-1.9715,-1.9362,-1.8941,-1.8021,-1.7803,-1.7778,-1.7699,-1.7985,-1.8491,-1.9385,-1.9771,-2.0065,-2.0416,-1.8685,-1.7727,-1.8462,-1.83,-1.8475,-1.9289,-1.9566,-2.0054,-2.0987,-2.2289,-2.3492,-2.4624,-2.6095,-2.736,-2.8405,-2.9581,-3.0701,-3.1797,-3.2741,-3.3829,-3.5063,-3.5866,-3.6688,-3.7499,-3.8573,-3.913,-3.9315,-3.9949,-4.0309,-4.045,-4.0687,-4.0738,-4.044,-3.8712,-3.8018,-3.788,0.0,0.0,0.0,0.0,0.0,0.0,0.0,0.0,0.0,-2.5013,-2.5181,-2.5339,-2.5319,-2.6116,-2.6856,-2.7565,-2.7625,-2.7694,-2.7979,-2.8368,-2.8846,-2.937,-3.0103,-3.0642,-3.0926,-3.133,-3.1482,-3.1482,-3.1409,-3.1351,-3.1161,-3.1043,-3.0866,-3.0568,-3.0387,-3.0007,-2.956,-2.9008,-2.8365,-2.7776,-2.7523,-2.7268,-2.7066,-2.7146,-2.693,-2.6508,-2.6383,-2.6176,0.0,-2.5465,-2.4957,-2.4299,-2.3508,-2.2852,-2.2327,-2.1655,-2.1359,0.0,-2.0896,-2.0654,0.0,0.0,-2.0566,-2.0566,-2.0566,-2.0693,-2.0719,-2.0391,-2.0389,-2.0172,-1.9578,-1.9556,-1.9557,0.0,-1.9866,-2.0295,-2.0669,-2.0908,-2.1195,-2.1365,-2.0587,-2.0005,-2.0059,-2.0112,-2.0286,-2.0829,-2.1282,-2.2045,-2.3078,-2.4314,-2.5451,-2.6678,-2.8163,-2.9298,-2.9992,-3.1282,-3.2356,-3.3057,-3.4073,-3.5018,-3.6082,-3.6852,-3.778,-3.8893,-3.9545,-3.9973,-4.0145,-4.0509,-4.0755,-4.0878,-4.1046,-4.1079,-4.0954,-4.0093,-3.9704,-3.9567,0.0,0.0,0.0,0.0,0.0,0.0,0.0,0.0,0.0,0.0,-2.5312,-2.5203,-2.4969,-2.595,-2.6782,-2.726,-2.7505,-2.7625,-2.7625,-2.8038,-2.8412,-2.8592,-2.9475,-3.0148,-3.0492,-3.1001,-3.1345,-3.1482,-3.1482,-3.1467,-3.1351,-3.1351,-3.1234,-3.0999,-3.0821,-3.0447,-2.987,-2.9184,-2.8546,-2.8039,-2.7789,-2.7603,-2.7523,-2.7523,-2.739,-2.7108,-2.6782,-2.6521,-2.6201,-2.591,-2.5465,-2.4874,-2.4166,-2.3582,-2.3054,-2.2327,-2.1883,-2.1502,-2.1051,0.0,0.0,-2.0644,-2.0654,-2.0752,-2.0752,-2.1094,-2.1325,-2.1134,-2.1317,-2.1362,-2.0922,-2.1007,-2.1116,-2.0932,-2.1353,-2.1633,-2.1811,-2.1909,-2.1998,-2.2087,-2.2087,-2.1989,-2.1713,-2.1713,-2.1802,-2.2148,-2.2843,-2.38,-2.4914,-2.6069,-2.7221,-2.853,-2.9922,-3.0921,-3.1578,-3.3001,-3.3938,-3.4592,-3.554,-3.646,-3.7357,-3.8345,-3.939,-4.0384,-4.0771,-4.1052,-4.1234,-4.1411,-4.1586,-4.1656,-4.1739,-4.1772,-4.1772,-4.1705,-4.133,-4.0792,0.0,0.0,0.0,0.0,0.0,0.0,0.0,0.0,0.0,0.0,0.0,0.0,0.0,-2.5903,-2.6602,-2.6617,-2.72,-2.7625,-2.7625,-2.764,-2.7904,-2.8562,-2.8637,-2.9235,-3.0477,-3.0522,-3.0866,-3.1482,-3.1482,-3.1482,-3.1482,-3.1482,-3.1482,-3.1482,-3.119,-3.0762,-3.0251,-2.9401,-2.8766,-2.83,-2.8131,-2.8066,-2.7973,-2.8222,-2.7908,-2.739,-2.6918,-2.6589,-2.6465,-2.627,-2.6062,-2.5688,-2.4933,-2.4492,0.0,-2.3213,-2.2402,-2.1731,-2.1282,0.0,-2.0829,-2.0644,-2.0889,-2.1211,-2.1211,-2.1553,-2.1773,-2.1569,-2.1842,-2.2074,-2.153,-2.1789,-2.2078,-2.2078,-2.2087,-2.2274,-2.2715,-2.2803,-2.2794,-2.3047,-2.3047,-2.3144,0.0,-2.2794,-2.2706,-2.3416,-2.4079,-2.4925,-2.6102,-2.7162,-2.8359,-2.9626,-3.0833,-3.2074,-3.3408,-3.4485,-3.5646,-3.6828,-3.7616,-3.8525,-3.9578,-4.1098,-4.1979,-4.2364,-4.2808,-4.2995,-4.3032,-4.325,-4.3321,-4.3321,-4.3389,-4.3424,-4.3424,-4.3406,-4.2433,-4.1079,0.0,0.0,0.0,0.0,0.0,0.0,0.0,0.0,0.0,0.0,0.0,0.0,0.0,0.0,0.0,0.0,-2.6797,-2.7111,-2.7595,-2.7625,-2.773,-2.7904,-2.8353,-2.8801,-2.9235,-3.0073,-3.0612,-3.0851,-3.13,-3.1482,-3.1482,-3.1482,-3.1482,-3.1482,-3.119,-3.0895,-3.0447,-2.9574,-2.9071,-2.883,-2.8624,-2.8546,-2.8546,-2.861,-2.8222,-2.7656,0.0,-2.6863,-2.6465,-2.627,0.0,0.0,-2.5465,-2.5158,-2.4791,-2.3728,-2.2852,-2.2101,-2.1502,0.0,-2.0898,-2.0937,-2.1123,-2.1309,-2.1602,-2.1992,-2.2295,-2.2201,-2.2456,-2.2756,-2.2573,-2.2688,-2.2794,-2.2794,-2.2794,-2.2794,-2.2969,-2.2969,-2.3057,-2.3057,-2.3135,0.0,0.0,0.0,-2.3657,-2.4348,-2.502,-2.6008,-2.7244,-2.8119,-2.9303,-3.0607,-3.1856,-3.3059,-3.4365,-3.5518,-3.6615,-3.7679,-3.8941,-3.9834,-4.0577,-4.163,-4.2338,-4.2768,-4.3142,-4.3305,-4.3358,-4.3428,-4.3463,-4.3463,-4.3497,-4.3497,-4.3497,-4.3497,-4.3149,-4.269,0.0,0.0,0.0,0.0,0.0,0.0,0.0,0.0,0.0,0.0,0.0,0.0,0.0,0.0,0.0,0.0,0.0,-2.6767,-2.7186,-2.749,-2.7625,-2.7625,-2.7993,-2.8353,-2.8592,-2.94,-3.0043,-3.0507,-3.0941,-3.13,-3.1482,-3.1482,-3.1482,-3.1482,-3.119,-3.0895,-3.0447,-2.9699,-2.9324,-2.9149,-2.9135,-2.9121,-2.917,-2.9121,-2.8675,0.0,-2.7523,-2.6998,-2.6521,-2.6396,0.0,-2.627,-2.591,-2.5535,-2.5016,-2.4105,-2.3224,-2.2478,-2.1807,-2.1393,-2.1204,-2.1162,-2.1465,-2.1768,-2.2051,-2.2432,-2.2734,-2.2734,-2.2949,-2.3135,-2.3135,-2.3135,-2.3135,-2.3135,-2.3135,-2.3135,-2.3135,-2.3135,-2.3135,-2.3135,-2.3144,-2.3406,0.0,0.0,0.0,-2.5115,-2.5852,-2.6917,-2.8199,-2.9081,-3.0215,-3.1796,-3.2777,-3.4013,-3.5454,-3.6461,-3.7573,-3.8772,-3.98,-4.0659,-4.1237,-4.2008,-4.2555,-4.2994,-4.3286,-4.3463,-4.3497,-4.3497,-4.3497,-4.3497,-4.3497,-4.3497,-4.3497,-4.3497,-4.3497,-4.3497,0.0,0.0,0.0,0.0,0.0,0.0,0.0,0.0,0.0,0.0,0.0,0.0,0.0,0.0,0.0,0.0,0.0,0.0,-2.6542,-2.7156,-2.7565,-2.7565,-2.761,-2.7874,-2.8532,-2.8577,-2.919,-3.0402,-3.0447,-3.0806,-3.1422,-3.1422,-3.1437,-3.1482,-3.119,-3.0821,-3.0312,-2.9851,-2.9526,-2.9373,-2.9526,-2.9713,-2.9822,-2.9651,-2.9135,-2.8417,-2.7789,-2.7188,0.0,0.0,0.0,0.0,0.0,-2.5676,-2.4945,-2.4322,-2.3666,-2.2852,-2.2056,-2.1849,-2.171,-2.1369,-2.1914,-2.2519,-2.2539,-2.2852,-2.3135,-2.3135,-2.3135,-2.3144,0.0,-2.3144,-2.3135,-2.3135,-2.3144,-2.3135,-2.3135,-2.3135,-2.3135,0.0,0.0,0.0,0.0,0.0,0.0,-2.5687,-2.6633,-2.781,-2.9081,-2.9935,-3.1119,-3.2861,-3.3685,-3.4868,-3.6615,-3.7338,-3.8446,-3.9952,-4.0402,-4.096,-4.1648,-4.231,-4.2765,-4.3104,-4.3393,-4.3497,-4.3497,-4.3497,-4.3497,-4.3497,-4.3497,-4.3497,-4.3497,-4.3497,-4.3497,-4.3497,0.0,0.0,0.0,0.0,0.0,0.0,0.0,0.0,0.0,0.0,0.0,0.0,0.0,0.0,0.0,0.0,0.0,0.0,-2.5824,-2.6482,-2.6841,-2.6841,-2.7305,-2.77,-2.7829,-2.8338,-2.8757,-2.9086,-2.9579,-3.0148,-3.0761,-3.0761,-3.1046,-3.1482,-3.119,-3.0955,-3.0642,-3.0158,-2.9974,-3.0068,-3.0083,-3.0129,-3.019,-3.0007,-2.9435,-2.8675,-2.8105,0.0,0.0,0.0,0.0,0.0,0.0,-2.5828,-2.5312,-2.4443,-2.3728,-2.3078,-2.2454,-2.2172,-2.219,-2.2363,-2.2616,-2.2853,-2.291,-2.3153,-2.3406,-2.3406,-2.3493,-2.3667,-2.3667,-2.3493,-2.3406,-2.3406,-2.3232,0.0,-2.3135,-2.3232,0.0,-2.3406,0.0,-2.4764,-2.5211,-2.6379,0.0,-2.836,-2.8245,-2.8621,-2.9716,-3.0696,-3.1856,-3.3297,-3.4447,-3.5676,-3.6935,-3.8446,-3.954,-4.0188,-4.0789,-4.1283,-4.1683,-4.2396,-4.2824,-4.3104,-4.3393,-4.3497,-4.3497,-4.3497,-4.3497,-4.3497,-4.3497,-4.3497,-4.3497,-4.3497,-4.3497,-4.3497,0.0,0.0,0.0,0.0,0.0,0.0,0.0,0.0,0.0,0.0,0.0,0.0,0.0,0.0,0.0,0.0,0.0,0.0,0.0,-2.5903,-2.6336,-2.6572,-2.6946,-2.7275,-2.761,-2.7949,-2.8293,-2.8607,-2.8966,-2.9475,-3.0103,-3.0103,-3.0313,-3.0687,-3.0389,-3.038,-3.047,-3.0102,-3.0187,0.0,0.0,-3.0613,-3.0642,-3.0387,-2.9808,-2.9044,0.0,0.0,0.0,0.0,0.0,-2.6465,-2.6131,-2.5758,-2.5312,-2.4455,0.0,-2.3448,-2.2886,-2.2939,-2.3124,-2.314,-2.3338,-2.3463,-2.3434,-2.358,-2.3851,-2.3917,-2.409,0.0,-2.4262,-2.409,-2.3831,0.0,0.0,0.0,-2.3135,-2.3319,-2.366,0.0,-2.4784,0.0,-2.6354,-2.7654,-2.8838,-2.9785,-2.9731,-3.0015,-3.0868,-3.1902,-3.2925,-3.407,-3.524,-3.6554,-3.7994,-3.9242,-4.007,-4.0517,-4.1053,-4.1552,-4.2032,-4.2537,-4.2938,-4.3251,-4.3428,-4.3497,-4.3497,-4.3497,-4.3497,-4.3497,-4.3497,-4.3497,-4.3497,-4.3497,-4.3497,-4.3497,0.0,0.0,0.0,0.0,0.0,0.0,0.0,0.0,0.0,0.0,0.0,0.0,0.0,0.0,0.0,0.0,0.0,0.0,0.0,0.0,0.0,-2.6303,-2.6497,-2.6856,-2.7475,-2.7565,-2.7859,-2.8472,-2.8472,-2.8801,-2.9445,-2.9445,-2.949,-2.9579,-2.9401,-2.9548,-2.9982,-2.9767,-3.0075,-3.0749,-3.0852,-3.097,-3.1073,0.0,0.0,0.0,0.0,0.0,0.0,0.0,-2.6533,-2.6465,-2.605,-2.5676,-2.517,-2.4478,-2.4129,-2.3885,-2.3401,-2.3705,-2.4084,-2.3722,-2.3883,-2.4104,-2.3836,-2.4018,-2.4286,-2.4573,0.0,-2.5115,-2.5115,-2.485,-2.4509,-2.4003,0.0,-2.3493,-2.3232,-2.3493,-2.3914,-2.471,-2.5683,-2.6683,-2.7613,-2.8913,-3.0073,-3.077,-3.1327,-3.1784,-3.2236,-3.3328,-3.4342,-3.5273,-3.632,-3.7594,-3.9259,-3.9867,-4.0402,-4.0896,-4.1283,-4.1856,-4.2458,-4.2806,-4.3087,-4.3429,-4.3497,-4.3532,-4.3548,-4.3548,-4.3548,-4.3548,-4.3548,-4.3532,-4.3513,-4.3513,-4.3532,-4.3497,0.0,0.0,0.0,0.0,0.0,0.0,0.0,0.0,0.0,0.0,-2.2725,-2.2975,0.0,0.0,0.0,0.0,0.0,0.0,0.0,0.0,0.0,0.0,-2.6019,-2.6632,-2.6752,-2.734,-2.7685,-2.7754,-2.7754,-2.8098,-2.8771,-2.8771,-2.9071,-2.9579,-2.9401,-2.9351,-2.9455,-2.9274,-2.9643,-3.0362,-3.0419,-3.0745,-3.1234,0.0,0.0,0.0,0.0,0.0,0.0,0.0,-2.6589,-2.6465,-2.6201,-2.584,-2.5382,-2.4576,-2.415,-2.3981,-2.416,-2.4252,-2.4309,-2.4145,-2.4137,-2.4127,-2.3635,-2.4044,0.0,0.0,-2.5779,-2.6185,-2.603,-2.5611,-2.52,-2.4775,0.0,0.0,0.0,0.0,-2.4943,0.0,0.0,0.0,-2.9351,-3.0747,0.0,0.0,-3.3796,-3.4073,-3.3349,-3.4618,-3.6,-3.7483,-3.8492,-3.9233,-3.9625,-4.0171,-4.0693,-4.1283,-4.1744,-4.2192,-4.2673,-4.3013,-4.3268,-4.3497,-4.3548,-4.3701,-4.3832,-4.3832,-4.3832,-4.3832,-4.3832,-4.3734,-4.3582,-4.3582,-4.3566,-4.3497,0.0,0.0,0.0,0.0,0.0,0.0,0.0,0.0,-2.2394,-2.231,-2.2379,-2.2551,-2.2795,-2.3127,0.0,0.0,0.0,0.0,0.0,0.0,0.0,0.0,0.0,0.0,0.0,-2.6722,-2.7066,-2.7066,0.0,-2.7739,-2.8068,-2.8068,-2.8233,-2.8532,-2.839,-2.8515,-2.8827,-2.8719,-2.9034,-2.9711,-2.9952,-3.0334,0.0,0.0,0.0,0.0,0.0,0.0,0.0,0.0,-2.6714,-2.6589,-2.627,-2.5992,-2.5606,-2.4933,-2.4714,-2.4745,-2.4686,-2.4847,-2.4948,-2.4705,-2.4599,-2.4584,-2.4516,0.0,0.0,0.0,-2.7021,-2.7348,-2.708,0.0,0.0,0.0,0.0,0.0,0.0,0.0,0.0,0.0,0.0,0.0,0.0,-3.1846,-3.3031,-3.3894,-3.5006,-3.5421,-3.4857,-3.6359,-3.7872,-3.9134,-4.0147,-4.0862,-4.1169,-4.1304,-4.1631,-4.2166,-4.2263,-4.2555,-4.2957,-4.3321,-4.3529,-4.3734,-4.3814,-4.3923,-4.4005,-4.4048,-4.4036,-4.4005,-4.3992,-4.3865,-4.3719,-4.3634,-4.3548,-4.3497,0.0,0.0,0.0,0.0,0.0,0.0,0.0,-2.2515,-2.2394,-2.2282,-2.2089,-2.2145,-2.2531,-2.2459,-2.2504,0.0,0.0,0.0,0.0,0.0,0.0,0.0,0.0,0.0,0.0,0.0,0.0,-2.6378,-2.7036,0.0,0.0,0.0,0.0,0.0,-2.7437,-2.7683,-2.8106,-2.7933,-2.8248,0.0,0.0,-2.9607,0.0,0.0,0.0,0.0,0.0,0.0,0.0,0.0,-2.6918,-2.6726,-2.6396,-2.6131,-2.5828,-2.5312,-2.5325,-2.5462,-2.5187,-2.5362,-2.552,-2.5124,-2.5047,-2.4993,-2.5227,-2.5701,0.0,0.0,-2.7936,-2.8327,-2.8063,0.0,-2.7429,0.0,0.0,0.0,0.0,0.0,0.0,0.0,0.0,0.0,0.0,-3.2591,0.0,-3.4703,-3.6122,-3.6991,-3.6825,-3.8402,-3.9661,-4.0538,-4.1493,-4.2223,-4.262,-4.2575,-4.2719,-4.3067,-4.2956,-4.3047,-4.3321,-4.3664,-4.386,-4.3986,-4.4121,-4.421,-4.4269,-4.4327,-4.4327,-4.424,-4.417,-4.4005,-4.3818,-4.3701,-4.3582,-4.3479,0.0,0.0,0.0,0.0,0.0,0.0,0.0,-2.2623,-2.2432,-2.2225,-2.2032,-2.1827,-2.1577,-2.2053,-2.2344,0.0,0.0,0.0,0.0,0.0,0.0,0.0,0.0,0.0,0.0,0.0,0.0,-2.5689,-2.6363,0.0,0.0,0.0,0.0,0.0,0.0,-2.738,-2.727,-2.698,0.0,0.0,0.0,0.0,0.0,0.0,0.0,0.0,0.0,0.0,0.0,0.0,0.0,-2.6875,-2.6602,-2.6327,-2.6131,-2.591,0.0,0.0,-2.5937,-2.5872,-2.5686,-2.5292,-2.5056,-2.4842,-2.4737,0.0,0.0,-2.7281,-2.824,-2.8973,-2.8712,-2.8566,-2.8179,0.0,0.0,-2.694,0.0,0.0,0.0,0.0,0.0,0.0,0.0,-3.3342,-3.4379,-3.5775,-3.7997,-3.9331,-3.95,-4.0619,-4.1422,-4.1814,-4.2599,-4.3054,-4.3061,-4.3498,-4.3695,-4.3642,-4.3971,-4.3997,-4.3758,-4.3968,-4.4162,-4.4346,-4.4374,-4.4557,-4.4821,-4.4846,-4.4796,-4.4719,-4.4667,-4.4364,-4.3974,-4.3897,-4.3734,-4.3532,0.0,0.0,0.0,0.0,0.0,0.0,-2.2842,-2.2596,-2.2332,-2.2118,-2.1915,-2.1678,-2.1371,-2.1327,-2.1272,0.0,0.0,0.0,0.0,0.0,0.0,0.0,0.0,0.0,0.0,0.0,-2.5016,-2.5016,-2.5674,0.0,0.0,0.0,0.0,0.0,0.0,-2.7196,-2.7041,-2.663,0.0,0.0,0.0,0.0,0.0,0.0,0.0,0.0,0.0,0.0,0.0,0.0,0.0,0.0,-2.6602,-2.6465,0.0,0.0,-2.598,-2.5959,-2.5968,-2.5804,-2.5636,-2.5337,-2.5121,-2.5142,-2.5436,0.0,-2.6745,-2.7895,-2.8568,-2.9046,-2.9123,-2.9106,-2.8882,-2.8395,-2.8327,0.0,0.0,0.0,0.0,0.0,0.0,0.0,0.0,0.0,-3.5398,-3.7667,-3.9316,-4.0607,-4.1396,-4.2094,-4.2671,-4.3157,-4.4084,-4.4664,-4.4945,-4.5035,-4.4892,-4.4588,-4.462,-4.4435,-4.398,-4.4355,-4.4595,-4.4707,-4.4833,-4.4948,-4.508,-4.5125,-4.508,-4.4967,-4.4846,-4.4613,-4.4277,-4.414,-4.3955,-4.3814,0.0,0.0,0.0,0.0,0.0,-2.3193,-2.2893,-2.2596,-2.2276,-2.1969,-2.1751,-2.1495,-2.1135,-2.073,-2.0444,-2.0323,0.0,0.0,0.0,0.0,0.0,0.0,0.0,0.0,0.0,0.0,-2.4313,-2.4313,-2.5001,-2.5315,0.0,0.0,-2.6408,-2.6617,0.0,0.0,0.0,0.0,0.0,0.0,0.0,0.0,0.0,0.0,0.0,0.0,0.0,0.0,0.0,0.0,0.0,0.0,0.0,0.0,0.0,0.0,-2.627,-2.627,-2.6119,-2.5898,-2.5676,-2.5535,-2.5324,-2.5278,0.0,0.0,-2.6761,-2.7891,-2.8413,-2.8775,-2.916,-2.926,-2.9245,-2.9094,-2.9209,-2.9287,-2.9106,0.0,0.0,0.0,0.0,-3.1629,0.0,-3.453,-3.6735,-3.9286,-4.047,-4.1609,-4.2785,-4.335,-4.3839,-4.4322,-4.5125,-4.5819,-4.6411,-4.6346,-4.602,-4.5433,-4.5418,-4.5003,-4.4327,-4.47,-4.4943,-4.5057,-4.5192,-4.5277,-4.5279,-4.5339,-4.5298,-4.517,-4.5042,-4.4802,-4.4532,-4.4374,-4.421,-4.4079,0.0,0.0,0.0,0.0,0.0,0.0,0.0,-2.2605,-2.2265,-2.1857,-2.157,-2.1182,-2.0663,-2.0426,-2.0166,-1.9848,0.0,0.0,0.0,0.0,0.0,0.0,0.0,0.0,0.0,0.0,-2.361,-2.361,-2.4298,-2.4597,-2.4612,-2.5315,-2.5959,-2.6587,0.0,0.0,0.0,0.0,0.0,0.0,0.0,0.0,0.0,0.0,0.0,0.0,0.0,0.0,0.0,0.0,0.0,0.0,0.0,0.0,0.0,0.0,-2.6533,-2.6533,-2.6452,-2.6188,-2.591,-2.5898,-2.5606,-2.5382,0.0,0.0,-2.6781,-2.6996,-2.7576,-2.8285,-2.8837,-2.8938,-2.9126,-2.9704,-2.9792,0.0,-2.9716,0.0,0.0,0.0,0.0,-3.1721,-3.2895,-3.5912,-3.8586,-4.056,-4.1575,-4.2506,-4.3519,-4.4412,-4.4947,-4.5108,-4.5649,-4.6266,-4.6908,-4.736,-4.7037,-4.5992,-4.6382,-4.5959,-4.4796,-4.4991,-4.5192,-4.5379,-4.5398,-4.5438,-4.5495,-4.5495,-4.5458,-4.5379,-4.5241,-4.5,-4.4685,-4.4632,-4.443,-4.4221,0.0,0.0,0.0,0.0,0.0,0.0,0.0,-2.2542,-2.218,-2.1768,-2.1481,-2.1087,-2.0595,-2.0323,-2.008,-1.9833,0.0,0.0,0.0,0.0,0.0,0.0,0.0,0.0,0.0,0.0,-2.3048,-2.3392,-2.3703,-2.3763,-2.3585,-2.4354,-2.4784,-2.4926,-2.581,-2.6176,0.0,0.0,0.0,0.0,0.0,0.0,0.0,0.0,0.0,0.0,0.0,0.0,0.0,0.0,0.0,0.0,0.0,0.0,0.0,0.0,0.0,0.0,-2.6533,-2.6188,-2.591,-2.591,-2.5606,-2.5382,-2.5758,0.0,-2.6337,-2.7051,-2.7419,-2.7792,-2.8419,-2.8823,-2.9276,-2.9691,-3.0351,-3.0898,0.0,0.0,0.0,0.0,0.0,-3.38,0.0,0.0,-3.9253,-4.0457,-4.1964,-4.3202,-4.4162,-4.5001,-4.5459,-4.5511,-4.6231,-4.6845,-4.7378,-4.7856,-4.7462,-4.6271,-4.6657,-4.6195,-4.4962,-4.5192,-4.536,-4.5477,-4.5533,-4.555,-4.5568,-4.5568,-4.5532,-4.5477,-4.5381,-4.522,-4.5045,-4.5014,-4.4943,-4.4808,0.0,0.0,0.0,0.0,0.0,0.0,0.0,-2.1856,-2.1687,-2.1312,-2.1209,-2.0958,-2.0512,-2.022,-1.9975,-1.9762,0.0,0.0,0.0,0.0,0.0,0.0,0.0,0.0,0.0,-2.201,-2.2451,-2.2819,-2.3054,-2.3127,-2.2949,-2.3416,-2.3751,-2.3981,-2.4815,-2.5378,0.0,0.0,0.0,0.0,0.0,0.0,-2.5517,0.0,0.0,0.0,0.0,0.0,0.0,0.0,0.0,0.0,0.0,0.0,0.0,0.0,-2.6533,0.0,0.0,-2.6258,-2.598,-2.598,-2.5758,0.0,0.0,0.0,-2.6218,-2.6834,-2.7037,-2.7271,-2.8053,-2.8567,-2.913,-3.0079,-3.0824,-3.1449,0.0,0.0,0.0,0.0,0.0,0.0,0.0,-3.7806,-3.9482,-4.0942,-4.2272,-4.3556,-4.4763,-4.5528,-4.6084,-4.631,-4.6863,-4.7371,-4.7834,-4.7937,-4.7515,-4.6568,-4.6656,-4.6133,-4.5087,-4.5339,-4.5477,-4.555,-4.5586,-4.5586,0.0,-4.5586,-4.5568,-4.5495,-4.5438,-4.5361,-4.5281,-4.5277,-4.5235,-4.5175,0.0,0.0,0.0,0.0,0.0,0.0,0.0,0.0,-2.0843,-2.0541,-2.0774,-2.0766,-2.0366,-2.012,-1.9919,-1.9726,0.0,0.0,0.0,0.0,0.0,0.0,0.0,0.0,-2.0045,-2.1249,-2.1902,-2.1946,-2.2437,-2.2649,-2.2649,-2.2512,-2.284,-2.3536,-2.3517,-2.4232,0.0,0.0,0.0,0.0,0.0,0.0,0.0,0.0,0.0,0.0,0.0,0.0,0.0,0.0,0.0,0.0,0.0,0.0,0.0,0.0,0.0,0.0,0.0,0.0,0.0,0.0,0.0,0.0,0.0,0.0,0.0,0.0,-2.6589,-2.6934,-2.7665,-2.8114,-2.8907,-3.0667,-3.1121,0.0,0.0,0.0,0.0,0.0,-3.4394,0.0,-3.7067,-3.7841,-3.9301,-4.172,-4.2508,-4.3572,-4.5182,-4.5912,-4.6536,-4.714,-4.7331,-4.7661,-4.8135,-4.7683,-4.7196,-4.6742,-4.6384,-4.5864,-4.5222,-4.5419,-4.555,-4.5586,-4.5586,-4.5586,-4.5586,-4.5586,-4.5568,-4.5513,-4.5513,-4.5477,-4.5399,-4.5418,-4.538,-4.5342,0.0,0.0,0.0,0.0,0.0,0.0,0.0,0.0,0.0,0.0,-2.0118,-2.0192,-1.9619,-1.9863,-1.9975,0.0,0.0,0.0,0.0,0.0,0.0,0.0,0.0,0.0,-1.9484,-2.04,-2.0983,-2.1302,-2.2104,-2.231,-2.2016,-2.2077,-2.2113,-2.2138,-2.2935,-2.395,0.0,0.0,0.0,0.0,0.0,0.0,0.0,0.0,0.0,0.0,-2.6011,-2.6399,0.0,0.0,0.0,0.0,0.0,0.0,0.0,0.0,-2.6533,-2.6533,-2.6533,0.0,-2.6213,-2.6213,-2.6062,0.0,0.0,0.0,0.0,0.0,0.0,0.0,0.0,-2.8195,-2.9267,-3.0842,-3.1776,-3.2621,0.0,0.0,0.0,-3.4824,-3.5415,-3.6163,-3.7047,-3.8352,-3.9583,-4.0611,-4.1937,-4.3031,-4.3828,-4.464,-4.5341,-4.5834,-4.6189,-4.682,-4.7716,-4.7225,-4.6727,-4.6256,-4.632,-4.6018,-4.5342,-4.5457,-4.555,-4.5586,-4.5586,-4.5586,-4.5586,-4.5586,-4.5586,-4.5568,-4.5568,-4.5568,-4.5569,-4.5605,-4.562,-4.5616,0.0,0.0,0.0,0.0,0.0,0.0,0.0,0.0,0.0,0.0,0.0,0.0,0.0,0.0,0.0,0.0,0.0,0.0,0.0,0.0,0.0,0.0,0.0,-1.8697,-1.8808,-1.9475,-2.0132,-2.0673,-2.1377,-2.1718,-2.1793,-2.1793,-2.1746,-2.1643,-2.2867,-2.3747,0.0,0.0,0.0,0.0,-2.5061,0.0,0.0,0.0,0.0,0.0,-2.5801,-2.619,0.0,-2.6806,-2.6875,-2.6794,0.0,0.0,0.0,0.0,-2.6533,-2.6533,-2.6533,-2.6396,-2.6339,-2.6339,-2.6258,-2.6188,0.0,0.0,0.0,0.0,0.0,0.0,0.0,0.0,0.0,-3.0895,-3.1989,0.0,0.0,0.0,0.0,-3.5672,-3.6228,-3.6906,-3.7605,-3.8667,-3.9715,-4.0715,-4.1835,-4.2861,-4.3816,-4.4553,-4.5156,-4.5661,-4.5694,-4.6153,-4.7117,-4.6618,-4.6298,-4.6201,-4.6012,-4.5782,-4.5495,-4.5566,-4.5618,-4.5654,-4.5654,-4.5654,-4.5654,-4.5671,-4.5687,-4.5687,-4.5684,-4.57,-4.57,-4.5715,-4.5761,-4.58,0.0,0.0,0.0,0.0,0.0,0.0,0.0,0.0,0.0,0.0,0.0,0.0,0.0,0.0,0.0,0.0,0.0,0.0,0.0,0.0,0.0,0.0,0.0,-1.84,-1.8149,-1.8782,-1.9475,-2.0172,-2.0695,-2.1259,-2.1841,-2.1712,-2.1616,-2.1671,-2.2963,-2.3551,0.0,0.0,0.0,0.0,-2.5244,0.0,0.0,0.0,0.0,0.0,0.0,0.0,0.0,-2.6928,-2.6943,-2.6875,-2.6602,0.0,0.0,0.0,0.0,0.0,-2.6533,-2.6533,-2.6521,-2.6521,-2.6521,-2.6533,0.0,0.0,0.0,0.0,0.0,0.0,0.0,0.0,0.0,0.0,0.0,0.0,0.0,0.0,-3.6054,-3.6492,-3.7011,-3.7605,-3.8383,-3.8974,-3.9878,-4.1206,-4.1895,-4.278,-4.4023,-4.4592,-4.5126,-4.5659,-4.5347,-4.5531,-4.6356,-4.5904,-4.5861,-4.6176,-4.5666,-4.5495,-4.562,-4.5684,-4.5731,-4.5731,-4.5731,-4.5731,-4.5731,-4.5795,-4.5829,-4.581,-4.5833,-4.5827,-4.5827,-4.5841,-4.588,-4.5922,0.0,0.0,0.0,0.0,0.0,0.0,0.0,0.0,0.0,0.0,0.0,0.0,0.0,0.0,0.0,0.0,0.0,0.0,0.0,0.0,0.0,-1.904,-1.8697,-1.8347,-1.8042,-1.8796,-1.9447,-2.0041,-2.0785,-2.1429,-2.1996,-2.1841,-2.1712,-2.1671,-2.276,-2.3305,-2.3519,-2.4613,-2.5075,-2.5061,-2.5061,0.0,0.0,0.0,0.0,0.0,0.0,0.0,0.0,-2.6799,-2.6875,-2.6726,-2.6521,0.0,0.0,0.0,0.0,0.0,-2.6533,-2.6589,-2.6658,-2.6658,-2.6658,-2.6794,-2.7066,0.0,0.0,0.0,0.0,0.0,0.0,0.0,0.0,0.0,0.0,-3.4555,0.0,0.0,-3.6845,-3.7222,-3.7927,-3.8551,-3.9044,-3.9558,-4.0154,-4.0831,-4.1468,-4.2051,-4.2655,-4.3206,-4.3687,-4.4128,-4.4345,-4.4693,-4.523,-4.5214,-4.5319,-4.5553,-4.5552,-4.5601,-4.5684,-4.5757,-4.5786,-4.5786,-4.5847,-4.588,-4.588,-4.588,-4.5887,-4.5893,-4.5873,-4.5873,-4.5886,-4.5953,-4.5977,-4.5998,0.0,0.0,0.0,0.0,0.0,0.0,0.0,0.0,0.0,0.0,0.0,0.0,0.0,0.0,0.0,0.0,0.0,0.0,0.0,0.0,0.0,-1.9213,-1.904,-1.876,-1.8422,-1.8782,-1.9496,-2.0486,-2.0855,-2.1524,-2.2388,-2.2249,-2.2156,-2.2166,-2.33,-2.3858,-2.3905,-2.5091,-2.5564,-2.5508,0.0,0.0,0.0,0.0,0.0,0.0,0.0,0.0,0.0,0.0,-2.6875,-2.6658,-2.6521,0.0,0.0,0.0,0.0,0.0,-2.6533,-2.6589,-2.6726,-2.6794,-2.693,-2.7066,-2.7335,0.0,0.0,0.0,0.0,0.0,0.0,0.0,0.0,-3.2019,0.0,-3.4653,-3.5368,-3.6604,-3.7562,-3.8001,-3.8606,-3.9206,-3.9594,-4.0103,-4.0642,-4.1192,-4.1753,-4.2297,-4.2675,-4.3196,-4.3627,-4.4053,-4.4421,-4.4764,-4.509,-4.5281,-4.5419,-4.5513,-4.5601,-4.5715,-4.5814,-4.5893,-4.5941,-4.5964,-4.5986,-4.6005,-4.6005,-4.5998,-4.6018,-4.6017,-4.6054,-4.6072,-4.6072,-4.6103,-4.6105,-4.6125,0.0,0.0,0.0,0.0,0.0,0.0,0.0,0.0,0.0,0.0,0.0,0.0,0.0,0.0,0.0,0.0,0.0,0.0,0.0,0.0,-1.9617,-1.9398,-1.9398,-1.925,-1.886,-1.9042,-1.9713,-2.0949,-2.1135,-2.1772,-2.2799,-2.2694,-2.2689,-2.289,-2.396,-2.4462,-2.4611,-2.5696,-2.6111,-2.6002,0.0,0.0,0.0,0.0,0.0,0.0,0.0,0.0,0.0,0.0,0.0,0.0,0.0,0.0,0.0,-2.6533,-2.6533,-2.6533,-2.6521,-2.6658,-2.6794,-2.7011,0.0,-2.7469,-2.7723,0.0,0.0,0.0,0.0,0.0,0.0,-3.0068,0.0,-3.2344,-3.3541,-3.4599,-3.558,-3.7096,-3.823,-3.8678,-3.9276,-3.9782,-4.0153,-4.0642,-4.1192,-4.1701,-4.2234,-4.2693,-4.3124,-4.3526,-4.3968,-4.4365,-4.4726,-4.5019,-4.5243,-4.5475,-4.562,-4.562,-4.57,-4.58,-4.5929,-4.5988,-4.6065,-4.6119,-4.6107,-4.6115,-4.6115,-4.6125,-4.6118,-4.6125,-4.6187,-4.6216,-4.6221,-4.621,-4.6222,-4.6231,0.0,0.0,0.0,0.0,0.0,0.0,0.0,0.0,0.0,0.0,0.0,0.0,0.0,0.0,0.0,0.0,0.0,0.0,0.0,0.0,-1.9762,-1.969,-1.969,-1.9508,-1.9101,-1.9759,-2.044,-2.1181,-2.1865,-2.2511,-2.3083,-2.3083,-2.3314,-2.38,-2.4336,-2.4905,-2.5545,-2.604,-2.6286,-2.6272,-2.6418,0.0,0.0,0.0,0.0,0.0,0.0,0.0,0.0,0.0,0.0,0.0,0.0,0.0,-2.6533,-2.6533,-2.6533,-2.6521,-2.6658,-2.6807,-2.7024,-2.7214,-2.7523,0.0,-2.8392,-2.8638,0.0,-2.9107,0.0,0.0,0.0,-3.0881,-3.1567,-3.2,-3.341,-3.4678,-3.52,-3.7135,-3.8678,-3.9098,-3.9816,-4.037,-4.0707,-4.1255,-4.1701,-4.2133,-4.2595,-4.3032,-4.3444,-4.3795,-4.414,-4.4578,-4.4846,-4.5109,-4.5381,-4.5528,-4.5632,-4.57,-4.5819,-4.5925,-4.5997,-4.6052,-4.6125,-4.6183,-4.6192,-4.6182,-4.6182,-4.6182,-4.6191,-4.6199,-4.6199,-4.6245,-4.629,-4.629,-4.63,-4.6286,0.0,0.0,0.0,0.0,0.0,0.0,0.0,0.0,0.0,0.0,0.0,0.0,0.0,0.0,0.0,0.0,0.0,0.0,0.0,-1.9955,-1.9848,-1.9726,-1.969,-1.9848,-2.0206,-2.0421,-2.0828,-2.152,-2.2644,-2.3327,-2.3523,-2.3625,-2.394,-2.4476,-2.4988,-2.5477,-2.5988,-2.6504,-2.6674,-2.6606,-2.6855,-2.6959,0.0,0.0,0.0,0.0,0.0,0.0,0.0,0.0,-2.6998,-2.6589,-2.6589,-2.6589,-2.6658,-2.6739,-2.6807,-2.6875,-2.6998,-2.7201,-2.7335,-2.759,0.0,0.0,0.0,-2.8958,-2.9401,-2.9713,-3.0068,0.0,0.0,0.0,-3.1966,-3.2437,-3.3917,-3.5275,-3.5937,-3.7709,-3.9152,-3.9696,-4.0237,-4.0772,-4.1146,-4.1683,-4.2151,-4.2595,-4.3032,-4.3426,-4.3781,-4.4109,-4.4477,-4.4821,-4.5065,-4.5302,-4.5528,-4.5696,-4.5814,-4.5893,-4.5929,-4.6017,-4.6135,-4.6144,-4.6201,-4.6264,-4.627,-4.6254,-4.6254,-4.6256,-4.6261,-4.6262,-4.6264,-4.6286,-4.6307,-4.6307,-4.6307,-4.6308,0.0,0.0,0.0,0.0,0.0,0.0,0.0,0.0,0.0,0.0,0.0,0.0,0.0,0.0,0.0,0.0,0.0,0.0,-2.0185,-2.008,-1.999,-1.9833,-2.0029,-2.0449,-2.1007,-2.1379,-2.178,-2.2169,-2.3379,-2.3967,-2.3967,-2.4265,-2.4694,-2.5243,-2.577,-2.6191,-2.6598,-2.6865,-2.6951,-2.6937,-2.7181,-2.7335,0.0,0.0,0.0,0.0,0.0,0.0,0.0,0.0,-2.7134,-2.6714,-2.6714,-2.6714,-2.6726,-2.7011,-2.7146,-2.7214,-2.7523,-2.7723,-2.7855,0.0,0.0,0.0,-2.8894,-2.9415,-2.9913,-3.0341,-3.0911,0.0,-3.1962,0.0,0.0,0.0,-3.4415,-3.5774,-3.6486,-3.819,-3.9592,-4.0171,-4.0676,-4.1146,-4.1569,-4.2092,-4.2634,-4.3069,-4.3426,-4.3795,-4.4158,-4.4477,-4.4751,-4.5042,-4.5262,-4.5455,-4.5661,-4.5841,-4.5983,-4.6027,-4.6054,-4.6103,-4.6201,-4.621,-4.6251,-4.6303,-4.6305,-4.6306,-4.6306,-4.6307,-4.6307,-4.6307,-4.6308,-4.6308,-4.6269,-4.5996,-4.5898,-4.5859,0.0,0.0,0.0,0.0,0.0,0.0,0.0,0.0,0.0,0.0,0.0,0.0,0.0,0.0,0.0,0.0,0.0,0.0,-2.0339,-2.0185,-2.01,-2.01,-2.0824,-2.1228,-2.1322,-2.2747,-2.342,-2.3213,-2.3953,-2.4302,-2.4333,-2.5006,-2.5597,-2.6153,-2.6589,-2.7025,-2.7401,-2.7107,-2.7093,-2.7233,-2.7335,-2.7554,-2.779,0.0,0.0,0.0,0.0,0.0,0.0,0.0,-2.7323,-2.6714,-2.6714,-2.6714,-2.6782,-2.7201,-2.7403,-2.7656,-2.8157,-2.8417,0.0,0.0,0.0,0.0,-2.954,-2.996,-3.0433,-3.0911,0.0,-3.2492,-3.2749,-3.2926,0.0,-3.345,-3.4809,-3.6029,-3.6626,-3.8415,-3.9918,-4.0419,-4.1024,-4.1613,-4.2061,-4.2573,-4.3069,-4.3479,-4.3795,-4.414,-4.4458,-4.4745,-4.4976,-4.5182,-4.538,-4.5591,-4.578,-4.5902,-4.6017,-4.6079,-4.6128,-4.6186,-4.621,-4.6276,-4.6305,-4.6307,-4.6289,-4.6289,-4.6289,-4.6289,-4.6289,-4.6289,-4.6289,-4.6289,-4.6172,-4.5311,-4.4998,-4.4861,0.0,0.0,0.0,0.0,0.0,0.0,0.0,0.0,0.0,0.0,0.0,0.0,0.0,0.0,0.0,0.0,0.0,0.0,-2.0577,-2.046,-2.0342,-2.0308,-2.1058,-2.1755,-2.242,-2.4111,-2.4712,-2.4172,-2.4545,-2.497,-2.5497,-2.5851,-2.6551,-2.7509,-2.7457,-2.7641,-2.8027,-2.773,-2.768,-2.773,-2.7875,-2.7925,-2.797,0.0,0.0,0.0,0.0,0.0,0.0,0.0,0.0,0.0,-2.7255,-2.739,-2.7577,-2.8066,-2.8314,-2.8546,-2.9044,-2.9233,0.0,0.0,0.0,0.0,0.0,-3.0387,0.0,0.0,-3.2272,-3.2819,-3.3208,-3.3575,-3.3882,-3.4151,-3.5183,-3.6272,-3.7285,-3.8537,-3.9725,-4.0737,-4.1328,-4.1796,-4.2274,-4.2806,-4.3048,-4.2904,-4.3162,-4.3512,-4.3838,-4.4079,-4.4279,-4.448,-4.4639,-4.452,-4.4122,-4.4238,-4.4357,-4.4412,-4.4426,-4.5082,-4.6276,-4.6284,-4.6307,-4.6269,-4.5644,-4.5391,-4.5332,-4.4726,-4.4472,-4.4472,-4.4472,-4.447,-4.4446,-4.4171,-4.4069,-4.398,0.0,0.0,0.0,0.0,0.0,0.0,0.0,0.0,0.0,0.0,0.0,0.0,0.0,0.0,0.0,0.0,0.0,0.0,0.0,-2.0778,-2.0856,-2.1173,-2.1922,-2.2904,-2.4152,-2.5297,-2.5701,-2.5307,-2.5307,-2.5676,-2.6406,-2.6776,-2.7492,-2.8371,-2.8405,-2.8496,-2.8496,-2.8304,-2.8255,-2.8334,-2.8691,-2.8863,-2.891,0.0,0.0,0.0,0.0,0.0,0.0,0.0,0.0,0.0,-2.7842,-2.7908,-2.817,-2.8651,-2.9008,-2.931,-2.9747,0.0,0.0,0.0,0.0,0.0,0.0,0.0,0.0,0.0,-3.2911,-3.3351,-3.3797,-3.4201,-3.4497,-3.4691,-3.5512,-3.6417,-3.7236,-3.8278,-3.9284,-4.019,-4.0707,-4.1207,-4.1641,-4.214,-4.2404,-4.2333,-4.2614,-4.2913,-4.3206,-4.338,-4.358,-4.3761,-4.3882,-4.3795,-4.3452,-4.3545,-4.3626,-4.3704,-4.37,-4.4254,-4.5271,-4.5272,-4.5273,-4.5234,-4.4707,-4.4472,-4.4431,-4.3923,-4.3707,-4.3704,-4.3661,-4.3657,-4.3629,-4.3267,-4.3119,-4.3022,0.0,0.0,0.0,0.0,0.0,0.0,0.0,0.0,0.0,0.0,0.0,0.0,0.0,0.0,0.0,0.0,0.0,0.0,0.0,0.0,-2.1553,-2.2411,-2.3191,-2.4407,-2.6142,-2.6314,-2.6383,-2.6453,-2.6201,-2.6451,-2.7196,-2.7882,-2.8502,-2.903,-2.9475,-2.9454,-2.9044,-2.8889,-2.8967,-2.9139,-2.9705,-3.0036,-3.0243,-3.0452,0.0,0.0,0.0,0.0,0.0,0.0,0.0,0.0,-2.8417,-2.8546,-2.8739,-2.9149,-2.9574,-2.9993,-3.0312,0.0,0.0,0.0,0.0,0.0,0.0,0.0,-3.2302,-3.2895,0.0,-3.405,-3.4448,-3.4739,-3.4994,-3.5135,-3.578,-3.6451,-3.6905,-3.7847,-3.8633,-3.9175,-3.9722,-4.0182,-4.0598,-4.1038,-4.1445,-4.179,-4.2059,-4.2303,-4.2503,-4.2699,-4.2862,-4.3003,-4.3111,-4.3216,-4.3257,-4.3337,-4.3404,-4.345,-4.3454,-4.3457,-4.3476,-4.3633,-4.3652,-4.3574,-4.3572,-4.3548,-4.3462,-4.3459,-4.3456,-4.345,-4.3381,-4.3353,-4.327,-4.2467,-4.2176,-4.2045,0.0,0.0,0.0,0.0,0.0,0.0,0.0,0.0,0.0,0.0,0.0,0.0,0.0,0.0,0.0,0.0,0.0,0.0,0.0,0.0,-2.2582,-2.2778,-2.4278,-2.5596,-2.6624,-2.6825,-2.6923,-2.6956,-2.7179,-2.771,-2.8505,-2.9299,-3.0,-3.061,-3.051,-3.0342,-3.0156,-2.9957,-3.0238,-3.0786,-3.0677,-3.0924,-3.1294,-3.1337,-3.1274,0.0,0.0,0.0,0.0,0.0,0.0,0.0,-2.9373,-2.9594,-2.978,-3.0418,-3.0792,-3.1029,0.0,-3.1379,0.0,0.0,0.0,0.0,0.0,-3.278,-3.3011,-3.3002,-3.3646,-3.43,-3.4594,-3.5041,-3.5383,-3.5503,-3.5785,-3.6403,-3.7309,-3.786,-3.8567,-3.9629,-4.0125,-4.0527,-4.0888,-4.1243,-4.1343,-4.106,-4.1293,-4.154,-4.1801,-4.1965,-4.2098,-4.2218,-4.2315,-4.2092,-4.1552,-4.1597,-4.1646,-4.1658,-4.166,-4.1659,-4.1718,-4.3085,-4.3337,-4.2687,-4.2681,-4.2282,-4.1667,-4.1597,-4.1583,-4.1582,-4.1557,-4.1526,-4.1466,-4.1274,-4.1179,-4.1089,0.0,0.0,0.0,0.0,0.0,0.0,0.0,0.0,0.0,0.0,0.0,0.0,0.0,0.0,0.0,0.0,0.0,0.0,0.0,0.0,-2.3557,-2.4388,-2.5819,-2.6813,-2.721,-2.7413,-2.7679,-2.8062,-2.8637,-2.9041,-2.9229,-3.0052,-3.0748,-3.1334,-3.11,-3.0861,-3.0651,-3.0849,-3.1186,-3.1583,-3.2007,-3.2313,-3.2482,-3.2507,-3.232,-3.206,-3.1845,0.0,0.0,0.0,0.0,0.0,0.0,0.0,-3.0911,-3.1334,-3.1595,-3.1838,0.0,0.0,0.0,0.0,0.0,0.0,0.0,-3.3261,-3.3539,-3.3697,-3.4168,-3.4691,-3.4994,-3.5383,-3.5701,-3.5756,-3.6062,-3.6498,-3.7154,-3.7629,-3.8158,-3.8941,-3.9367,-3.9721,-4.0068,-4.0374,-4.0514,-4.0419,-4.0604,-4.0807,-4.1063,-4.1162,-4.1282,-4.1422,-4.1489,-4.1365,-4.1042,-4.1085,-4.1107,-4.1094,-4.1092,-4.1086,-4.1088,-4.2039,-4.219,-4.1737,-4.1729,-4.1451,-4.1,-4.0974,-4.0926,-4.0904,-4.0896,-4.0878,-4.0848,-4.0815,-4.0769,-4.0688,0.0,0.0,0.0,0.0,0.0,0.0,0.0,0.0,0.0,0.0,0.0,0.0,0.0,0.0,0.0,0.0,0.0,0.0,0.0,0.0,0.0,-2.6375,-2.7291,-2.7789,-2.78,-2.8067,-2.8514,-2.92,-3.0142,-3.0402,0.0,-3.0767,-3.1341,-3.1748,-3.1524,-3.1308,-3.1143,-3.1708,-3.2026,-3.236,-3.3292,-3.367,-3.3661,-3.3607,-3.3398,-3.3096,-3.2523,-3.2104,-3.1864,-3.1709,0.0,0.0,0.0,0.0,-3.1962,-3.217,-3.2422,-3.2602,0.0,0.0,0.0,0.0,0.0,0.0,0.0,-3.3678,-3.405,-3.4546,-3.4804,-3.5041,-3.5446,-3.5701,-3.5905,-3.6062,-3.636,-3.6673,-3.6995,-3.7394,-3.781,-3.8135,-3.8491,-3.8826,-3.9137,-3.9427,-3.9693,-4.0017,-4.0177,-4.0321,-4.0523,-4.0593,-4.0681,-4.0818,-4.0867,-4.0981,-4.1097,-4.1094,-4.109,-4.1091,-4.1086,-4.1042,-4.0986,-4.1033,-4.1013,-4.0974,-4.0974,-4.0929,-4.0888,-4.0859,-4.0828,-4.0784,-4.0769,-4.0776,-4.0752,-4.07,-4.064,-4.0579,0.0,0.0,0.0,0.0,0.0,0.0,0.0,0.0,0.0,0.0,0.0,0.0,0.0,0.0,0.0,0.0,0.0,0.0,-2.4832,0.0,0.0,-2.7703,-2.7992,-2.8201,-2.8291,-2.8999,-2.944,-2.9529,-3.1096,0.0,0.0,0.0,0.0,-3.2454,-3.2074,-3.2113,-3.2444,-3.2434,-3.3093,-3.4132,-3.408,-3.4293,-3.4655,-3.4119,-3.3713,-3.3398,-3.3018,-3.2734,-3.2477,-3.2477,-3.2327,0.0,0.0,0.0,-3.2895,-3.3351,-3.3471,-3.3471,0.0,0.0,0.0,0.0,0.0,0.0,0.0,0.0,-3.4851,0.0,-3.5152,-3.5182,-3.5532,-3.58,-3.6062,-3.636,-3.6673,-3.6995,-3.7449,-3.7792,-3.8168,-3.8491,-3.8826,-3.9137,-3.9427,-3.9693,-3.9935,-4.0157,-4.0306,-4.0441,-4.0573,-4.0713,-4.0804,-4.0878,-4.094,-4.1008,-4.1108,-4.1105,-4.1093,-4.1091,-4.1046,-4.0972,-4.0902,-4.0848,-4.0858,-4.0906,-4.084,-4.0819,-4.0812,-4.075,-4.0713,-4.0713,-4.0713,-4.0673,-4.0636,-4.0622,-4.0577,-4.0515,0.0,0.0,0.0,0.0,0.0,0.0,0.0,0.0,0.0,0.0,0.0,0.0,0.0,0.0,0.0,-2.5141,-2.5126,-2.5393,-2.6063,-2.6994,-2.7735,-2.8192,-2.8388,-2.8717,-2.9228,-2.9616,-3.0277,-3.1166,0.0,0.0,0.0,-3.3117,-3.3006,0.0,0.0,0.0,-3.2997,-3.3252,-3.3939,-3.4924,-3.5129,-3.5328,-3.5436,-3.5018,-3.4688,-3.4431,-3.4202,-3.3853,-3.3511,-3.3511,-3.3335,-3.3208,-3.3507,0.0,0.0,0.0,-3.425,0.0,0.0,0.0,0.0,0.0,0.0,0.0,0.0,0.0,-3.5228,-3.5639,-3.5639,-3.5667,-3.58,-3.6062,-3.6402,-3.6655,-3.7052,-3.7431,-3.7827,-3.8168,-3.8504,-3.8855,-3.9137,-3.9427,-3.9693,-3.9935,-4.0138,-4.0288,-4.0444,-4.0569,-4.07,-4.0804,-4.0898,-4.0937,-4.1011,-4.1078,-4.1105,-4.1092,-4.1072,-4.1042,-4.098,-4.0913,-4.0839,-4.0773,-4.0761,-4.0796,-4.0761,-4.0732,-4.0687,-4.0654,-4.0626,-4.0583,-4.0583,-4.0569,-4.0539,-4.0539,-4.0495,-4.0432,0.0,0.0,0.0,0.0,0.0,0.0,0.0,0.0,0.0,0.0,0.0,0.0,0.0,0.0,0.0,0.0,-2.629,-2.6562,-2.7254,-2.7986,-2.8432,-2.851,-2.8869,-2.9375,-3.0033,-3.0503,-3.1334,-3.2543,0.0,0.0,-3.3753,-3.3671,-3.3444,0.0,-3.29,-3.3108,0.0,0.0,0.0,0.0,-3.6101,-3.6224,-3.6062,-3.5856,-3.5681,-3.5431,-3.5278,-3.4955,-3.4544,-3.4512,-3.4301,-3.4134,-3.4382,-3.448,0.0,0.0,0.0,0.0,0.0,0.0,0.0,0.0,0.0,0.0,0.0,0.0,-3.5684,0.0,-3.6174,-3.6259,-3.6259,-3.6468,-3.6713,-3.7034,-3.7431,-3.7845,-3.8168,-3.8523,-3.8855,-3.9165,-3.9452,-3.9717,-3.9958,-4.0158,-4.0307,-4.0438,-4.0583,-4.07,-4.0823,-4.0898,-4.0964,-4.1025,-4.107,-4.1099,-4.1093,-4.1073,-4.1033,-4.098,-4.0904,-4.0848,-4.0764,-4.07,-4.0668,-4.0642,-4.0668,-4.0631,-4.0573,-4.0573,-4.0558,-4.0489,-4.0489,-4.0508,-4.0492,-4.0492,-4.0447,-4.0344,0.0,0.0,0.0,0.0,0.0,0.0,0.0,0.0,0.0,0.0,0.0,0.0,-2.6132,-2.6285,-2.6636,-2.7349,-2.7369,-2.764,-2.8358,-2.8518,-2.8662,-2.8881,-2.9685,0.0,-3.0469,-3.1964,-3.2778,0.0,0.0,0.0,-3.3895,-3.3815,-3.3698,-3.3567,-3.4014,-3.4365,-3.4674,0.0,0.0,0.0,0.0,0.0,0.0,0.0,-3.6429,-3.6138,-3.5985,-3.5725,-3.5414,-3.5357,-3.5253,-3.5131,-3.5287,-3.5333,-3.5424,0.0,0.0,0.0,0.0,0.0,0.0,0.0,0.0,0.0,0.0,0.0,-3.6444,-3.6461,-3.6655,-3.6917,-3.7013,-3.6956,-3.7034,-3.7503,-3.7845,-3.8201,-3.8523,-3.8855,-3.9165,-3.9452,-3.9717,-3.9958,-4.0158,-4.0321,-4.0454,-4.0574,-4.072,-4.0834,-4.0898,-4.0964,-4.1031,-4.109,-4.1101,-4.1093,-4.1092,-4.1039,-4.0961,-4.0898,-4.0849,-4.0761,-4.07,-4.0651,-4.0573,-4.0504,-4.0573,-4.0573,-4.0523,-4.0523,-4.0504,-4.0489,-4.0489,-4.0511,-4.0502,-4.0502,-4.0379,-4.0215,0.0,0.0,0.0,0.0,0.0,0.0,0.0,0.0,0.0,0.0,0.0,0.0,0.0,-2.7458,-2.7791,-2.8537,-2.8525,-2.8828,-2.9672,-2.9774,-3.0065,-3.0669,-3.108,-3.1578,-3.2162,-3.2761,-3.3343,0.0,0.0,-3.4173,-3.4099,-3.4023,-3.4215,-3.4633,-3.4516,-3.4781,-3.5341,-3.6059,0.0,0.0,0.0,0.0,0.0,0.0,-3.7248,-3.7002,-3.6943,-3.6586,-3.619,-3.6156,-3.5881,0.0,0.0,0.0,0.0,0.0,0.0,0.0,0.0,0.0,0.0,0.0,0.0,-3.6492,-3.6638,-3.6719,-3.6838,-3.7111,-3.7208,-3.7358,-3.7613,-3.7541,-3.7523,-3.788,-3.8201,-3.8554,-3.8884,-3.9173,-3.9477,-3.9717,-3.9958,-4.0177,-4.0372,-4.0481,-4.0577,-4.0723,-4.0819,-4.0896,-4.0967,-4.1037,-4.1074,-4.1103,-4.1093,-4.1089,-4.1039,-4.0961,-4.0904,-4.083,-4.0711,-4.0648,-4.0631,-4.0562,-4.0515,-4.0515,-4.0427,-4.0427,-4.0479,-4.0411,-4.0358,-4.0358,-4.0323,-4.0306,-4.0307,-4.0252,-4.0177,-4.0058,0.0,0.0,0.0,0.0,0.0,0.0,0.0,0.0,0.0,0.0,0.0,0.0,0.0,0.0,-2.8869,-2.9628,-2.9922,-3.033,-3.0906,-3.0987,-3.1254,-3.1815,-3.22,-3.2676,-3.3283,-3.3607,-3.4041,0.0,0.0,0.0,0.0,-3.4221,-3.4587,-3.5291,-3.5312,-3.5599,0.0,0.0,0.0,-3.7897,0.0,0.0,-3.8,0.0,-3.8016,-3.7843,-3.7791,-3.7487,-3.7135,-3.6995,-3.6701,0.0,0.0,0.0,0.0,0.0,0.0,0.0,0.0,0.0,0.0,0.0,0.0,-3.7076,-3.7285,0.0,-3.747,-3.7755,-3.7859,-3.798,-3.8183,-3.8183,-3.815,-3.8267,-3.8554,-3.8884,-3.9192,-3.9477,-3.9739,-3.9979,-4.0177,-4.0372,-4.0545,-4.0636,-4.0715,-4.0849,-4.0902,-4.0961,-4.1037,-4.1081,-4.1105,-4.1093,-4.1084,-4.1031,-4.0974,-4.0906,-4.0837,-4.0761,-4.0635,-4.0583,-4.0573,-4.0463,-4.0413,-4.0396,-4.0252,-4.0271,-4.0396,-4.027,-4.0214,-4.0196,-4.0158,-4.012,-4.008,-4.006,-3.9958,-3.9826,0.0,0.0,0.0,0.0,0.0,0.0,0.0,0.0,0.0,-2.8241,0.0,0.0,0.0,0.0,0.0,-3.0692,-3.1516,-3.2042,-3.206,-3.206,-3.2102,-3.2182,-3.299,-3.3542,-3.375,-3.451,-3.4908,-3.4908,-3.4851,-3.4693,0.0,0.0,-3.4843,-3.5597,-3.6396,-3.6953,-3.732,0.0,-3.83,-3.8135,0.0,-3.8415,-3.8446,0.0,-3.8725,-3.8615,-3.8523,-3.8378,-3.818,-3.7911,-3.7703,-3.7505,0.0,0.0,0.0,0.0,0.0,0.0,0.0,0.0,0.0,0.0,0.0,0.0,-3.818,0.0,-3.8323,-3.8418,-3.8591,-3.873,-3.873,-3.8865,-3.8913,-3.8676,-3.8913,-3.9192,-3.9458,-3.9739,-3.9979,-4.0177,-4.0372,-4.0564,-4.0694,-4.0768,-4.0858,-4.0986,-4.1006,-4.1037,-4.1108,-4.1107,-4.1092,-4.1094,-4.1037,-4.0953,-4.0907,-4.0834,-4.0764,-4.0687,-4.0569,-4.0489,-4.0489,-4.0341,-4.0252,-4.0196,-4.0039,-4.0059,-4.0158,-4.0101,-4.0042,-3.9983,-3.9963,-3.9939,-3.9892,-3.9892,-3.9717,-3.9477,0.0,0.0,0.0,0.0,0.0,0.0,0.0,-2.889,-2.9345,0.0,0.0,0.0,-3.0845,-3.1444,-3.1894,-3.2123,-3.2371,-3.2772,-3.3405,-3.3462,-3.371,-3.4318,-3.4617,-3.4802,-3.4849,-3.5128,-3.5258,-3.5258,-3.5184,-3.5069,-3.4945,-3.5456,-3.6071,0.0,-3.7568,-3.8247,-3.8775,-3.8781,0.0,-3.8664,-3.8743,-3.8815,-3.8931,-3.9045,-3.9073,-3.9027,-3.8905,-3.8752,-3.8603,-3.8444,-3.8287,-3.8143,0.0,0.0,0.0,0.0,0.0,0.0,-3.8138,0.0,0.0,0.0,0.0,0.0,-3.8591,0.0,-3.8781,-3.8933,-3.9008,-3.9082,-3.9119,-3.9253,-3.9357,-3.9331,-3.9357,-3.9483,-3.9739,-3.9979,-4.0196,-4.0389,-4.0545,-4.0694,-4.0839,-4.0904,-4.0981,-4.1072,-4.1062,-4.1082,-4.1091,-4.1108,-4.1081,-4.1031,-4.0964,-4.0907,-4.0834,-4.07,-4.0621,-4.0549,-4.0476,-4.0394,-4.0286,-4.0139,-4.0039,-3.9958,-3.9739,-3.9628,-3.9628,-3.9651,-3.9675,-3.9632,-3.9537,-3.9483,-3.9477,-3.9401,-3.9272,-3.9137,0.0,0.0,0.0,0.0,0.0,0.0,-2.9468,-3.0177,-3.0732,0.0,0.0,0.0,-3.202,-3.2795,-3.3327,-3.3327,-3.3635,-3.4039,-3.4545,-3.4584,-3.4814,-3.5309,-3.5361,-3.5406,-3.5412,-3.5456,-3.5488,-3.5488,-3.5772,-3.5864,-3.5783,-3.6506,-3.7223,-3.7924,0.0,0.0,0.0,0.0,0.0,0.0,-3.9007,-3.9073,-3.9192,-3.9376,-3.9477,-3.9483,-3.9402,-3.9333,-3.9238,-3.9107,-3.8906,-3.8722,0.0,0.0,0.0,0.0,0.0,0.0,0.0,0.0,0.0,0.0,0.0,0.0,-3.9216,-3.9294,-3.9371,-3.9494,-3.9537,-3.9561,-3.9632,-3.9702,-3.9769,-3.9878,-3.988,-3.992,-4.002,-4.0195,-4.0386,-4.0559,-4.0694,-4.0839,-4.0932,-4.1007,-4.1061,-4.1094,-4.1108,-4.1093,-4.1062,-4.107,-4.1019,-4.0918,-4.0878,-4.0815,-4.072,-4.0607,-4.0519,-4.046,-4.036,-4.0252,-4.0119,-3.9935,-3.9781,-3.967,-3.9452,-3.9298,-3.9237,-3.9219,-3.9272,-3.9324,-3.9219,-3.9156,-3.9129,-3.8998,-3.8855,-3.8737,0.0,0.0,0.0,0.0,0.0,0.0,-3.0689,-3.1314,-3.1788,0.0,-3.2527,-3.3139,-3.3228,-3.3914,-3.4397,-3.4397,-3.5044,-3.5458,-3.5458,-3.5458,-3.5469,-3.554,-3.554,-3.5562,-3.5631,-3.5728,-3.5786,-3.5786,-3.658,-3.6942,-3.6884,-3.7641,-3.8331,-3.8967,0.0,0.0,0.0,0.0,0.0,-3.912,-3.921,-3.9272,-3.9401,-3.9717,-3.987,-3.9916,-3.992,-3.9922,-3.992,-3.9807,-3.9532,-3.9253,-3.911,0.0,0.0,0.0,-3.9073,0.0,0.0,0.0,0.0,0.0,-3.9502,0.0,-3.9873,-3.9956,-3.9958,-4.0022,-4.0043,-4.0062,-4.012,-4.0139,-4.0176,-4.0298,-4.0383,-4.0403,-4.0267,-4.0399,-4.0582,-4.0706,-4.0829,-4.0941,-4.0994,-4.1081,-4.1094,-4.1092,-4.1093,-4.1055,-4.0992,-4.0974,-4.0913,-4.08,-4.0773,-4.072,-4.0588,-4.0519,-4.046,-4.0379,-4.0234,-4.0098,-3.9933,-3.967,-3.9477,-3.9324,-3.9156,-3.9017,-3.8968,-3.8822,-3.8892,-3.9073,-3.8989,-3.8902,-3.8833,-3.8615,-3.8428,-3.8285,0.0,0.0,0.0,0.0,0.0,0.0,-3.255,-3.279,-3.2884,-3.2893,-3.3692,-3.4536,-3.524,-3.5474,-3.5572,-3.5572,-3.5708,-3.58,-3.58,-3.58,-3.5805,-3.5825,-3.5825,-3.583,-3.5836,-3.6537,-3.6893,-3.6893,-3.7683,-3.805,-3.8013,-3.88,-3.9212,-3.932,0.0,0.0,0.0,0.0,0.0,-3.9717,-3.9526,-3.9575,-3.9785,-3.9975,-4.0078,-4.0158,-4.0139,-4.0139,-4.012,-4.0058,-3.9954,-3.9804,-3.9551,-3.9452,-3.9401,-3.9272,0.0,0.0,0.0,0.0,0.0,0.0,-3.9848,0.0,-4.01,-4.0177,-4.0252,-4.0302,-4.0319,-4.0336,-4.0348,-4.0392,-4.0419,-4.0468,-4.0623,-4.068,-4.0549,-4.0649,-4.0776,-4.084,-4.0933,-4.1011,-4.1061,-4.1097,-4.1091,-4.1093,-4.1049,-4.0998,-4.0918,-4.0867,-4.08,-4.073,-4.0675,-4.0607,-4.0519,-4.046,-4.0362,-4.0234,-4.0058,-3.9829,-3.9599,-3.9376,-3.921,-3.9064,-3.8921,-3.8833,-3.8803,-3.8652,-3.8664,-3.8833,-3.8664,-3.8572,-3.8478,-3.8267,-3.8034,-3.7845,0.0,0.0,0.0,0.0,0.0,0.0,0.0,-3.3646,-3.391,-3.3935,-3.4729,-3.5458,-3.586,-3.5901,-3.5901,-3.5906,-3.6294,-3.6545,-3.6545,-3.697,-3.7201,-3.7201,-3.7194,-3.7191,-3.7191,-3.7624,-3.7858,-3.7858,-3.8686,-3.9078,-3.9078,-3.9875,-4.0207,-4.0158,-4.0505,0.0,0.0,0.0,-4.0175,-4.012,-3.981,-3.9829,-4.002,-4.0196,-4.0306,-4.0406,-4.0441,-4.0441,-4.0389,-4.0321,-4.0233,-4.0138,-4.0,-3.9876,-3.9791,-3.9769,-3.9747,-3.9769,0.0,0.0,-3.9943,-4.012,-4.0195,0.0,0.0,-4.0469,-4.0515,-4.0593,-4.0602,-4.061,-4.0642,-4.068,-4.0707,-4.0742,-4.0829,-4.0882,-4.0843,-4.0882,-4.0918,-4.0954,-4.1018,-4.1069,-4.1101,-4.1093,-4.109,-4.1042,-4.098,-4.0921,-4.0859,-4.0796,-4.0725,-4.0654,-4.0579,-4.0519,-4.046,-4.0362,-4.0215,-4.0038,-3.9807,-3.9575,-3.935,-3.9129,-3.9007,-3.8892,-3.8713,-3.8652,-3.8652,-3.8465,-3.8433,-3.8446,-3.83,-3.8168,-3.8068,-3.7703,-3.7487,-3.7264,-3.2207,0.0,0.0,0.0,0.0,0.0,0.0,0.0,-3.4895,-3.4942,-3.5556,-3.5973,-3.5937,-3.6055,-3.6152,-3.615,-3.6952,-3.7441,-3.7441,-3.8123,-3.8511,-3.8529,-3.8524,-3.8522,-3.8522,-3.8678,-3.8776,-3.8776,-3.9632,-4.0054,-4.0055,-4.0725,-4.0986,-4.0953,-4.0866,0.0,0.0,0.0,0.0,-4.0431,-4.0157,-4.0101,-4.0195,-4.0392,-4.0534,-4.0648,-4.0694,-4.0675,-4.0629,-4.0554,-4.045,-4.0358,-4.0341,-4.0269,-4.0177,-4.0232,-4.025,-4.025,-4.0248,-4.03,-4.0348,-4.045,-4.0511,-4.0568,0.0,0.0,0.0,-4.0826,-4.0839,-4.0849,-4.0904,-4.0932,-4.0957,-4.1019,-4.1011,-4.1037,-4.1091,-4.1046,-4.1016,-4.1016,-4.1064,-4.1093,-4.1093,-4.1086,-4.1058,-4.1,-4.0915,-4.0848,-4.0764,-4.07,-4.0612,-4.0543,-4.0492,-4.0408,-4.0325,-4.0215,-4.0038,-3.9807,-3.9556,-3.9324,-3.9129,-3.895,-3.8822,-3.8713,-3.8541,-3.8446,-3.8396,-3.8238,-3.8104,-3.7982,-3.7949,-3.7862,-3.7685,-3.7206,-3.6935,-3.6799,-3.3221,-3.3242,0.0,0.0,0.0,0.0,0.0,0.0,-3.5834,-3.5859,-3.5937,-3.5994,-3.5982,0.0,0.0,0.0,0.0,-3.8352,-3.8358,-3.8508,-3.8591,-3.8593,-3.8594,-3.8593,-3.8593,-3.9355,-3.9746,-3.9746,-4.0545,-4.0952,-4.0947,-4.1052,-4.1081,-4.1078,-4.1003,0.0,0.0,0.0,-4.0721,0.0,-4.0617,-4.0554,-4.0462,-4.0596,-4.0713,-4.0788,-4.0784,-4.0776,-4.0784,-4.0706,-4.0623,-4.0549,-4.0496,-4.0469,-4.0438,-4.038,-4.038,-4.0377,-4.0453,-4.0463,-4.0511,-4.0623,-4.0667,-4.0703,-4.0849,0.0,-4.0897,-4.0953,0.0,-4.0987,-4.0998,0.0,0.0,-4.1085,-4.1091,-4.1086,-4.111,-4.1092,-4.1089,-4.1093,-4.1091,-4.1103,-4.1101,-4.1046,-4.0981,-4.0915,-4.0848,-4.0764,-4.0617,-4.0554,-4.0457,-4.0342,-4.0342,-4.0271,-4.0157,-3.9996,-3.9807,-3.9532,-3.9324,-3.9129,-3.8921,-3.878,-3.864,-3.8541,-3.8368,-3.8238,-3.8135,-3.788,-3.7685,-3.7578,-3.7685,-3.7613,-3.7394,-3.6974,-3.6713,-3.6544,-3.4163,-3.41,0.0,0.0,0.0,0.0,0.0,0.0,-3.6889,-3.7385,-3.7455,0.0,0.0,0.0,0.0,0.0,0.0,-3.9137,-3.9137,-3.9667,0.0,-4.005,-4.0047,-4.0054,-4.0054,-4.0409,-4.0605,-4.0605,-4.0976,-4.1132,-4.109,-4.1107,-4.1103,-4.1101,-4.1072,0.0,-4.1003,0.0,-4.0901,0.0,-4.0876,-4.083,-4.0801,-4.0779,-4.082,-4.0924,-4.0926,-4.0918,-4.0913,-4.0887,-4.0829,-4.0776,-4.0734,-4.0742,-4.073,-4.0696,-4.0688,-4.071,-4.0712,-4.0762,-4.081,-4.0857,-4.0863,-4.0887,-4.0954,-4.0987,-4.1019,-4.1047,0.0,0.0,0.0,0.0,0.0,0.0,-4.1093,-4.1093,-4.1105,-4.1078,-4.1046,-4.1033,-4.1031,-4.1022,-4.0986,-4.0926,-4.0878,-4.0837,-4.0738,-4.0635,-4.0539,-4.0476,-4.0375,-4.0252,-4.0158,-4.0078,-3.9933,-3.9735,-3.9526,-3.9324,-3.9073,-3.8892,-3.878,-3.8564,-3.8368,-3.8267,-3.8052,-3.788,-3.7739,-3.7358,-3.7188,-3.7073,-3.6956,-3.6917,-3.6895,-3.6426,-3.6148,-3.5932,-3.499,0.0,0.0,0.0,0.0,0.0,0.0,0.0,-3.7749,-3.839,-3.8466,0.0,-3.8313,-3.8491,0.0,0.0,-3.9393,-3.9927,-3.9935,-4.0597,-4.1011,-4.1061,-4.1074,-4.1072,-4.1094,-4.1101,-4.1107,-4.1107,-4.115,-4.1151,-4.1094,-4.1094,-4.1094,-4.1093,0.0,-4.1091,-4.1107,0.0,-4.1023,-4.1027,-4.1037,-4.1033,-4.1022,-4.0914,-4.094,-4.1022,-4.1022,-4.1033,-4.1037,-4.1033,-4.0979,-4.0932,-4.0932,-4.0932,-4.0921,-4.094,-4.0942,-4.0935,-4.0922,-4.0959,-4.0989,-4.1013,-4.1022,-4.1031,-4.1035,-4.1078,-4.1101,-4.1108,-4.1097,0.0,0.0,0.0,-4.1094,-4.1092,0.0,-4.1069,-4.1081,-4.0994,-4.0948,-4.0967,-4.0967,-4.0932,-4.0869,-4.08,-4.0765,-4.0752,-4.0654,-4.0534,-4.0408,-4.0341,-4.0214,-4.0041,-3.9916,-3.9804,-3.9623,-3.9427,-3.9237,-3.9073,-3.8833,-3.8652,-3.8515,-3.8256,-3.8052,-3.7913,-3.7596,-3.7413,-3.7283,-3.69,-3.6696,-3.6591,-3.6259,-3.6156,-3.6241,-3.5827,-3.5639,-3.5503,-3.556,-3.5621,0.0,0.0,0.0,0.0,0.0,-3.833,-3.8375,-3.8396,-3.835,-3.8294,0.0,0.0,0.0,0.0,-4.025,-4.0759,-4.0771,-4.0902,-4.1,-4.0994,-4.1003,-4.1022,-4.1094,-4.1094,-4.1101,-4.1091,-4.1091,-4.1094,-4.1099,-4.1099,-4.1099,-4.1101,-4.1105,-4.1105,-4.1101,-4.109,-4.1093,-4.1093,-4.1093,-4.1108,-4.1103,-4.1081,-4.1097,-4.1108,-4.1108,-4.1108,-4.1104,-4.11,-4.1042,-4.0992,-4.0992,-4.0992,-4.1003,-4.1,-4.0994,-4.1001,-4.0991,-4.0991,-4.1029,-4.1071,-4.1105,-4.1099,-4.1105,-4.1101,-4.1101,-4.111,-4.1093,-4.1094,-4.1093,-4.1107,-4.1099,0.0,-4.1046,0.0,0.0,-4.0896,-4.083,-4.0904,-4.0849,-4.0807,-4.0812,-4.0738,-4.0675,-4.0603,-4.0539,-4.0427,-4.0215,-4.008,-3.9899,-3.9623,-3.9551,-3.9427,-3.921,-3.9156,-3.9017,-3.8822,-3.8603,-3.8364,-3.8101,-3.7827,-3.765,-3.7505,-3.7094,-3.6878,-3.6776,-3.6468,-3.6276,-3.6165,-3.5756,-3.556,-3.5424,-3.5424,-3.535,-3.5245,0.0,0.0,0.0,0.0,0.0,0.0,-3.8986,-3.9083,-3.9258,-3.9839,-3.9863,-3.9811,-3.9831,-4.0028,-4.0154,-4.0159,-4.0467,-4.0662,-4.0681,-4.0746,-4.0819,-4.0878,-4.0904,-4.0937,-4.0964,-4.1013,-4.1037,-4.1022,-4.1022,-4.1031,-4.1035,-4.1081,-4.1104,-4.1104,-4.1094,-4.1094,0.0,0.0,0.0,0.0,-4.1103,-4.1103,-4.1105,-4.1093,-4.1108,-4.1107,-4.1149,-4.1147,-4.1105,-4.1101,-4.1077,-4.1074,-4.1077,-4.1064,-4.1051,-4.1015,-4.0995,-4.0991,-4.1009,-4.1006,-4.1025,-4.1086,-4.1105,-4.1105,-4.1107,-4.1108,-4.1108,-4.1107,-4.1101,-4.1094,-4.1091,-4.1051,0.0,0.0,0.0,-4.0913,0.0,-4.0757,-4.0649,-4.0636,-4.0655,-4.0675,-4.0673,-4.0612,-4.0534,-4.0479,-4.0358,-4.0214,-4.0077,-3.9956,-3.9743,-3.9477,-3.935,-3.9237,-3.9064,-3.891,-3.8762,-3.8603,-3.8318,-3.8034,-3.7827,-3.7468,-3.7206,-3.7034,-3.6638,-3.6451,-3.636,-3.6105,-3.5888,-3.5756,-3.5503,-3.5211,-3.493,-3.493,-3.4835,-3.4594,-3.7781,0.0,0.0,0.0,0.0,-3.8907,-3.977,-3.983,-3.9998,-4.0571,-4.0545,-4.0489,-4.0476,-4.046,-4.0425,-4.0425,-4.0508,-4.0554,-4.0545,-4.0648,-4.072,-4.0764,-4.0815,-4.0839,-4.0868,-4.0906,-4.0921,-4.0929,-4.094,-4.0935,-4.0968,-4.1006,-4.1042,-4.1057,0.0,-4.1066,-4.1061,-4.1033,-4.1022,0.0,-4.1017,-4.1047,-4.1061,-4.1052,-4.1087,-4.1112,-4.115,-4.1131,-4.1093,-4.1093,-4.1094,-4.1094,-4.1073,-4.1068,-4.1055,-4.098,-4.0959,-4.0959,-4.0933,-4.0947,-4.0967,-4.1017,-4.1028,-4.1033,-4.1033,-4.1018,-4.0994,-4.0994,-4.0972,-4.0961,-4.0961,-4.0921,-4.0902,0.0,0.0,0.0,0.0,-4.0602,-4.0504,-4.0441,-4.0523,-4.0539,-4.0511,-4.0425,-4.0358,-4.0271,-4.0158,-4.0,-3.9804,-3.967,-3.9502,-3.9237,-3.9101,-3.896,-3.8815,-3.867,-3.8496,-3.8318,-3.8018,-3.7703,-3.7376,-3.7069,-3.6794,-3.655,-3.6276,-3.6105,-3.6036,-3.5773,-3.5594,-3.5458,-3.5182,-3.4851,-3.4497,-3.4497,-3.4184,-3.3713,-3.7718,-3.8439,0.0,-3.8219,-3.8857,-3.9708,-4.0472,-4.0545,-4.05,-4.0489,-4.0358,-4.0289,-4.0289,-4.0289,-4.0289,-4.0307,-4.0408,-4.0489,-4.0489,-4.0612,-4.0687,-4.0687,-4.0688,-4.0725,-4.0788,-4.0788,-4.0812,-4.0807,-4.0807,-4.0828,-4.0878,-4.0887,-4.0937,-4.0987,-4.0987,0.0,-4.0986,-4.0921,-4.0849,-4.08,-4.0869,-4.0932,-4.0981,-4.0981,-4.1022,-4.1085,-4.1088,-4.1108,-4.1108,-4.1094,-4.1091,-4.1085,-4.1016,-4.0994,-4.098,-4.091,-4.0887,-4.0888,-4.0818,-4.0839,-4.0878,-4.0878,-4.0894,-4.0875,-4.089,-4.0824,-4.0777,-4.0779,-4.0714,-4.0673,-4.0683,-4.0688,-4.068,0.0,0.0,0.0,-4.0489,-4.0427,-4.036,-4.0289,-4.0396,-4.0432,-4.0307,-4.0214,-4.012,-3.9996,-3.9914,-3.9739,-3.9401,-3.9324,-3.9165,-3.891,-3.8822,-3.8683,-3.851,-3.8415,-3.8252,-3.7984,-3.7721,-3.7319,-3.686,-3.6591,-3.6377,-3.6182,-3.5905,-3.5773,-3.5773,-3.5566,-3.54,-3.5245,-3.4851,-3.4399,-3.405,-3.405,-3.3507,-3.2734,-3.929,-3.9584,-3.9776,-3.9583,-3.9844,-4.0142,-4.0336,-4.0325,-4.0271,-4.0272,-4.0158,-4.0099,-4.0157,-4.0099,-4.0099,-4.0158,-4.0177,-4.0251,-4.0341,-4.0375,-4.0444,-4.0546,-4.0554,-4.0579,-4.0646,-4.07,-4.0726,-4.0739,-4.0725,-4.073,-4.0742,-4.0798,-4.082,-4.0858,0.0,-4.0929,-4.0921,-4.0849,-4.0789,-4.073,-4.0804,-4.0826,-4.0858,-4.084,-4.0869,-4.0885,-4.0998,-4.1027,-4.1022,-4.1028,-4.1037,-4.1006,-4.0953,-4.0894,-4.0849,-4.0828,-4.0784,-4.0742,-4.073,-4.073,-4.0742,-4.0742,-4.0703,-4.0653,-4.0609,-4.0501,-4.0409,-4.0361,-4.0308,-4.0281,-4.0312,-4.0323,-4.0345,0.0,0.0,0.0,-4.0213,-4.0196,-4.0139,-4.0019,-4.0039,-4.0059,-4.0078,-4.0019,-3.9873,-3.9647,-3.9575,-3.9427,-3.921,-3.9101,-3.8979,-3.875,-3.8719,-3.8627,-3.8354,-3.8204,-3.7949,-3.7685,-3.7281,-3.6917,-3.6591,-3.6276,-3.6036,-3.5905,-3.5656,-3.5583,-3.5583,-3.5291,-3.5041,-3.4787,-3.4399,-3.3713,-3.298,-3.298,-3.2711,-3.2342,-3.9575,-3.9721,-3.9876,-3.9918,-3.996,-4.004,-4.0196,-4.0118,-4.0038,-3.9996,-3.9892,-3.9826,-3.9781,-3.9804,-3.9829,-3.9854,-3.9939,-4.004,-4.0119,-4.0196,-4.0252,-4.0325,-4.0358,-4.0392,-4.0427,-4.0492,-4.0523,-4.0523,-4.0583,-4.0607,-4.0602,-4.0681,-4.073,0.0,0.0,-4.081,-4.08,-4.0742,-4.07,-4.0668,-4.07,-4.0726,0.0,-4.0757,-4.0761,-4.0765,-4.0848,-4.0898,-4.0906,-4.0902,-4.0904,-4.0906,-4.0819,-4.0796,-4.0761,-4.0707,-4.07,-4.0648,-4.0635,-4.0602,-4.0602,-4.0588,-4.0526,-4.0442,-4.0345,-4.0206,-4.0061,-4.0005,-3.9946,-3.9886,-3.9926,-3.9964,-4.0003,-4.0062,-4.0061,-3.9981,-3.9859,-3.9731,-3.9599,-3.9519,-3.9445,-3.9421,-3.9421,-3.958,-3.9575,-3.935,-3.9245,-3.9129,-3.8921,-3.8881,-3.8762,-3.8533,-3.8483,-3.8303,-3.8036,-3.7845,-3.7577,-3.7261,-3.6895,-3.6591,-3.6276,-3.5975,-3.5773,-3.5656,-3.5429,-3.5291,-3.5198,-3.4899,-3.4594,-3.43,-3.3662,-3.298,-3.2342,-3.2287,-3.2135,-3.1981,-3.9183,-3.9324,-3.9508,-3.9647,-3.9599,-3.9665,-3.9954,-3.9914,-3.9807,-3.9693,-3.9623,-3.9526,-3.9401,-3.9477,-3.9526,-3.9477,-3.967,-3.9807,-3.9848,-3.996,-4.0041,-4.0061,-4.012,-4.0158,-4.0158,-4.0233,-4.027,-4.0307,-4.0413,-4.0479,-4.0508,-4.0564,0.0,0.0,0.0,0.0,0.0,-4.0612,-4.0588,-4.0592,-4.0592,-4.0617,-4.0673,-4.0673,-4.0662,-4.0668,-4.0668,-4.0718,-4.0796,-4.0796,-4.0792,-4.0776,-4.07,-4.0694,-4.0673,-4.0603,-4.0592,-4.0558,-4.0508,-4.0492,-4.0457,-4.0389,-4.0319,-4.0212,-4.0081,-3.9859,-3.9705,-3.9628,-3.9551,-3.9502,-3.9502,-3.9532,-3.958,-3.9628,-3.9604,-3.9494,-3.9383,-3.916,0.0,0.0,-3.8799,0.0,-3.8591,-3.9036,-3.9219,-3.9027,-3.8931,-3.8833,-3.8627,-3.8596,-3.8501,-3.8223,-3.8086,-3.7879,-3.7577,-3.7413,-3.7129,-3.6696,-3.6527,-3.6233,-3.5888,-3.5667,-3.5503,-3.54,-3.5088,-3.4899,-3.4739,-3.4349,-3.3984,-3.3626,-3.2819,-3.2287,-3.194,-3.1784,-3.1727,-3.1727,-3.9036,0.0,0.0,-3.9376,-3.9401,-3.9427,-3.9452,-3.9508,-3.9556,-3.9551,-3.9477,-3.9401,-3.9324,-3.9272,-3.9264,-3.9245,-3.9317,-3.9401,-3.9575,-3.958,-3.9698,-3.9935,-3.9956,-3.9979,-4.0042,-4.0101,-4.0177,-4.0214,-4.036,-4.0449,-4.0499,-4.0558,0.0,0.0,0.0,0.0,-4.0617,-4.0603,-4.0573,-4.0523,-4.0523,-4.0519,-4.0539,-4.0539,-4.0534,-4.0534,-4.0534,-4.0602,-4.0725,-4.072,-4.0726,-4.07,-4.0646,-4.0617,-4.0603,-4.0539,-4.0511,-4.0499,-4.0499,-4.043,-4.0325,-4.0253,-4.0099,-3.9916,-3.9721,-3.9483,-3.9298,-3.9219,-3.9073,-3.895,-3.8989,-3.8923,-3.8839,-3.883,-3.8755,-3.8667,-3.8608,-3.8548,-3.8475,0.0,-3.831,-3.8245,-3.8062,-3.8566,-3.8803,-3.8541,-3.851,-3.8415,-3.8219,-3.8153,-3.8036,-3.781,-3.7667,-3.7432,-3.7055,-3.6956,-3.6696,-3.6224,-3.6019,-3.5728,-3.5429,-3.5274,-3.5041,-3.4851,-3.4546,-3.4349,-3.4201,-3.361,-3.3087,-3.2617,-3.2247,-3.1996,-3.1784,-3.1597,-3.1467,-3.1409,-3.8881,0.0,0.0,0.0,-3.9129,-3.9129,-3.9101,-3.9156,-3.9192,-3.9237,-3.921,-3.9156,-3.9045,-3.9045,-3.9036,-3.9007,-3.9064,-3.9129,-3.9219,-3.9317,-3.9401,-3.9526,-3.9575,-3.9604,-3.9656,-3.9747,-3.9854,-3.9939,-4.0101,-4.027,-4.0396,-4.0499,-4.0546,-4.0546,0.0,-4.0441,0.0,-4.0444,-4.0427,-4.0392,-4.046,-4.0495,-4.0495,-4.0508,-4.0489,-4.0489,-4.0489,-4.0534,-4.0598,-4.0598,-4.0603,-4.0592,-4.0562,-4.0495,-4.0427,-4.0411,-4.0377,-4.0344,-4.0307,-4.0215,-4.0118,-4.0017,-3.9826,-3.9599,-3.9427,-3.9183,-3.8979,-3.891,-3.8743,-3.8572,-3.851,-3.836,-3.8241,-3.8172,-3.8074,-3.7993,-3.7943,-3.7807,-3.7685,0.0,0.0,0.0,-3.7396,-3.7738,-3.8016,-3.8068,-3.8101,-3.8,-3.7809,-3.7774,-3.7596,-3.7301,-3.7132,-3.6843,-3.6498,-3.6266,-3.6011,-3.5694,-3.5407,-3.5195,-3.4994,-3.4707,-3.4497,-3.4349,-3.3917,-3.3646,-3.3491,-3.2926,-3.2453,-3.2094,-3.194,-3.1769,-3.1539,-3.1409,-3.1234,-3.1058,-3.878,-3.8792,-3.8822,-3.8881,-3.891,-3.891,-3.8881,-3.8881,-3.8892,-3.895,-3.8979,-3.8921,-3.8822,-3.8851,-3.8851,-3.8792,-3.8881,-3.8939,-3.8968,-3.9064,-3.9129,-3.9156,-3.921,-3.9245,-3.9245,-3.9401,-3.9508,-3.967,-3.9857,-4.0081,-4.0271,-4.0396,-4.0449,-4.0432,-4.0307,-4.0252,-4.0252,-4.0252,-4.0252,-4.027,-4.0379,-4.0413,-4.0449,-4.0444,-4.0441,-4.0441,-4.0441,-4.0427,-4.043,-4.0408,-4.0427,-4.0449,-4.0449,-4.0342,-4.0252,-4.0252,-4.0196,-4.012,-4.0061,-3.9979,-3.987,-3.9739,-3.9526,-3.9298,-3.9156,-3.895,-3.8732,-3.8609,-3.8401,-3.8117,-3.7879,-3.7756,-3.7614,-3.747,-3.7342,-3.7248,-3.7228,-3.6978,-3.6759,-3.6661,0.0,0.0,-3.6661,-3.6821,-3.7055,-3.7432,-3.7542,-3.7505,-3.7266,-3.7228,-3.7076,-3.6701,-3.6481,-3.6207,-3.5881,-3.5571,-3.5316,-3.5041,-3.4754,-3.4561,-3.4382,-3.4034,-3.3882,-3.3764,-3.3245,-3.2911,-3.2695,-3.2302,-3.1996,-3.1727,-3.1727,-3.1539,-3.1219,-3.1161,-3.0925,-3.0628,-3.8707,-3.875,-3.8822,-3.8822,-3.8881,-3.8881,-3.8822,-3.8822,-3.8851,-3.891,-3.891,-3.8881,-3.8822,-3.8822,-3.8792,-3.8738,-3.8738,-3.875,-3.8822,-3.8851,-3.8892,-3.9007,-3.9007,-3.9064,-3.9129,-3.9245,-3.9383,-3.9526,-3.9785,-3.9998,-4.0215,-4.0271,-4.0288,-4.0214,-4.0139,-4.0062,-4.0022,-4.0022,-4.0062,-4.012,-4.012,-4.0177,-4.0233,-4.0233,-4.0233,-4.0233,-4.0233,-4.0233,-4.0215,-4.0158,-4.0214,-4.0307,-4.0252,-4.0177,-4.0101,-4.0042,-3.9981,-3.9935,-3.9935,-3.9739,-3.9526,-3.9452,-3.9272,-3.9101,-3.895,-3.8725,-3.846,-3.83,-3.7895,-3.7469,-3.7094,-3.6956,-3.6856,-3.6632,-3.6392,-3.6249,-3.6207,-3.6054,-3.5898,-3.5898,0.0,0.0,-3.5898,-3.5941,-3.6011,-3.6249,-3.6701,-3.686,-3.6539,-3.6451,-3.6266,-3.5977,-3.5776,-3.5509,-3.5115,-3.4975,-3.4642,-3.4201,-3.4201,-3.3882,-3.3351,-3.3282,-3.3071,-3.2749,-3.2547,-3.2247,-3.1898,-3.1841,-3.1727,-3.1539,-3.1409,-3.1219,-3.097,-3.0747,-3.0326,-2.987,-3.8707,-3.8719,-3.875,-3.875,-3.875,-3.878,-3.875,-3.875,-3.875,-3.878,-3.878,-3.878,-3.875,-3.875,-3.8719,-3.8707,-3.8707,-3.8689,-3.875,-3.875,-3.875,-3.881,-3.881,-3.8822,-3.8851,-3.895,-3.9101,-3.9272,-3.9502,-3.9717,-3.9975,-4.0078,-4.008,-4.002,-3.9832,-3.9724,-3.9702,-3.9702,-3.9724,-3.9747,-3.9916,-4.0,-4.002,-4.0061,-4.0081,-4.0081,-4.0081,-4.0041,-4.0019,-3.9979,-4.0039,-4.0118,-4.004,-3.9897,-3.9724,-3.9702,-3.9609,-3.9526,-3.9502,-3.9376,-3.9219,-3.9129,-3.8979,-3.8803,-3.8652,-3.8382,-3.8135,-3.7931,-3.745,-3.6956,-3.6597,-3.6509,-3.636,-3.6122,-3.5915,-3.5722,-3.5571,-3.5345,-3.5207,-3.5207,-3.5144,-3.5161,-3.535,-3.5424,-3.5453,-3.5515,-3.5994,-3.6207,-3.6054,-3.5941,-3.5705,-3.5266,-3.5115,-3.4849,-3.4464,-3.4168,-3.3866,-3.3559,-3.3298,-3.3071,-3.2803,-3.2656,-3.2398,-3.215,-3.2038,-3.1883,-3.1597,-3.1597,-3.1539,-3.1351,-3.1219,-3.0911,-3.0553,-3.0251,-2.9747,-2.917,-3.8707,-3.8707,-3.8707,-3.8707,-3.8707,-3.8707,-3.8707,-3.8707,-3.8707,-3.8707,-3.8707,-3.8707,-3.8707,-3.8707,-3.8707,-3.8707,-3.8707,-3.8707,-3.8707,-3.8707,-3.8707,-3.8707,-3.8707,-3.8707,-3.8707,-3.878,-3.8862,-3.9045,-3.9245,-3.9452,-3.967,-3.9804,-3.9826,-3.9739,-3.9526,-3.9401,-3.9401,-3.9401,-3.9401,-3.9427,-3.9623,-3.9717,-3.9739,-3.9769,-3.9794,-3.9794,-3.9794,-3.9747,-3.9717,-3.9693,-3.9717,-3.9758,-3.9739,-3.9599,-3.9401,-3.9401,-3.9298,-3.921,-3.9129,-3.9064,-3.895,-3.8803,-3.864,-3.8483,-3.8252,-3.8,-3.7721,-3.7394,-3.6974,-3.6509,-3.6174,-3.6062,-3.5949,-3.5639,-3.5441,-3.5241,-3.4991,-3.4642,-3.4448,-3.4399,-3.4399,-3.4415,-3.4594,-3.4675,-3.4706,-3.4787,-3.5068,-3.5283,-3.5407,-3.5316,-3.5021,-3.4545,-3.4431,-3.4134,-3.3764,-3.3471,-3.3156,-3.2926,-3.2602,-3.2437,-3.2342,-3.2135,-3.1868,-3.1727,-3.1727,-3.1597,-3.1409,-3.1409,-3.1351,-3.1102,-3.0911,-3.0493,-3.0021,-2.9637,-2.9058,-2.8481,-3.8707,-3.8707,-3.8707,-3.8707,-3.8707,-3.8707,-3.8707,-3.8707,-3.8707,-3.8707,-3.8707,-3.8707,-3.8707,-3.8707,-3.8707,-3.8707,-3.8707,-3.8707,-3.8707,-3.8707,-3.8707,-3.8707,-3.8707,-3.8707,-3.8707,-3.878,-3.8851,-3.8892,-3.9101,-3.9264,-3.942,-3.9477,-3.9477,-3.9401,-3.9245,-3.9156,-3.9101,-3.9101,-3.9156,-3.921,-3.921,-3.9264,-3.9324,-3.9324,-3.9324,-3.9324,-3.9324,-3.9324,-3.9298,-3.9237,-3.9156,-3.9156,-3.9324,-3.9298,-3.9183,-3.9129,-3.9064,-3.8979,-3.8921,-3.881,-3.8658,-3.8465,-3.8252,-3.8034,-3.7774,-3.7541,-3.7243,-3.665,-3.6335,-3.6079,-3.5667,-3.5622,-3.5487,-3.5135,-3.4899,-3.4594,-3.4349,-3.3949,-3.3642,-3.3555,-3.3398,-3.3346,-3.3503,-3.3503,-3.371,-3.4101,-3.3848,-3.3949,-3.4497,-3.4399,-3.4201,-3.3899,-3.3642,-3.3366,-3.3002,-3.2895,-3.2602,-3.2191,-3.2191,-3.2038,-3.1784,-3.1597,-3.1539,-3.1482,-3.1482,-3.1409,-3.1278,-3.1278,-3.1117,-3.0762,-3.0447,-3.0021,-2.954,-2.8844,-2.8249,-2.7789,-3.8437,-3.8336,-3.8285,-3.8285,-3.8285,-3.8285,-3.8285,-3.8387,-3.8437,-3.8437,-3.8515,-3.8559,-3.8559,-3.8658,-3.8707,-3.8707,-3.8707,-3.8707,-3.8707,-3.8707,-3.8707,-3.8707,-3.8707,-3.8707,-3.8707,-3.8719,-3.8762,-3.8851,-3.895,-3.9045,-3.9192,-3.9183,-3.9156,-3.9101,-3.8979,-3.8921,-3.8892,-3.8892,-3.8921,-3.895,-3.9036,-3.9092,-3.9101,-3.9156,-3.9165,-3.9165,-3.9165,-3.9129,-3.9092,-3.9007,-3.8939,-3.8822,-3.8737,-3.8785,-3.8851,-3.8822,-3.867,-3.8515,-3.8483,-3.8336,-3.8153,-3.7984,-3.7809,-3.7578,-3.7264,-3.6878,-3.6574,-3.6233,-3.6036,-3.5878,-3.5566,-3.5475,-3.5228,-3.4787,-3.4448,-3.4084,-3.3491,-3.3314,-3.3224,-3.3033,-3.3118,-3.3203,-3.3346,-3.3224,-3.3208,-3.3351,-3.3193,-3.3403,-3.405,-3.3764,-3.3455,-3.3177,-3.298,-3.2765,-3.2437,-3.2342,-3.2135,-3.1955,-3.1769,-3.1697,-3.1597,-3.1539,-3.1467,-3.1351,-3.1351,-3.1234,-3.094,-3.0881,-3.0568,-3.0068,-2.9747,-2.9247,-2.8688,-2.8235,-2.7709,-2.7242,-3.899,-3.8703,-3.8451,-3.8451,-3.8198,-3.8,-3.8,-3.8052,-3.8138,-3.8189,-3.8252,-3.83,-3.8332,-3.8415,-3.8533,-3.8676,-3.8707,-3.8707,-3.8707,-3.8707,-3.8707,-3.8707,-3.8707,-3.8707,-3.8707,-3.8707,-3.8719,-3.8762,-3.8822,-3.8921,-3.9017,-3.895,-3.8921,-3.8939,-3.8822,-3.8762,-3.8762,-3.8762,-3.8762,-3.878,-3.8851,-3.8881,-3.8881,-3.8921,-3.895,-3.895,-3.8902,-3.8844,-3.8803,-3.8732,-3.8609,-3.8451,-3.8285,-3.8252,-3.8252,-3.8419,-3.8322,-3.8156,-3.8018,-3.7897,-3.7756,-3.7468,-3.7339,-3.7132,-3.6719,-3.6367,-3.6062,-3.5888,-3.5773,-3.5611,-3.5245,-3.5105,-3.4804,-3.4201,-3.3882,-3.3491,-3.2841,-3.278,-3.2703,-3.2492,-3.2578,-3.2718,-3.2812,-3.2687,-3.2672,-3.2726,-3.2547,-3.2711,-3.3208,-3.3033,-3.2819,-3.2602,-3.2437,-3.2287,-3.2038,-3.194,-3.1826,-3.167,-3.1539,-3.1409,-3.1409,-3.1292,-3.1176,-3.1117,-3.0984,-3.0747,-3.0387,-3.0251,-2.987,-2.931,-2.9044,-2.8546,-2.7973,-2.7643,-2.7242,-2.685,-4.0052,-3.9478,-3.8958,-3.8904,-3.8277,-3.7775,-3.7703,-3.7739,-3.7774,-3.7915,-3.7949,-3.7984,-3.8068,-3.8068,-3.8219,-3.8596,-3.8676,-3.8676,-3.8707,-3.8707,-3.8707,-3.8707,-3.8707,-3.8707,-3.8707,-3.8707,-3.8707,-3.8707,-3.8762,-3.8822,-3.8862,-3.8803,-3.8792,-3.8792,-3.8719,-3.8676,-3.8676,-3.8676,-3.8676,-3.8676,-3.8658,-3.8676,-3.8676,-3.8658,-3.8676,-3.8627,-3.8528,-3.8478,-3.8446,-3.8322,-3.8171,-3.8034,-3.7931,-3.7703,-3.7542,-3.7862,-3.7949,-3.7862,-3.7542,-3.7414,-3.7358,-3.6939,-3.6799,-3.6632,-3.6251,-3.5949,-3.5728,-3.5622,-3.5503,-3.5291,-3.4756,-3.4546,-3.425,-3.3539,-3.3193,-3.2841,-3.2398,-3.2247,-3.215,-3.1996,-3.1996,-3.1996,-3.1996,-3.1996,-3.2038,-3.2135,-3.2038,-3.2038,-3.2135,-3.2287,-3.2287,-3.2206,-3.2038,-3.1883,-3.1784,-3.1784,-3.167,-3.1482,-3.1351,-3.1219,-3.1219,-3.094,-3.0762,-3.0702,-3.0387,-3.0068,-2.9685,-2.956,-2.9044,-2.8417,-2.8287,-2.7908,-2.739,-2.7108,-2.6837,-2.6589,-3.9417,-3.9118,-3.8643,-3.8123,-3.786,-3.7544,-3.6965,-3.7017,-3.7132,-3.717,-3.7432,-3.7614,-3.765,-3.7774,-3.7897,-3.8,-3.8256,-3.8419,-3.8559,-3.8559,-3.859,-3.8707,-3.8707,-3.8707,-3.8707,-3.8707,-3.8707,-3.8707,-3.8738,-3.8719,-3.875,-3.8621,-3.8572,-3.8572,-3.8496,-3.8465,-3.8465,-3.8465,-3.8465,-3.8465,-3.8437,-3.8405,-3.8372,-3.8303,-3.8252,-3.8252,-3.8219,-3.8168,-3.8086,-3.7915,-3.7756,-3.7578,-3.7246,-3.7094,-3.7132,-3.7505,-3.7395,-3.7132,-3.7055,-3.6878,-3.6713,-3.6492,-3.6259,-3.6019,-3.5905,-3.5745,-3.552,-3.5383,-3.5198,-3.4899,-3.4448,-3.4201,-3.3832,-3.3071,-3.2803,-3.2547,-3.1996,-3.1996,-3.1996,-3.1841,-3.194,-3.1996,-3.1996,-3.1898,-3.1841,-3.1898,-3.1712,-3.164,-3.164,-3.1697,-3.1754,-3.1898,-3.1712,-3.1597,-3.1597,-3.1467,-3.1292,-3.094,-3.094,-3.0807,-3.0553,-3.0447,-3.019,-2.987,-2.9808,-2.9435,-2.8803,-2.8675,-2.8287,-2.7723,-2.759,-2.7255,-2.685,-2.6633,-2.644,-2.6258,-3.9991,-3.9544,-3.897,-3.8252,-3.7819,-3.7334,-3.6572,-3.6574,-3.6638,-3.6696,-3.6935,-3.7073,-3.7094,-3.7188,-3.7301,-3.7358,-3.7862,-3.8204,-3.8285,-3.83,-3.8401,-3.8501,-3.8501,-3.8564,-3.8609,-3.8609,-3.8658,-3.8707,-3.8707,-3.8658,-3.8609,-3.851,-3.8415,-3.83,-3.8252,-3.8219,-3.8219,-3.8219,-3.8219,-3.8219,-3.8171,-3.8138,-3.8052,-3.8,-3.7966,-3.7966,-3.7844,-3.7809,-3.7721,-3.745,-3.7264,-3.715,-3.6816,-3.6655,-3.6615,-3.6838,-3.6816,-3.6696,-3.6615,-3.6468,-3.6293,-3.6045,-3.5817,-3.5656,-3.5503,-3.5383,-3.5245,-3.4994,-3.4756,-3.4448,-3.3949,-3.3626,-3.3193,-3.2547,-3.2342,-3.2079,-3.1712,-3.1712,-3.1769,-3.1655,-3.1712,-3.1754,-3.1754,-3.1712,-3.167,-3.167,-3.1539,-3.1467,-3.1409,-3.1409,-3.1467,-3.1597,-3.1467,-3.1351,-3.1176,-3.0984,-3.0747,-3.0568,-3.0326,-3.019,-2.9993,-2.9623,-2.9373,-2.9107,-2.8853,-2.8481,-2.8039,-2.7908,-2.751,-2.6973,-2.6918,-2.6645,-2.6164,-2.6082,-2.5886,-2.5606,-4.084,-4.0259,-3.949,-3.8659,-3.7927,-3.7205,-3.6311,-3.6216,-3.6276,-3.6377,-3.6419,-3.6502,-3.655,-3.655,-3.6615,-3.6781,-3.7413,-3.7845,-3.7915,-3.7966,-3.8068,-3.8223,-3.8223,-3.8303,-3.8428,-3.8428,-3.8496,-3.8596,-3.8596,-3.8546,-3.8446,-3.835,-3.8219,-3.8034,-3.7949,-3.7915,-3.788,-3.788,-3.788,-3.788,-3.7827,-3.7756,-3.7667,-3.7632,-3.7632,-3.7596,-3.7432,-3.7358,-3.7283,-3.6939,-3.6759,-3.6673,-3.6444,-3.6293,-3.614,-3.614,-3.6208,-3.6335,-3.6182,-3.614,-3.5993,-3.5622,-3.5475,-3.5337,-3.5105,-3.4994,-3.4851,-3.4497,-3.4234,-3.3933,-3.3293,-3.2942,-3.2547,-3.2038,-3.1898,-3.1727,-3.1539,-3.1467,-3.1467,-3.1467,-3.1424,-3.1409,-3.1409,-3.1366,-3.1351,-3.1351,-3.1351,-3.1292,-3.1219,-3.1161,-3.1102,-3.1102,-3.1161,-3.0984,-3.0642,-3.0326,-3.0129,-3.0007,-2.9623,-2.9435,-2.931,-2.8675,-2.8352,-2.8287,-2.7908,-2.759,-2.7323,-2.7201,-2.6837,-2.6289,-2.6289,-2.5943,-2.5535,-2.5394,-2.517,-2.4791,-4.0387,-4.0186,-3.9627,-3.8221,-3.7899,-3.7339,-3.5915,-3.58,-3.5905,-3.5905,-3.6122,-3.6251,-3.6251,-3.6318,-3.6385,-3.6367,-3.6591,-3.6974,-3.7542,-3.7578,-3.7703,-3.7862,-3.7984,-3.8052,-3.8086,-3.8135,-3.8168,-3.8186,-3.8186,-3.8168,-3.8168,-3.8054,-3.7916,-3.7756,-3.7577,-3.7413,-3.7339,-3.7339,-3.7339,-3.7301,-3.7132,-3.7055,-3.7017,-3.6838,-3.6776,-3.6759,-3.6776,-3.6696,-3.6632,-3.6468,-3.636,-3.6251,-3.5993,-3.5905,-3.5861,-3.5711,-3.5684,-3.5701,-3.5817,-3.5745,-3.552,-3.5228,-3.5088,-3.4947,-3.4804,-3.4497,-3.4201,-3.405,-3.3543,-3.3108,-3.2765,-3.2508,-3.2191,-3.1898,-3.1784,-3.1727,-3.1539,-3.1409,-3.1351,-3.1351,-3.1058,-3.0881,-3.0881,-3.0821,-3.0747,-3.0747,-3.0747,-3.0747,-3.0687,-3.0568,-3.0312,-3.0054,-3.0493,-3.0433,-2.9808,-2.9747,-2.9435,-2.8803,-2.8739,-2.8481,-2.8105,-2.7973,-2.7789,-2.7469,-2.7403,-2.7053,-2.6552,-2.6564,-2.622,-2.5746,-2.5523,-2.53,-2.5016,-2.4587,-2.4371,-2.4227,-4.0188,-4.0138,-3.9614,-3.8159,-3.7905,-3.7398,-3.5859,-3.5667,-3.5667,-3.5667,-3.58,-3.5905,-3.5905,-3.5888,-3.5958,-3.6019,-3.6062,-3.6318,-3.6776,-3.6956,-3.7094,-3.7321,-3.7358,-3.7523,-3.7739,-3.7862,-3.7931,-3.7931,-3.7931,-3.7879,-3.7756,-3.7703,-3.7485,-3.7206,-3.7034,-3.6917,-3.6816,-3.6816,-3.6816,-3.6816,-3.6696,-3.6655,-3.6557,-3.6451,-3.6468,-3.6426,-3.6402,-3.636,-3.6293,-3.6105,-3.5975,-3.5861,-3.5701,-3.5566,-3.5412,-3.5367,-3.5429,-3.5492,-3.5429,-3.5274,-3.5105,-3.4739,-3.4546,-3.4399,-3.3968,-3.3764,-3.3559,-3.3245,-3.2911,-3.2586,-3.2342,-3.215,-3.1883,-3.1655,-3.167,-3.1597,-3.1409,-3.1219,-3.1102,-3.0925,-3.0687,-3.0507,-3.0447,-3.0387,-3.0312,-3.0312,-3.0312,-3.0251,-3.0068,-2.9993,-2.9685,-2.9107,-2.9373,-2.931,-2.898,-2.8739,-2.8481,-2.8105,-2.7908,-2.7723,-2.7523,-2.7323,-2.7121,-2.6998,-2.6807,-2.6452,-2.6094,-2.5873,-2.5441,-2.4933,-2.4802,-2.4371,-2.3863,-2.3644,-2.335,-2.2979,-4.007,-4.007,-3.9614,-3.8159,-3.7905,-3.7398,-3.5859,-3.5622,-3.5622,-3.5622,-3.5622,-3.5622,-3.5622,-3.5622,-3.5622,-3.5711,-3.5773,-3.5861,-3.6036,-3.6259,-3.6492,-3.6759,-3.6799,-3.6956,-3.7283,-3.7432,-3.7523,-3.7523,-3.7523,-3.7432,-3.7283,-3.7226,-3.7013,-3.6655,-3.655,-3.6468,-3.636,-3.636,-3.636,-3.636,-3.6335,-3.6276,-3.6174,-3.6131,-3.6131,-3.6131,-3.6079,-3.6036,-3.601,-3.579,-3.5639,-3.5487,-3.5383,-3.5198,-3.4994,-3.4947,-3.5041,-3.5152,-3.4947,-3.4804,-3.4594,-3.4134,-3.3933,-3.3713,-3.3177,-3.3033,-3.2873,-3.2547,-3.2398,-3.2191,-3.1996,-3.1826,-3.167,-3.1539,-3.1467,-3.1409,-3.1219,-3.097,-3.0732,-3.0447,-3.0129,-2.987,-2.9747,-2.9685,-2.9623,-2.9623,-2.9623,-2.9498,-2.9233,-2.917,-2.8853,-2.8222,-2.8287,-2.8287,-2.8222,-2.7842,-2.7656,-2.7523,-2.7255,-2.7134,-2.6998,-2.6726,-2.6521,-2.644,-2.6188,-2.5898,-2.5606,-2.5229,-2.4719,-2.4131,-2.3925,-2.3434,-2.2777,-2.2703,-2.2327,-2.1959,-4.007,-4.007,-3.9614,-3.8159,-3.7905,-3.7398,-3.5859,-3.5622,-3.5622,-3.5622,-3.5622,-3.5622,-3.5622,-3.5622,-3.5622,-3.5622,-3.5622,-3.5622,-3.5622,-3.565,-3.5871,-3.6326,-3.6485,-3.6568,-3.6655,-3.6696,-3.6696,-3.6696,-3.6696,-3.6696,-3.6655,-3.6609,-3.6485,-3.6343,-3.6233,-3.6165,-3.6019,-3.6019,-3.6019,-3.6019,-3.5905,-3.5861,-3.5817,-3.5711,-3.5667,-3.5667,-3.5667,-3.5594,-3.5537,-3.5537,-3.5337,-3.5088,-3.4994,-3.4851,-3.4707,-3.4594,-3.4399,-3.425,-3.4349,-3.425,-3.4034,-3.3455,-3.3161,-3.3002,-3.2695,-3.2453,-3.2247,-3.2247,-3.2038,-3.1841,-3.1841,-3.1655,-3.1539,-3.1482,-3.1409,-3.1219,-3.1029,-3.0613,-3.0251,-2.987,-2.931,-2.8867,-2.8675,-2.8352,-2.8157,-2.8157,-2.8157,-2.8157,-2.8105,-2.7973,-2.7776,-2.7403,-2.7723,-2.7723,-2.7403,-2.7335,-2.7134,-2.6782,-2.6782,-2.6602,-2.627,-2.627,-2.605,-2.5676,-2.5676,-2.5312,-2.4779,-2.4564,-2.407,-2.3372,-2.2927,-2.2553,-2.2101,-2.1731,-2.1578,-2.1512,-4.007,-4.007,-3.9614,-3.8159,-3.7905,-3.7398,-3.5859,-3.5622,-3.5622,-3.5622,-3.5622,-3.5622,-3.5622,-3.5622,-3.5622,-3.5622,-3.5622,-3.5622,-3.5622,-3.5622,-3.5711,-3.5975,-3.6208,-3.6335,-3.636,-3.6385,-3.6409,-3.6409,-3.6409,-3.6385,-3.636,-3.6335,-3.6208,-3.5975,-3.5949,-3.5861,-3.5756,-3.5756,-3.5756,-3.5756,-3.5711,-3.5684,-3.5667,-3.5622,-3.5622,-3.5577,-3.5549,-3.5475,-3.5337,-3.5182,-3.4899,-3.4594,-3.4448,-3.4134,-3.3713,-3.3491,-3.3335,-3.3177,-3.314,-3.3282,-3.3282,-3.2803,-3.2602,-3.2437,-3.215,-3.2053,-3.194,-3.1811,-3.1697,-3.1597,-3.1539,-3.1409,-3.1292,-3.1117,-3.0999,-3.0866,-3.0493,-3.0144,-2.9651,-2.9149,-2.861,-2.8157,-2.7908,-2.7789,-2.7723,-2.7723,-2.7723,-2.7656,-2.759,-2.7255,-2.6985,-2.6769,-2.6782,-2.6863,-2.693,-2.6863,-2.6726,-2.6589,-2.6589,-2.6465,-2.6213,-2.6062,-2.5758,-2.5382,-2.5016,-2.4587,-2.4166,-2.357,-2.3054,-2.2553,-2.2101,-2.1731,-2.1359,-2.1205,-2.1041,-2.0954,-4.007,-4.007,-3.9698,-3.8464,-3.8058,-3.7483,-3.618,-3.5774,-3.5622,-3.5622,-3.5622,-3.5622,-3.5622,-3.5622,-3.5622,-3.5622,-3.5622,-3.5622,-3.5622,-3.5622,-3.5622,-3.5728,-3.5905,-3.5993,-3.5993,-3.6062,-3.6088,-3.6088,-3.6088,-3.6062,-3.5993,-3.5993,-3.5905,-3.5728,-3.5728,-3.5684,-3.5622,-3.5622,-3.5622,-3.5577,-3.5594,-3.5594,-3.5549,-3.5503,-3.5441,-3.5441,-3.5337,-3.5198,-3.4994,-3.4804,-3.4399,-3.4,-3.3815,-3.3387,-3.2911,-3.2711,-3.2547,-3.2453,-3.2247,-3.2382,-3.2547,-3.2302,-3.215,-3.1996,-3.1784,-3.167,-3.1597,-3.1467,-3.1351,-3.1234,-3.1176,-3.1043,-3.0925,-3.0687,-3.0507,-3.0312,-2.987,-2.9449,-2.8958,-2.8457,-2.7973,-2.7577,-2.7255,-2.7201,-2.7201,-2.7201,-2.7201,-2.7134,-2.6943,-2.6577,-2.6289,-2.6151,-2.6037,-2.6037,-2.6233,-2.6314,-2.6327,-2.6327,-2.6245,-2.6107,-2.5828,-2.5535,-2.517,-2.4659,-2.4143,-2.3717,-2.3298,-2.2703,-2.2176,-2.1807,-2.1436,-2.1128,-2.0819,-2.0819,-2.0654,-2.0489,-4.007,-4.007,-3.9851,-3.9123,-3.8396,-3.7652,-3.6891,-3.6129,-3.5622,-3.5622,-3.5622,-3.5622,-3.5622,-3.5622,-3.5622,-3.5622,-3.5622,-3.5622,-3.5622,-3.5622,-3.5622,-3.5622,-3.5622,-3.5622,-3.5622,-3.5622,-3.5622,-3.5622,-3.5622,-3.5622,-3.5622,-3.5622,-3.5622,-3.5622,-3.5622,-3.5622,-3.5622,-3.5622,-3.5622,-3.5577,-3.552,-3.5492,-3.5446,-3.5198,-3.5105,-3.5088,-3.4947,-3.4691,-3.4448,-3.4349,-3.3949,-3.3435,-3.3124,-3.2695,-3.2342,-3.2247,-3.2191,-3.215,-3.1898,-3.1799,-3.1799,-3.1799,-3.1799,-3.1727,-3.1539,-3.1409,-3.1278,-3.1278,-3.1058,-3.0762,-3.0762,-3.0507,-3.0312,-3.0312,-2.987,-2.9498,-2.931,-2.8739,-2.8157,-2.7842,-2.731,-2.6905,-2.6714,-2.6589,-2.6533,-2.6533,-2.6452,-2.6396,-2.6213,-2.5828,-2.5606,-2.5606,-2.5382,-2.5312,-2.5312,-2.5688,-2.5898,-2.591,-2.5688,-2.5382,-2.5004,-2.4564,-2.3998,-2.3298,-2.3075,-2.2628,-2.2101,-2.1883,-2.1578,-2.1205,-2.0984,-2.0741,-2.0566,-2.0566,-2.0498,-2.0264,-4.007,-4.007,-3.9851,-3.9123,-3.8396,-3.7652,-3.6891,-3.6129,-3.5622,-3.5622,-3.5622,-3.5622,-3.5622,-3.5622,-3.5622,-3.5622,-3.5622,-3.5622,-3.5622,-3.5622,-3.5622,-3.5622,-3.5622,-3.5622,-3.5622,-3.5622,-3.5622,-3.5622,-3.5622,-3.5622,-3.5622,-3.5622,-3.5622,-3.5622,-3.5622,-3.5622,-3.5622,-3.5622,-3.5594,-3.552,-3.54,-3.5245,-3.5041,-3.4899,-3.4739,-3.4643,-3.4399,-3.425,-3.4,-3.3543,-3.3177,-3.278,-3.2302,-3.2094,-3.194,-3.1754,-3.1697,-3.1697,-3.1597,-3.1539,-3.1467,-3.1597,-3.1597,-3.1539,-3.1409,-3.1219,-3.1043,-3.0866,-3.0628,-3.0326,-3.0007,-2.987,-2.9623,-2.9107,-2.8917,-2.8675,-2.8287,-2.7973,-2.7577,-2.731,-2.6973,-2.6714,-2.6589,-2.6396,-2.627,-2.627,-2.6037,-2.5746,-2.5382,-2.5229,-2.5016,-2.4659,-2.4587,-2.4371,-2.4093,-2.5028,-2.5382,-2.5241,-2.5229,-2.4945,-2.4432,-2.4166,-2.3655,-2.2852,-2.2553,-2.2111,-2.1655,-2.1282,-2.1138,-2.0984,-2.0741,-2.0576,-2.042,-2.042,-2.0108,-1.9794,-4.007,-4.007,-3.9935,-3.9495,-3.8819,-3.8091,-3.7347,-3.6523,-3.5869,-3.5583,-3.5458,-3.5396,-3.5396,-3.535,-3.535,-3.5396,-3.5503,-3.5549,-3.5549,-3.5577,-3.5577,-3.5549,-3.5549,-3.5549,-3.5549,-3.5549,-3.5549,-3.5503,-3.5503,-3.5503,-3.5503,-3.5503,-3.5441,-3.5396,-3.5396,-3.535,-3.5304,-3.5304,-3.5321,-3.5245,-3.5041,-3.4851,-3.4643,-3.4349,-3.4134,-3.3968,-3.3662,-3.3507,-3.3298,-3.2911,-3.2547,-3.2191,-3.1826,-3.167,-3.167,-3.1467,-3.1409,-3.1409,-3.1234,-3.1176,-3.1117,-3.1043,-3.1117,-3.1176,-3.1117,-3.0851,-3.0553,-3.0312,-3.0007,-2.9623,-2.9233,-2.898,-2.8739,-2.8287,-2.8105,-2.7908,-2.7656,-2.739,-2.7121,-2.6918,-2.6714,-2.6589,-2.6396,-2.6201,-2.598,-2.5758,-2.5312,-2.4945,-2.4731,-2.436,-2.407,-2.3717,-2.357,-2.335,-2.315,-2.379,-2.4215,-2.4443,-2.4288,-2.4009,-2.357,-2.3213,-2.2703,-2.2111,-2.1807,-2.1425,-2.1118,-2.0819,-2.0664,-2.0664,-2.0342,-2.0108,-2.0029,-1.9872,-1.9469,-1.9073,-4.002,-4.002,-4.002,-4.002,-3.9412,-3.8685,-3.7928,-3.7104,-3.6253,-3.5547,-3.5198,-3.5041,-3.5041,-3.4947,-3.4899,-3.5058,-3.5291,-3.5446,-3.5446,-3.5503,-3.5503,-3.5446,-3.5446,-3.5446,-3.54,-3.5446,-3.54,-3.5245,-3.5245,-3.5245,-3.5245,-3.5245,-3.5198,-3.5041,-3.5041,-3.4994,-3.4835,-3.4835,-3.4851,-3.4804,-3.4546,-3.4349,-3.4134,-3.3642,-3.3314,-3.3071,-3.2857,-3.2641,-3.2547,-3.2398,-3.2094,-3.1727,-3.1539,-3.1482,-3.1467,-3.1278,-3.1292,-3.1176,-3.0821,-3.0702,-3.0642,-3.0312,-3.0447,-3.0628,-3.0702,-3.0326,-2.9931,-2.9747,-2.917,-2.8675,-2.8417,-2.8039,-2.7709,-2.7709,-2.7469,-2.7214,-2.7214,-2.6863,-2.6645,-2.6589,-2.6521,-2.6327,-2.6131,-2.591,-2.5535,-2.4862,-2.4371,-2.4082,-2.3998,-2.3287,-2.2927,-2.2852,-2.2478,-2.2327,-2.2327,-2.2327,-2.2703,-2.3446,-2.3075,-2.2777,-2.2553,-2.2025,-2.1578,-2.1128,-2.0984,-2.0819,-2.0566,-2.0342,-2.0264,-2.0186,-1.9715,-1.9478,-1.9399,-1.9082,-1.8585,-1.8095,-3.9418,-3.9418,-3.9418,-3.9418,-3.8783,-3.8068,-3.7369,-3.6588,-3.5791,-3.4982,-3.4804,-3.4756,-3.4643,-3.4594,-3.4594,-3.4643,-3.4804,-3.4899,-3.4994,-3.5024,-3.5041,-3.5041,-3.4947,-3.4804,-3.4546,-3.4851,-3.4947,-3.4851,-3.4851,-3.4851,-3.4851,-3.4851,-3.4787,-3.4804,-3.4691,-3.4594,-3.4594,-3.4594,-3.4448,-3.425,-3.4101,-3.3713,-3.3266,-3.3018,-3.2803,-3.2547,-3.2398,-3.2287,-3.2247,-3.1996,-3.1769,-3.1539,-3.1539,-3.1409,-3.1278,-3.1087,-3.0925,-3.0687,-3.0447,-3.0129,-2.9808,-2.9747,-2.9373,-2.917,-2.9747,-2.9685,-2.931,-2.8739,-2.8352,-2.8039,-2.7656,-2.7469,-2.7335,-2.6985,-2.685,-2.6726,-2.6477,-2.6339,-2.6188,-2.5886,-2.5816,-2.5746,-2.5535,-2.5016,-2.4432,-2.3728,-2.3434,-2.3065,-2.2542,-2.2402,-2.2176,-2.1807,-2.1731,-2.1655,-2.1436,-2.1436,-2.1807,-2.2402,-2.2327,-2.2111,-2.1731,-2.1655,-2.1359,-2.0984,-2.0906,-2.0664,-2.0342,-2.0098,-1.9784,-1.946,-1.9231,-1.8825,-1.8327,-1.8247,-1.7755,-1.6944,-3.9007,-3.9007,-3.9007,-3.9007,-3.8694,-3.8216,-3.7491,-3.6631,-3.5791,-3.497,-3.4379,-3.3968,-3.3866,-3.3764,-3.3748,-3.3866,-3.4184,-3.4448,-3.4497,-3.4643,-3.4643,-3.4546,-3.4448,-3.4184,-3.3764,-3.3901,-3.4068,-3.4201,-3.4201,-3.4201,-3.4201,-3.4201,-3.4134,-3.3968,-3.3917,-3.3815,-3.3697,-3.3697,-3.3594,-3.3455,-3.3351,-3.3018,-3.2695,-3.2492,-3.2287,-3.2094,-3.1925,-3.1868,-3.1868,-3.1712,-3.1597,-3.1482,-3.1409,-3.1278,-3.1087,-3.0732,-3.0433,-3.0129,-2.9685,-2.9373,-2.9044,-2.8803,-2.8481,-2.8352,-2.8917,-2.8803,-2.8481,-2.8039,-2.7709,-2.7377,-2.6973,-2.6794,-2.6671,-2.6383,-2.6314,-2.6245,-2.598,-2.584,-2.5676,-2.5382,-2.5241,-2.5016,-2.4671,-2.4009,-2.3423,-2.2927,-2.2478,-2.2176,-2.1807,-2.1655,-2.1436,-2.1205,-2.1118,-2.1041,-2.0886,-2.0886,-2.1041,-2.1415,-2.1502,-2.1436,-2.1205,-2.1118,-2.0964,-2.0741,-2.0664,-2.043,-2.0108,-1.9627,-1.9222,-1.8736,-1.8264,-1.7764,-1.735,-1.7025,-1.646,-1.5809,-3.8495,-3.8495,-3.8495,-3.8495,-3.8495,-3.8212,-3.7481,-3.6605,-3.5717,-3.4941,-3.3816,-3.3071,-3.3087,-3.2857,-3.2857,-3.3071,-3.3559,-3.3832,-3.3882,-3.4084,-3.4134,-3.3882,-3.3882,-3.361,-3.3071,-3.2949,-3.3071,-3.3539,-3.3539,-3.3539,-3.3539,-3.3539,-3.3366,-3.3087,-3.3071,-3.2964,-3.2749,-3.2749,-3.2749,-3.2695,-3.2602,-3.2437,-3.2287,-3.2038,-3.1898,-3.1727,-3.1539,-3.1482,-3.1482,-3.1467,-3.1467,-3.1424,-3.1292,-3.1043,-3.0792,-3.0312,-2.9884,-2.9435,-2.8867,-2.8481,-2.8222,-2.7776,-2.7643,-2.7709,-2.8091,-2.7973,-2.7656,-2.739,-2.7108,-2.6756,-2.6346,-2.6176,-2.598,-2.5758,-2.5758,-2.5688,-2.5394,-2.5241,-2.5016,-2.4719,-2.442,-2.4143,-2.3666,-2.2927,-2.2478,-2.2176,-2.1731,-2.1349,-2.1349,-2.1051,-2.0829,-2.0829,-2.0654,-2.0566,-2.0566,-2.0566,-2.0566,-2.0566,-2.0741,-2.0829,-2.0829,-2.0654,-2.0566,-2.0566,-2.0264,-2.0029,-1.9706,-1.9073,-1.8505,-1.7934,-1.7123,-1.6706,-1.6378,-1.5726,-1.5242,-1.4915,-3.7131,-3.7131,-3.7131,-3.7131,-3.7131,-3.6911,-3.6252,-3.5561,-3.4757,-3.3902,-3.3146,-3.2656,-3.2492,-3.2492,-3.2492,-3.2641,-3.2749,-3.2857,-3.2964,-3.3002,-3.3002,-3.2964,-3.2857,-3.2711,-3.2492,-3.2398,-3.2453,-3.2765,-3.2765,-3.2765,-3.2765,-3.2765,-3.2695,-3.2711,-3.2547,-3.2508,-3.2437,-3.2437,-3.2398,-3.2302,-3.2247,-3.2094,-3.1898,-3.1841,-3.1727,-3.1539,-3.1539,-3.1482,-3.1467,-3.1351,-3.1351,-3.1292,-3.094,-3.0628,-3.0312,-2.9837,-2.9275,-2.8651,-2.8235,-2.7776,-2.7469,-2.7403,-2.7134,-2.685,-2.6918,-2.7188,-2.7201,-2.6633,-2.6483,-2.6346,-2.5804,-2.5676,-2.5535,-2.5158,-2.5087,-2.4945,-2.4443,-2.4371,-2.4082,-2.3361,-2.2916,-2.2617,-2.2402,-2.2111,-2.1807,-2.1359,-2.1138,-2.0896,-2.0722,-2.0644,-2.0644,-2.0644,-2.0644,-2.0566,-2.0566,-2.0566,-2.0566,-2.0566,-2.042,-2.0498,-2.0644,-2.042,-2.0342,-2.0342,-1.9872,-1.9478,-1.9073,-1.8416,-1.7691,-1.6894,-1.6409,-1.5831,-1.5249,-1.4734,-1.4566,-1.4482,-3.6708,-3.6708,-3.6708,-3.6708,-3.6708,-3.66,-3.626,-3.5566,-3.4812,-3.4017,-3.3211,-3.2475,-3.2083,-3.2038,-3.2094,-3.215,-3.2287,-3.2398,-3.2437,-3.2547,-3.2547,-3.2437,-3.2398,-3.2302,-3.2038,-3.1996,-3.1981,-3.2007,-3.2176,-3.2231,-3.2231,-3.2231,-3.2247,-3.2135,-3.2094,-3.1981,-3.191,-3.191,-3.1853,-3.1811,-3.1811,-3.1769,-3.1597,-3.1597,-3.1597,-3.1482,-3.1409,-3.1292,-3.1117,-3.1058,-3.0866,-3.0673,-3.0372,-3.0007,-2.9623,-2.9071,-2.8495,-2.8052,-2.7577,-2.7188,-2.693,-2.6863,-2.6726,-2.6589,-2.6589,-2.6671,-2.6602,-2.6164,-2.5943,-2.5581,-2.5004,-2.4874,-2.4659,-2.4299,-2.4238,-2.4093,-2.357,-2.3423,-2.3139,-2.2402,-2.2101,-2.1883,-2.1807,-2.1502,-2.1205,-2.1061,-2.0819,-2.0654,-2.0566,-2.0566,-2.0566,-2.0566,-2.0566,-2.0566,-2.0566,-2.0566,-2.0566,-2.0411,-2.0186,-2.0177,-2.042,-2.0029,-1.9872,-1.9706,-1.9143,-1.8665,-1.8184,-1.7448,-1.6714,-1.6072,-1.5492,-1.4999,-1.4503,-1.4328,-1.4243,-1.4243]},{"header":{"parameterUnit":"m.s-1","parameterCategory":1,"la1":30.6,"la2":28.766,"lo1":-90.7593,"lo2":-88.6598,"dy":0.0162,"dx":0.0183,"nx":116,"ny":114,"refTime":"2023-09-19T12:00:00:Z","depth":0,"parameterNumber":3,"parameterNumberName":"V-component_of_WINDS"},"data":[0.0,0.0,0.0,0.0,0.0,0.0,0.0,0.0,0.0,0.0,0.0,0.0,0.0,0.0,0.0,0.0,0.0,0.0,0.0,0.0,0.0,0.0,0.0,0.0,0.0,0.0,0.0,0.0,0.0,0.0,0.0,0.0,0.0,0.0,0.0,0.0,0.0,0.0,0.0,0.0,0.0,0.0,0.0,0.0,0.0,0.0,0.0,0.0,0.0,0.0,0.0,0.0,0.0,0.0,0.0,0.0,0.0,0.0,0.0,0.0,0.0,0.0,0.0,0.0,0.0,0.0,0.0,0.0,0.0,0.0,0.0,0.0,0.0,0.0,0.0,0.0,0.0,0.0,0.0,0.0,0.0,0.0,0.0,0.0,0.0,0.0,0.0,0.0,0.0,0.0,0.0,0.0,0.0,0.0,0.0,0.0,0.0,0.0,0.0,0.0,0.0,0.0,0.0,0.0,0.0,0.0,0.0,0.0,0.0,0.0,0.0,0.0,0.0,0.0,0.0,0.0,0.0,0.0,0.0,0.0,0.0,0.0,0.0,0.0,0.0,0.0,0.0,0.0,0.0,0.0,0.0,0.0,0.0,0.0,0.0,0.0,0.0,0.0,0.0,0.0,0.0,0.0,0.0,0.0,0.0,0.0,0.0,0.0,0.0,0.0,0.0,0.0,0.0,0.0,0.0,0.0,0.0,0.0,0.0,0.0,0.0,0.0,0.0,0.0,0.0,0.0,0.0,0.0,0.0,0.0,0.0,0.0,0.0,0.0,0.0,0.0,0.0,0.0,0.0,0.0,0.0,0.0,0.0,0.0,0.0,0.0,0.0,0.0,0.0,0.0,0.0,0.0,0.0,0.0,0.0,0.0,0.0,0.0,0.0,0.0,0.0,0.0,0.0,0.0,0.0,0.0,0.0,0.0,0.0,0.0,0.0,0.0,0.0,0.0,0.0,0.0,0.0,0.0,0.0,0.0,0.0,0.0,0.0,0.0,0.0,0.0,0.0,0.0,0.0,0.0,0.0,0.0,0.0,0.0,0.0,0.0,0.0,0.0,0.0,0.0,0.0,0.0,0.0,0.0,0.0,0.0,0.0,0.0,0.0,0.0,0.0,0.0,0.0,0.0,0.0,0.0,0.0,0.0,0.0,0.0,0.0,0.0,0.0,0.0,0.0,0.0,0.0,0.0,0.0,0.0,0.0,0.0,0.0,0.0,0.0,0.0,0.0,0.0,0.0,0.0,0.0,0.0,0.0,0.0,0.0,0.0,0.0,0.0,0.0,0.0,0.0,0.0,0.0,0.0,0.0,0.0,0.0,0.0,0.0,0.0,0.0,0.0,0.0,0.0,0.0,0.0,0.0,0.0,0.0,0.0,0.0,0.0,0.0,0.0,0.0,0.0,0.0,0.0,0.0,0.0,0.0,0.0,0.0,0.0,0.0,0.0,0.0,0.0,0.0,0.0,0.0,0.0,0.0,0.0,0.0,0.0,0.0,0.0,0.0,0.0,0.0,0.0,0.0,0.0,0.0,0.0,0.0,0.0,0.0,0.0,0.0,0.0,0.0,0.0,0.0,0.0,0.0,0.0,0.0,0.0,0.0,0.0,0.0,0.0,0.0,0.0,0.0,0.0,0.0,0.0,0.0,0.0,0.0,0.0,0.0,0.0,0.0,0.0,0.0,0.0,0.0,0.0,0.0,0.0,0.0,0.0,0.0,0.0,0.0,0.0,0.0,0.0,0.0,0.0,0.0,0.0,0.0,0.0,0.0,0.0,0.0,0.0,0.0,0.0,0.0,0.0,0.0,0.0,0.0,0.0,0.0,0.0,0.0,0.0,0.0,0.0,0.0,0.0,0.0,0.0,0.0,0.0,0.0,0.0,0.0,0.0,0.0,0.0,0.0,0.0,0.0,0.0,0.0,0.0,0.0,0.0,0.0,0.0,0.0,0.0,0.0,0.0,0.0,0.0,0.0,0.0,0.0,0.0,0.0,0.0,0.0,0.0,0.0,0.0,0.0,0.0,0.0,0.0,0.0,0.0,0.0,0.0,0.0,0.0,0.0,0.0,0.0,0.0,0.0,0.0,0.0,0.0,0.0,0.0,0.0,0.0,0.0,0.0,0.0,0.0,0.0,0.0,0.0,0.0,0.0,0.0,0.0,0.0,0.0,0.0,0.0,0.0,0.0,0.0,0.0,0.0,0.0,0.0,0.0,0.0,0.0,0.0,0.0,0.0,0.0,0.0,0.0,0.0,0.0,0.0,0.0,0.0,0.0,0.0,0.0,0.0,0.0,0.0,0.0,0.0,0.0,0.0,0.0,0.0,0.0,0.0,0.0,0.0,0.0,0.0,0.0,0.0,0.0,0.0,0.0,0.0,0.0,0.0,0.0,0.0,0.0,0.0,0.0,0.0,0.0,0.0,0.0,0.0,0.0,0.0,0.0,0.0,0.0,0.0,0.0,0.0,0.0,0.0,0.0,0.0,0.0,0.0,0.0,0.0,0.0,0.0,0.0,0.0,0.0,0.0,0.0,0.0,0.0,0.0,0.0,0.0,0.0,0.0,0.0,0.0,0.0,0.0,0.0,0.0,0.0,0.0,0.0,0.0,0.0,0.0,0.0,0.0,0.0,0.0,0.0,0.0,0.0,0.0,0.0,0.0,0.0,0.0,0.0,0.0,0.0,0.0,0.0,0.0,0.0,0.0,0.0,0.0,0.0,0.0,0.0,0.0,0.0,0.0,0.0,0.0,0.0,0.0,0.0,0.0,0.0,0.0,0.0,0.0,0.0,0.0,0.0,0.0,0.0,0.0,0.0,0.0,0.0,0.0,0.0,0.0,0.0,0.0,0.0,0.0,0.0,0.0,0.0,0.0,0.0,0.0,0.0,0.0,0.0,0.0,0.0,0.0,0.0,0.0,0.0,0.0,0.0,0.0,0.0,0.0,0.0,0.0,0.0,0.0,0.0,0.0,0.0,0.0,0.0,0.0,0.0,0.0,0.0,0.0,0.0,0.0,0.0,0.0,0.0,0.0,0.0,0.0,0.0,0.0,0.0,0.0,0.0,0.0,0.0,0.0,0.0,0.0,0.0,0.0,0.0,0.0,0.0,0.0,0.0,0.0,0.0,0.0,0.0,0.0,0.0,0.0,0.0,0.0,0.0,0.0,0.0,0.0,0.0,0.0,0.0,0.0,0.0,0.0,0.0,0.0,0.0,0.0,0.0,0.0,0.0,0.0,0.0,0.0,0.0,0.0,0.0,0.0,0.0,0.0,0.0,0.0,0.0,0.0,0.0,0.0,0.0,0.0,0.0,0.0,0.0,0.0,0.0,0.0,0.0,0.0,0.0,0.0,0.0,0.0,0.0,0.0,0.0,0.0,0.0,0.0,0.0,0.0,0.0,0.0,0.0,0.0,0.0,0.0,0.0,0.0,0.0,0.0,0.0,0.0,0.0,0.0,0.0,0.0,0.0,0.0,0.0,0.0,0.0,0.0,0.0,0.0,0.0,0.0,0.0,0.0,0.0,0.0,0.0,0.0,0.0,0.0,0.0,0.0,0.0,0.0,0.0,0.0,0.0,0.0,0.0,0.0,0.0,0.0,0.0,0.0,0.0,0.0,0.0,0.0,0.0,0.0,0.0,0.0,0.0,0.0,0.0,0.0,0.0,0.0,0.0,0.0,0.0,0.0,0.0,0.0,0.0,0.0,0.0,0.0,0.0,0.0,0.0,0.0,0.0,0.0,0.0,0.0,0.0,0.0,0.0,0.0,0.0,0.0,0.0,0.0,0.0,0.0,0.0,0.0,0.0,0.0,0.0,0.0,0.0,0.0,0.0,0.0,0.0,0.0,0.0,0.0,0.0,0.0,0.0,0.0,0.0,0.0,0.0,0.0,0.0,0.0,0.0,0.0,0.0,0.0,0.0,0.0,0.0,0.0,0.0,0.0,0.0,0.0,0.0,0.0,0.0,0.0,0.0,0.0,0.0,0.0,0.0,0.0,0.0,0.0,0.0,0.0,0.0,0.0,0.0,0.0,0.0,0.0,0.0,0.0,0.0,0.0,0.0,0.0,0.0,0.0,0.0,0.0,0.0,0.0,0.0,0.0,0.0,0.0,0.0,0.0,0.0,0.0,0.0,0.0,0.0,0.0,0.0,0.0,0.0,0.0,0.0,0.0,0.0,0.0,0.0,0.0,0.0,0.0,0.0,0.0,0.0,0.0,0.0,0.0,0.0,0.0,0.0,0.0,0.0,0.0,0.0,0.0,0.0,0.0,0.0,0.0,0.0,0.0,0.0,0.0,0.0,0.0,0.0,0.0,0.0,0.0,0.0,0.0,0.0,0.0,0.0,0.0,0.0,0.0,0.0,0.0,0.0,0.0,0.0,0.0,0.0,0.0,0.0,0.0,0.0,0.0,0.0,0.0,0.0,0.0,0.0,0.0,0.0,0.0,0.0,0.0,0.0,0.0,0.0,0.0,0.0,0.0,0.0,0.0,0.0,0.0,0.0,0.0,0.0,0.0,0.0,0.0,0.0,0.0,0.0,0.0,0.0,0.0,0.0,0.0,0.0,0.0,0.0,0.0,0.0,0.0,0.0,0.0,0.0,0.0,0.0,0.0,0.0,0.0,0.0,0.0,0.0,0.0,0.0,0.0,0.0,0.0,0.0,0.0,0.0,0.0,0.0,0.0,0.0,0.0,0.0,0.0,0.0,0.0,0.0,0.0,0.0,0.0,0.0,0.0,0.0,0.0,0.0,0.0,0.0,0.0,0.0,0.0,0.0,0.0,0.0,0.0,0.0,0.0,0.0,0.0,0.0,0.0,0.0,0.0,0.0,0.0,0.0,0.0,0.0,0.0,0.0,0.0,0.0,0.0,0.0,0.0,0.0,0.0,0.0,0.0,0.0,0.0,0.0,0.0,0.0,0.0,0.0,0.0,0.0,0.0,0.0,0.0,0.0,0.0,0.0,0.0,0.0,0.0,0.0,0.0,0.0,0.0,0.0,0.0,0.0,0.0,0.0,0.0,0.0,0.0,0.0,0.0,0.0,0.0,0.0,0.0,0.0,0.0,0.0,0.0,0.0,0.0,0.0,0.0,0.0,0.0,0.0,0.0,0.0,0.0,0.0,0.0,0.0,0.0,0.0,0.0,0.0,0.0,0.0,0.0,0.0,0.0,0.0,0.0,0.0,0.0,0.0,0.0,0.0,0.0,0.0,0.0,0.0,0.0,0.0,0.0,0.0,0.0,0.0,0.0,0.0,0.0,0.0,0.0,0.0,0.0,0.0,0.0,0.0,0.0,0.0,0.0,0.0,0.0,0.0,0.0,0.0,0.0,0.0,0.0,0.0,0.0,0.0,0.0,0.0,0.0,0.0,0.0,0.0,0.0,0.0,0.0,0.0,0.0,0.0,0.0,0.0,0.0,0.0,0.0,0.0,0.0,0.0,0.0,0.0,0.0,0.0,0.0,0.0,0.0,0.0,0.0,0.0,0.0,0.0,0.0,0.0,0.0,0.0,0.0,0.0,0.0,0.0,0.0,0.0,0.0,0.0,0.0,0.0,0.0,0.0,0.0,0.0,0.0,0.0,0.0,0.0,0.0,0.0,0.0,0.0,0.0,0.0,0.0,0.0,0.0,0.0,0.0,0.0,0.0,0.0,0.0,0.0,0.0,0.0,0.0,0.0,0.0,0.0,0.0,0.0,0.0,0.0,0.0,0.0,0.0,0.0,0.0,0.0,0.0,0.0,0.0,0.0,0.0,0.0,0.0,0.0,0.0,0.0,0.0,0.0,0.0,0.0,0.0,0.0,0.0,0.0,0.0,0.0,0.0,0.0,0.0,0.0,0.0,0.0,0.0,0.0,0.0,0.0,0.0,0.0,0.0,0.0,0.0,0.0,0.0,0.0,0.0,0.0,0.0,0.0,0.0,0.0,0.0,0.0,0.0,0.0,0.0,0.0,0.0,0.0,0.0,0.0,0.0,0.0,0.0,0.0,0.0,0.0,0.0,0.0,0.0,0.0,0.0,0.0,0.0,0.0,0.0,0.0,0.0,0.0,0.0,0.0,0.0,0.0,0.0,0.0,0.0,0.0,0.0,0.0,0.0,0.0,0.0,-3.0281,-2.9616,0.0,0.0,0.0,0.0,0.0,0.0,0.0,0.0,0.0,0.0,0.0,0.0,0.0,0.0,0.0,0.0,0.0,0.0,0.0,0.0,0.0,0.0,0.0,0.0,0.0,0.0,0.0,0.0,0.0,0.0,0.0,0.0,0.0,0.0,0.0,0.0,0.0,0.0,-3.0337,-3.085,-3.1409,-3.1108,-3.1195,-3.1539,0.0,0.0,0.0,0.0,0.0,0.0,0.0,0.0,0.0,0.0,0.0,0.0,0.0,0.0,0.0,0.0,0.0,0.0,0.0,0.0,0.0,0.0,0.0,0.0,0.0,0.0,0.0,0.0,0.0,0.0,0.0,0.0,0.0,0.0,0.0,0.0,0.0,0.0,0.0,0.0,0.0,0.0,0.0,0.0,0.0,0.0,0.0,0.0,0.0,0.0,0.0,0.0,0.0,0.0,0.0,0.0,0.0,0.0,0.0,0.0,0.0,0.0,0.0,0.0,0.0,0.0,0.0,0.0,0.0,0.0,-3.0024,-2.9547,0.0,0.0,0.0,0.0,0.0,0.0,0.0,0.0,0.0,0.0,0.0,0.0,0.0,0.0,0.0,0.0,0.0,0.0,0.0,0.0,0.0,0.0,0.0,0.0,-2.3917,-2.4624,-2.4892,-2.523,0.0,0.0,0.0,0.0,0.0,0.0,0.0,0.0,0.0,-3.0434,-3.1025,-3.1409,-3.1482,-3.1482,-3.1482,-3.1539,-3.1712,0.0,0.0,0.0,0.0,0.0,0.0,0.0,0.0,0.0,0.0,0.0,0.0,0.0,0.0,0.0,0.0,0.0,0.0,0.0,0.0,0.0,0.0,0.0,0.0,0.0,0.0,0.0,0.0,0.0,0.0,0.0,0.0,0.0,0.0,0.0,0.0,0.0,0.0,0.0,0.0,0.0,0.0,0.0,0.0,0.0,0.0,0.0,0.0,0.0,0.0,0.0,0.0,0.0,0.0,0.0,0.0,0.0,0.0,0.0,0.0,0.0,0.0,0.0,-3.3817,-3.3458,-3.3109,-3.2231,-3.1428,-3.075,-2.9914,-2.9531,-2.9412,-2.8179,0.0,0.0,0.0,0.0,0.0,0.0,0.0,0.0,0.0,0.0,0.0,0.0,0.0,0.0,0.0,0.0,0.0,0.0,0.0,0.0,0.0,-2.3743,-2.4399,-2.4878,-2.5118,-2.5397,-2.6002,0.0,0.0,0.0,0.0,0.0,0.0,-2.9566,-3.0104,-3.0999,-3.1321,-3.1467,-3.1482,-3.1482,-3.1482,-3.1524,-3.1826,-3.1996,-3.1996,0.0,0.0,0.0,0.0,0.0,0.0,0.0,0.0,0.0,0.0,0.0,0.0,0.0,0.0,0.0,0.0,0.0,0.0,0.0,0.0,0.0,0.0,0.0,0.0,0.0,0.0,0.0,0.0,0.0,0.0,0.0,0.0,0.0,0.0,0.0,0.0,0.0,0.0,0.0,0.0,0.0,-3.5073,-3.5293,0.0,0.0,0.0,0.0,0.0,0.0,0.0,0.0,0.0,0.0,0.0,0.0,0.0,-3.4904,-3.4582,-3.4323,-3.3994,-3.3597,-3.3164,-3.3045,-3.3231,-3.2234,-3.1732,-3.1494,-3.0261,0.0,-2.8242,-2.7144,0.0,0.0,0.0,0.0,0.0,0.0,0.0,0.0,0.0,0.0,0.0,0.0,0.0,0.0,0.0,0.0,0.0,0.0,0.0,0.0,0.0,-2.419,-2.4878,-2.5328,-2.5564,-2.5825,-2.6204,-2.66,0.0,0.0,0.0,-2.8986,-2.9711,-3.025,-3.0821,-3.1307,-3.1424,-3.1482,-3.1482,-3.1482,-3.1482,-3.1524,-3.1883,-3.2038,-3.215,-3.2609,0.0,0.0,0.0,0.0,0.0,0.0,0.0,0.0,0.0,0.0,0.0,0.0,0.0,0.0,0.0,0.0,0.0,0.0,0.0,0.0,0.0,0.0,0.0,0.0,0.0,0.0,0.0,0.0,0.0,0.0,0.0,0.0,0.0,0.0,0.0,0.0,0.0,0.0,0.0,-3.5986,-3.6482,-3.657,-3.6722,-3.6829,0.0,0.0,0.0,0.0,0.0,0.0,0.0,0.0,0.0,-3.6325,-3.608,-3.5754,-3.5358,-3.5037,-3.4649,-3.4163,-3.3635,-3.3248,-3.291,-3.2006,-3.1276,-3.0685,-2.9484,-2.8341,-2.7211,-2.6721,-2.5842,-2.4632,0.0,0.0,0.0,0.0,-1.963,-1.8848,0.0,0.0,0.0,0.0,0.0,0.0,0.0,0.0,0.0,0.0,0.0,0.0,-2.3803,-2.4622,-2.5286,-2.5825,-2.6002,-2.615,-2.6336,-2.6966,0.0,0.0,0.0,-2.9682,-2.9944,-3.0793,-3.1351,-3.1482,-3.1482,-3.1482,-3.1482,-3.1482,-3.1482,-3.1539,-3.1883,-3.215,-3.2302,-3.2773,-3.3203,-3.3555,0.0,0.0,0.0,0.0,0.0,0.0,0.0,0.0,0.0,0.0,0.0,0.0,0.0,0.0,0.0,0.0,0.0,0.0,0.0,0.0,0.0,0.0,0.0,0.0,0.0,0.0,0.0,0.0,0.0,0.0,0.0,0.0,0.0,0.0,0.0,0.0,0.0,-3.703,-3.7566,-3.7604,-3.7764,-3.7862,0.0,0.0,0.0,0.0,0.0,0.0,-3.7721,-3.7546,-3.7296,-3.6979,-3.6646,-3.6288,-3.5817,-3.545,-3.503,-3.4451,-3.3933,-3.3364,-3.2743,-3.1855,-3.1005,-3.0211,-2.9073,-2.7903,-2.6813,-2.6409,-2.5456,-2.4242,-2.3262,-2.2306,-2.1289,-2.0493,-1.9748,-1.9098,0.0,0.0,0.0,0.0,0.0,0.0,0.0,0.0,0.0,0.0,0.0,-2.3122,-2.494,-2.5147,-2.5495,-2.6229,-2.615,-2.6218,-2.6457,-2.7021,-2.754,-2.8126,-2.8958,-2.9664,-3.0254,-3.0807,-3.1249,-3.1482,-3.1482,-3.1482,-3.1482,-3.1482,-3.1482,-3.1524,-3.1966,-3.2231,-3.2453,-3.3027,-3.3607,-3.4101,-3.4349,0.0,0.0,0.0,0.0,0.0,0.0,0.0,0.0,0.0,0.0,0.0,0.0,0.0,0.0,0.0,0.0,0.0,0.0,0.0,0.0,0.0,0.0,0.0,0.0,0.0,0.0,0.0,0.0,0.0,0.0,0.0,0.0,0.0,0.0,0.0,0.0,0.0,0.0,-3.7566,-3.7714,0.0,0.0,0.0,0.0,-3.7808,-3.7745,-3.7659,-3.7528,-3.7206,-3.6906,-3.6612,-3.6185,-3.5755,-3.5357,-3.4942,-3.4414,-3.3865,-3.3313,-3.3011,-3.2854,-3.1903,-3.1357,-3.1056,-2.9803,-2.8566,-2.7367,-2.5794,-2.436,-2.3045,-2.2842,-2.2038,-2.103,-2.1095,-2.0469,-1.9543,0.0,0.0,0.0,0.0,0.0,0.0,0.0,0.0,-2.0526,-2.2311,-2.2617,-2.3326,-2.5121,-2.5605,-2.6002,-2.6592,-2.6553,-2.6726,-2.7129,-2.754,-2.7996,-2.8502,-2.9366,-3.011,-3.0628,-3.0821,-3.1014,-3.1249,-3.1351,-3.1351,-3.1351,-3.1467,-3.1482,-3.1539,-3.1925,-3.2302,-3.2695,-3.3366,-3.3949,-3.4399,-3.4851,-3.5088,0.0,0.0,0.0,0.0,0.0,0.0,0.0,0.0,0.0,0.0,0.0,0.0,0.0,0.0,0.0,0.0,0.0,0.0,0.0,0.0,0.0,0.0,0.0,0.0,0.0,0.0,0.0,0.0,0.0,0.0,0.0,0.0,0.0,0.0,0.0,0.0,0.0,-3.9143,-3.9261,0.0,-3.9337,-3.9374,-3.9337,-3.9165,-3.9045,-3.894,-3.8788,-3.8503,-3.8182,-3.7842,-3.7376,-3.6877,-3.6319,-3.5937,-3.5373,-3.4705,-3.4147,-3.3551,-3.2783,-3.1857,-3.1023,-3.024,-2.8876,-2.7591,-2.6271,-2.4888,-2.3828,-2.3071,-2.2241,-2.1432,-2.0639,-2.042,-1.9923,-1.9371,0.0,0.0,0.0,0.0,0.0,0.0,0.0,0.0,-2.0695,-2.2365,-2.2791,-2.3555,-2.5287,-2.5825,-2.6218,-2.6659,-2.6606,-2.6773,-2.7281,-2.7641,-2.8043,-2.8479,-2.9402,-3.0097,-3.0568,-3.0628,-3.0702,-3.0955,-3.1058,-3.1161,-3.1219,-3.1351,-3.1467,-3.1539,-3.1868,-3.2302,-3.2803,-3.3575,-3.4201,-3.4691,-3.5105,-3.5337,-3.5412,0.0,0.0,0.0,0.0,0.0,0.0,0.0,0.0,0.0,0.0,0.0,0.0,0.0,0.0,0.0,0.0,0.0,0.0,0.0,0.0,0.0,0.0,0.0,0.0,0.0,0.0,0.0,0.0,0.0,0.0,0.0,0.0,0.0,0.0,-3.9231,-3.9717,-3.987,-4.0019,-4.0099,-4.0098,-4.0118,-4.0057,-3.9889,-3.9739,-3.9599,-3.9452,-3.9091,-3.8737,-3.8314,-3.7826,-3.7266,-3.6719,-3.6284,-3.5677,-3.4927,-3.4317,-3.3495,-3.2391,-3.1362,-3.0346,-2.9178,-2.7828,-2.6569,-2.5334,-2.3952,-2.2999,-2.2242,-2.1375,-2.0615,-1.9923,-1.9627,-1.9311,-1.8984,0.0,0.0,0.0,0.0,0.0,0.0,0.0,-2.0016,-2.0785,-2.2365,-2.2911,-2.3742,-2.548,-2.5784,-2.6056,-2.6457,-2.6272,-2.6339,-2.6961,-2.7281,-2.7718,-2.8201,-2.9094,-2.9713,-3.0068,-3.019,-3.0387,-3.0568,-3.0702,-3.0807,-3.097,-3.1219,-3.1351,-3.1524,-3.1966,-3.2342,-3.2656,-3.3523,-3.4234,-3.4899,-3.5198,-3.5412,-3.5577,0.0,0.0,0.0,0.0,0.0,0.0,0.0,0.0,0.0,0.0,0.0,0.0,0.0,0.0,0.0,0.0,0.0,0.0,0.0,0.0,0.0,0.0,0.0,0.0,0.0,0.0,0.0,0.0,0.0,0.0,0.0,0.0,0.0,-3.9156,-3.9317,-3.9452,-3.967,-3.9807,-3.9892,-3.9889,-3.9954,-3.9933,-3.9804,-3.9665,-3.9502,-3.9298,-3.8836,-3.8378,-3.7911,-3.7358,-3.6816,-3.6301,-3.5827,-3.5178,-3.4382,-3.37,-3.281,-3.1622,-3.048,-2.9303,-2.8063,-2.6896,-2.5685,-2.4564,-2.3169,-2.18,-2.042,-2.0226,-1.9696,-1.8922,-1.8772,-1.8531,-1.8353,0.0,0.0,0.0,0.0,0.0,0.0,0.0,-1.9978,-2.0746,-2.2258,-2.2804,-2.3689,-2.5149,-2.5674,-2.5893,-2.5934,-2.5839,-2.6176,-2.6931,-2.6987,-2.7475,-2.8579,-2.8848,-2.9135,-2.9338,-2.9401,-2.9512,-2.9685,-2.9931,-3.0251,-3.0493,-3.0911,-3.1161,-3.1351,-3.1769,-3.2094,-3.2492,-3.2911,-3.3507,-3.425,-3.4787,-3.5088,-3.5228,0.0,0.0,0.0,0.0,0.0,0.0,0.0,0.0,0.0,0.0,0.0,0.0,0.0,0.0,0.0,0.0,0.0,0.0,0.0,0.0,0.0,0.0,0.0,0.0,0.0,0.0,0.0,0.0,0.0,0.0,0.0,-3.864,-3.8792,-3.9007,-3.9129,-3.9245,-3.9452,-3.9575,-3.9623,-3.9689,-3.9599,-3.9526,-3.9452,-3.9219,-3.9027,-3.8876,-3.8473,-3.7998,-3.7488,-3.6999,-3.6433,-3.5783,-3.535,-3.4658,-3.3834,-3.3161,-3.2155,-3.0955,-2.9648,-2.8309,-2.6979,-2.573,-2.4397,-2.3073,-2.2059,-2.074,-1.9335,-1.9292,-1.8825,-1.8103,-1.8201,-1.8282,-1.8362,0.0,0.0,0.0,0.0,0.0,0.0,0.0,-1.9823,-2.0553,-2.1718,-2.2525,-2.3366,-2.4475,-2.5079,-2.5384,-2.5203,-2.5147,-2.5537,-2.6492,-2.6934,-2.7447,-2.8195,-2.8352,-2.843,-2.8573,-2.8638,-2.8688,-2.8853,-2.9233,-2.9637,-3.0021,-3.0493,-3.0851,-3.1219,-3.1524,-3.1868,-3.2247,-3.2547,-3.2911,-3.3403,-3.385,-3.4366,-3.4851,-3.4899,-3.4899,-3.4899,-3.4947,-3.4947,-3.4899,-3.5088,0.0,0.0,0.0,0.0,0.0,0.0,0.0,0.0,0.0,0.0,0.0,0.0,0.0,0.0,0.0,0.0,0.0,0.0,0.0,0.0,0.0,0.0,0.0,0.0,-3.8578,-3.8719,-3.8851,-3.8921,-3.9045,-3.921,-3.9264,-3.9324,-3.9376,-3.9324,-3.9245,-3.9219,-3.9017,-3.8833,-3.8628,-3.8165,-3.7632,-3.6985,-3.6446,-3.5786,-3.5115,-3.4545,-3.3885,-3.3039,-3.2281,-3.1232,-2.9922,-2.8643,-2.7246,-2.5763,-2.4624,-2.3316,-2.1962,-2.1068,-1.9728,-1.8381,0.0,0.0,0.0,0.0,-1.7951,-1.8112,0.0,0.0,0.0,0.0,0.0,0.0,0.0,-1.9552,-2.018,-2.0949,-2.1982,-2.295,-2.3561,-2.4259,-2.465,-2.4465,-2.4292,-2.4721,-2.588,-2.6817,-2.7404,-2.7456,-2.759,-2.7723,-2.7723,-2.7842,-2.7973,-2.8157,-2.8546,-2.8944,-2.9477,-3.0021,-3.0433,-3.0911,-3.1248,-3.1552,-3.1925,-3.212,-3.2327,-3.2547,-3.2641,-3.3387,-3.4399,-3.4497,-3.4399,-3.425,-3.4349,-3.4349,-3.43,-3.4546,0.0,0.0,0.0,0.0,0.0,0.0,0.0,0.0,0.0,0.0,0.0,0.0,0.0,0.0,0.0,0.0,0.0,0.0,0.0,0.0,0.0,0.0,0.0,0.0,-3.8619,-3.8805,-3.8805,-3.8921,-3.9013,-3.9098,-3.9127,-3.9192,-3.9305,-3.9249,-3.9175,-3.9147,-3.8929,-3.8664,-3.8396,-3.7843,0.0,0.0,0.0,-3.5048,-3.4268,-3.3649,-3.2917,-3.2155,-3.1246,-3.0165,-2.8798,-2.7564,-2.6133,-2.4517,-2.3559,-2.2381,-2.1011,-2.0138,-1.8939,-1.7585,-1.7925,-1.761,-1.7139,-1.7456,-1.77,-1.77,0.0,0.0,0.0,0.0,0.0,0.0,0.0,-1.8975,-1.9645,-2.0494,-2.1524,-2.2431,-2.3046,-2.3791,-2.4203,-2.4054,-2.3995,-2.4416,-2.5344,-2.6078,-2.667,-2.7066,-2.7146,-2.7146,-2.7146,-2.7214,-2.7268,-2.7456,-2.7842,-2.8249,-2.878,-2.9415,-2.9898,-3.0312,-3.0613,-3.0911,-3.1204,-3.1248,-3.161,-3.215,-3.2135,-3.2672,-3.3439,-3.3491,-3.3626,-3.3797,-3.3848,-3.3899,-3.4,-3.43,-3.4546,-3.4851,-3.5198,-3.5429,0.0,0.0,0.0,0.0,0.0,0.0,0.0,0.0,0.0,0.0,0.0,0.0,0.0,0.0,0.0,0.0,0.0,0.0,0.0,-3.8382,-3.9026,-3.9483,-3.9337,-3.9865,-4.0145,-3.9841,-3.9798,-4.0056,-4.0719,-4.0154,-3.9675,-3.953,-3.8682,-3.8052,-3.7792,-3.7264,-3.6603,-3.5856,-3.5278,-3.4528,-3.3598,-3.3039,-3.221,-3.1159,-3.0317,0.0,-2.788,-2.6476,-2.5087,-2.3661,-2.2756,-2.1482,-2.0089,-1.9618,-1.8318,-1.6632,-1.6304,-1.6476,-1.6812,-1.7139,-1.7456,-1.7781,0.0,0.0,0.0,0.0,0.0,0.0,0.0,-1.8548,-1.923,-1.9777,-2.102,-2.1984,-2.2309,-2.3161,-2.3675,-2.3509,-2.379,-2.4124,-2.4608,-2.542,-2.6016,-2.6295,-2.6587,-2.6739,-2.6739,-2.6739,-2.6807,-2.6998,-2.7242,-2.7643,-2.8183,-2.8688,-2.9198,-2.9685,-3.0007,-3.0312,-3.0673,-3.0732,-3.1102,-3.1509,-3.164,-3.1966,-3.2523,-3.2819,-3.298,-3.3049,-3.3156,-3.3245,-3.3403,-3.3694,-3.4101,-3.4546,-3.4994,-3.5291,-3.5537,0.0,0.0,0.0,0.0,0.0,0.0,0.0,0.0,0.0,0.0,0.0,0.0,0.0,0.0,-3.7129,0.0,0.0,-3.8683,-3.8769,-3.949,-3.9964,-3.993,-4.0167,-4.0347,-4.0261,-4.0258,-4.0422,-4.0823,-4.0409,-4.0051,-3.9964,-3.9302,-3.8738,-3.8376,-3.7735,-3.7028,-3.6245,-3.5447,-3.4462,-3.3302,-3.2448,-3.1383,-3.0061,-2.915,-2.7998,-2.668,-2.5368,-2.4097,-2.2723,-2.1766,-2.0557,-1.9222,-1.8006,-1.687,-1.5809,-1.5228,-1.5575,-1.6409,-1.6574,-1.6976,-1.7456,0.0,0.0,0.0,0.0,0.0,0.0,0.0,-1.7995,-1.8643,-1.8963,-2.0407,-2.1411,-2.1579,-2.2559,-2.3157,-2.3125,-2.3552,-2.3879,-2.3991,-2.4808,-2.5372,-2.5586,-2.605,-2.6352,-2.6533,-2.6533,-2.6521,-2.6658,-2.685,-2.7175,-2.7643,-2.7973,-2.8481,-2.9044,-2.9233,-2.9623,-3.0007,-3.0266,-3.0628,-3.0911,-3.1102,-3.1409,-3.1784,-3.2176,-3.2327,-3.2342,-3.2437,-3.2547,-3.2749,-3.3065,-3.3591,-3.4201,-3.4643,-3.5041,-3.5383,-3.5549,-3.5594,0.0,0.0,0.0,0.0,0.0,0.0,0.0,0.0,0.0,-3.5861,-3.6122,-3.6523,-3.698,-3.7432,-3.8376,-3.9118,-3.9283,-3.9967,-4.0416,-4.0341,-4.0352,-4.0459,-4.061,-4.0671,-4.0727,-4.0835,-4.0598,-4.0416,-4.0341,-3.9872,-3.9388,-3.8953,-3.8197,-3.7398,-3.6544,-3.5584,-3.4395,-3.315,-3.2027,-3.0728,-2.9242,-2.8239,-2.7036,-2.5707,-2.4542,-2.3284,-2.1937,-2.0791,-1.9611,-1.8473,-1.6581,-1.5668,-1.5416,-1.4746,-1.5092,-1.5935,-1.5967,-1.6319,-1.6886,0.0,0.0,0.0,0.0,0.0,0.0,0.0,0.0,-1.7843,-1.8333,-1.9425,-2.0477,-2.1275,-2.1988,-2.2611,-2.3027,-2.3128,-2.3452,-2.3966,-2.4104,-2.4607,-2.5548,-2.5649,-2.5937,-2.6521,-2.6533,-2.6533,-2.6521,-2.6658,-2.685,-2.7108,-2.7456,-2.7723,-2.7973,-2.8287,-2.8675,-2.898,-2.9526,-3.0083,-3.0628,-3.0821,-3.1058,-3.1351,-3.1292,-3.1582,-3.2053,-3.2038,-3.2135,-3.2302,-3.2602,-3.2996,-3.3503,-3.4151,-3.4546,-3.4899,-3.5383,0.0,-3.552,-3.5577,-3.5622,-3.5622,-3.5622,-3.5622,-3.5622,0.0,0.0,-3.5861,-3.6122,-3.6997,-3.7784,-3.821,-3.9064,-3.9697,-3.9753,-4.0396,-4.0811,-4.0415,-4.0989,-4.1367,-4.1173,-4.1238,-4.151,-4.1958,-4.1346,-4.0775,-4.044,-3.9458,-3.8729,-3.8254,-3.7465,-3.6699,-3.5997,-3.4945,-3.3938,-3.2966,-3.1861,-3.0701,-2.9393,-2.8336,-2.7029,-2.5474,-2.4192,-2.2925,-2.165,-1.976,-1.8769,-1.8333,-1.6855,-1.6082,-1.5832,-1.5212,-1.513,-1.5422,-1.5445,-1.565,-1.5982,0.0,0.0,0.0,0.0,0.0,0.0,0.0,0.0,0.0,-1.8007,-1.9061,-1.9975,-2.0594,-2.1624,-2.2535,-2.3027,-2.3078,-2.3238,-2.3477,-2.3803,-2.4205,-2.4644,-2.5259,-2.5711,-2.595,-2.6289,-2.6533,-2.6533,-2.6589,-2.6658,-2.685,-2.6985,-2.7188,-2.7523,-2.7723,-2.8105,-2.8546,-2.9135,-2.9761,-3.0312,-3.0568,-3.0821,-3.0999,-3.0955,-3.1117,-3.1452,-3.1582,-3.1754,0.0,-3.2302,-3.2672,-3.314,-3.3729,-3.4201,-3.4546,-3.4994,-3.5198,0.0,-3.5475,-3.5594,0.0,0.0,-3.5622,-3.5622,-3.5622,-3.6022,-3.6435,-3.6597,-3.7357,-3.8138,-3.8425,-3.9223,-3.9876,0.0,-4.0508,-4.0928,-4.0784,-4.1035,-4.1152,-4.1041,-4.1066,-4.1244,-4.1587,-4.1236,-4.0911,-4.0659,-4.0026,-3.9364,-3.8791,-3.7982,-3.7206,-3.6384,-3.5248,-3.4002,-3.2731,-3.1418,-2.991,-2.8359,-2.7224,-2.603,-2.4568,-2.3252,-2.1593,-1.9604,-1.844,-1.7589,-1.7144,-1.6264,-1.5747,-1.5589,-1.5143,-1.5053,-1.5109,-1.529,-1.554,-1.5886,0.0,0.0,0.0,0.0,0.0,0.0,0.0,0.0,0.0,0.0,-1.8559,-1.9514,-2.0219,-2.1487,-2.2472,-2.2874,-2.2977,-2.3078,-2.3078,-2.3527,-2.3841,-2.3991,-2.4732,-2.5297,-2.5586,-2.6013,-2.6302,-2.6533,-2.6533,-2.6521,-2.6658,-2.6658,-2.6794,-2.7066,-2.7268,-2.7656,-2.8222,-2.8931,-2.956,-3.0068,-3.0326,-3.0522,-3.0568,-3.0568,-3.0687,-3.0911,-3.1219,-3.1467,-3.1784,-3.1996,-3.2302,-3.2711,-3.3261,-3.3678,-3.4018,-3.4546,-3.4851,-3.5088,-3.5383,0.0,0.0,-3.5577,-3.5774,-3.5943,-3.5943,-3.6535,-3.7123,-3.7165,-3.787,-3.8538,-3.8734,-3.9508,-4.0135,-4.021,-4.0585,-4.0901,-4.0806,-4.0776,-4.0728,-4.068,-4.068,-4.071,-4.0836,-4.0836,-4.0789,-4.058,-4.017,-3.961,-3.892,-3.8108,-3.7294,-3.6352,-3.519,-3.3893,-3.2415,-3.0908,-2.9372,-2.7639,-2.6539,-2.5294,-2.3914,-2.2139,-2.0179,-1.8298,-1.7517,-1.6899,-1.6451,-1.6,-1.5652,-1.5575,-1.5295,-1.5204,-1.5204,-1.5386,-1.5555,-1.5761,0.0,0.0,0.0,0.0,0.0,0.0,0.0,0.0,0.0,0.0,0.0,0.0,0.0,-2.1544,-2.2322,-2.2334,-2.2824,-2.3078,-2.3078,-2.309,-2.3414,-2.3966,-2.4029,-2.4531,-2.5573,-2.5611,-2.59,-2.6533,-2.6533,-2.6533,-2.6533,-2.6533,-2.6533,-2.6533,-2.6875,-2.7335,-2.7842,-2.8766,-2.9401,-2.9822,-3.0036,-3.0097,-3.0129,-2.987,-3.019,-3.0687,-3.1102,-3.1409,-3.1539,-3.1727,-3.1898,-3.215,-3.2641,-3.2949,0.0,-3.3933,-3.4497,-3.4947,-3.5245,0.0,-3.5537,-3.5577,-3.618,-3.6738,-3.6738,-3.733,-3.7902,-3.7929,-3.8605,-3.9214,-3.9448,-4.013,-4.0662,-4.0662,-4.068,-4.06,-4.0355,-4.0305,-4.0288,-4.0121,-4.0121,-4.0087,0.0,-4.0288,-4.0337,-3.9952,-3.9487,-3.8936,-3.8157,-3.7385,-3.6461,-3.5464,-3.4394,-3.3213,-3.1842,-3.0644,-2.9254,-2.7752,-2.6707,-2.5378,-2.3664,-2.0828,-1.9131,-1.8311,-1.7404,-1.7044,-1.6951,-1.6386,-1.6197,-1.6197,-1.59,-1.5805,-1.5805,-1.5798,-1.5444,-1.5053,0.0,0.0,0.0,0.0,0.0,0.0,0.0,0.0,0.0,0.0,0.0,0.0,0.0,0.0,0.0,0.0,-2.2485,-2.2749,-2.3053,-2.3078,-2.3165,-2.3414,-2.3791,-2.4167,-2.4531,-2.5234,-2.5686,-2.5887,-2.6264,-2.6533,-2.6533,-2.6533,-2.6533,-2.6533,-2.6875,-2.7214,-2.7656,-2.856,-2.9071,-2.9338,-2.9512,-2.956,-2.956,-2.9498,-2.987,-3.0447,0.0,-3.1176,-3.1539,-3.1727,0.0,0.0,-3.2302,-3.2492,-3.2749,-3.3575,-3.4201,-3.4691,-3.5088,0.0,-3.5655,-3.6265,-3.6586,-3.6907,-3.7415,-3.8091,-3.8616,-3.8647,-3.9289,-3.9815,-3.9897,-4.0101,-4.0288,-4.0288,-4.0288,-4.0288,-4.0188,-4.0188,-4.0138,-4.0138,-4.007,0.0,0.0,0.0,-3.9764,-3.9345,-3.8898,-3.8197,-3.7326,-3.6646,-3.5706,-3.4595,-3.3422,-3.2205,-3.0807,-2.9409,-2.8096,-2.6753,-2.4808,-2.3347,-2.2031,-1.9968,-1.8519,-1.7606,-1.6777,-1.6407,-1.6211,-1.6021,-1.5927,-1.5927,-1.5832,-1.5832,-1.5832,-1.5832,-1.5705,-1.5538,0.0,0.0,0.0,0.0,0.0,0.0,0.0,0.0,0.0,0.0,0.0,0.0,0.0,0.0,0.0,0.0,0.0,-2.246,-2.2811,-2.2965,-2.3078,-2.3078,-2.3489,-2.3791,-2.3991,-2.4669,-2.5209,-2.5598,-2.5963,-2.6264,-2.6533,-2.6533,-2.6533,-2.6533,-2.6875,-2.7214,-2.7656,-2.843,-2.8817,-2.9022,-2.9008,-2.8994,-2.8917,-2.8994,-2.9435,0.0,-3.0568,-3.1058,-3.1467,-3.1597,0.0,-3.1727,-3.1996,-3.2247,-3.2602,-3.333,-3.3949,-3.4448,-3.4899,-3.5429,-3.5996,-3.6654,-3.7178,-3.7702,-3.8193,-3.8853,-3.9377,-3.9377,-3.9749,-4.007,-4.007,-4.007,-4.007,-4.007,-4.007,-4.007,-4.007,-4.007,-4.007,-4.007,-4.0087,-3.9935,0.0,0.0,0.0,-3.886,-3.8327,-3.7562,-3.6585,-3.5913,-3.4912,-3.3506,-3.2492,-3.1167,-2.9487,-2.8231,-2.6801,-2.5179,-2.3444,-2.1961,-2.0898,-1.9255,-1.8064,-1.7153,-1.64,-1.5927,-1.5832,-1.5832,-1.5832,-1.5832,-1.5832,-1.5832,-1.5832,-1.5832,-1.5832,-1.5832,0.0,0.0,0.0,0.0,0.0,0.0,0.0,0.0,0.0,0.0,0.0,0.0,0.0,0.0,0.0,0.0,0.0,0.0,-2.2272,-2.2786,-2.3027,-2.3027,-2.3065,-2.3389,-2.3941,-2.3979,-2.4494,-2.5511,-2.5548,-2.585,-2.6483,-2.6483,-2.6496,-2.6533,-2.6875,-2.7268,-2.7776,-2.8327,-2.8638,-2.8739,-2.8638,-2.8444,-2.83,-2.8509,-2.9008,-2.9685,-3.0326,-3.0866,0.0,0.0,0.0,0.0,0.0,-3.2135,-3.2656,-3.3171,-3.3642,-3.4201,-3.4789,-3.5654,-3.6491,-3.6827,-3.7956,-3.9005,-3.9039,-3.958,-4.007,-4.007,-4.007,-4.0087,0.0,-4.0087,-4.007,-4.007,-4.0087,-4.007,-4.007,-4.007,-4.007,0.0,0.0,0.0,0.0,0.0,0.0,-3.8625,-3.786,-3.6906,-3.5913,-3.5204,-3.4109,-3.2434,-3.1549,-3.0177,-2.8096,-2.7128,-2.5568,-2.3416,-2.2511,-2.1436,-2.0201,-1.8727,-1.7714,-1.6979,-1.6116,-1.5832,-1.5832,-1.5832,-1.5832,-1.5832,-1.5832,-1.5832,-1.5832,-1.5832,-1.5832,-1.5832,0.0,0.0,0.0,0.0,0.0,0.0,0.0,0.0,0.0,0.0,0.0,0.0,0.0,0.0,0.0,0.0,0.0,0.0,-2.1669,-2.2221,-2.2523,-2.2523,-2.2912,-2.314,-2.3351,-2.3778,-2.413,-2.4406,-2.482,-2.5297,-2.5812,-2.5812,-2.605,-2.6533,-2.6875,-2.7146,-2.7469,-2.8,-2.8197,-2.8039,-2.8052,-2.7973,-2.7908,-2.8105,-2.8675,-2.9435,-3.0007,0.0,0.0,0.0,0.0,0.0,0.0,-3.2038,-3.2398,-3.3033,-3.3575,-3.4214,-3.5415,-3.6006,-3.6567,-3.7965,-3.8587,-3.8991,-3.9681,-3.9902,-3.9935,-3.9935,-3.9884,-3.9781,-3.9781,-3.9884,-3.9935,-3.9935,-4.0037,0.0,-4.007,-4.0037,0.0,-3.9935,0.0,-4.0213,-3.9957,-3.9854,0.0,-3.8856,-3.7483,-3.6305,-3.5415,-3.4543,-3.3422,-3.2015,-3.0745,-2.9279,-2.7706,-2.5568,-2.3993,-2.2969,-2.1802,-2.0808,-1.9994,-1.8434,-1.752,-1.6979,-1.6116,-1.5832,-1.5832,-1.5832,-1.5832,-1.5832,-1.5832,-1.5832,-1.5832,-1.5832,-1.5832,-1.5832,0.0,0.0,0.0,0.0,0.0,0.0,0.0,0.0,0.0,0.0,0.0,0.0,0.0,0.0,0.0,0.0,0.0,0.0,0.0,-2.1544,-2.2001,-2.2297,-2.2611,-2.2887,-2.3065,-2.3452,-2.374,-2.4004,-2.4305,-2.4732,-2.5259,-2.5259,-2.5435,-2.5749,-2.607,-2.6409,-2.684,-2.7223,-2.742,0.0,0.0,-2.7443,-2.7469,-2.7723,-2.8287,-2.9044,0.0,0.0,0.0,0.0,0.0,-3.1539,-3.1841,-3.2094,-3.2398,-3.3049,0.0,-3.46,-3.558,-3.6356,-3.7186,-3.8321,-3.884,-3.9243,-3.9783,-3.9833,-3.9694,-3.9609,-3.9504,0.0,-3.9398,-3.9504,-3.9661,0.0,0.0,0.0,-4.007,-3.9986,-3.9967,0.0,-4.0247,0.0,-4.0197,-3.9863,-3.933,-3.8642,-3.7544,-3.6411,-3.5198,-3.4211,-3.2925,-3.122,-2.9833,-2.8176,-2.6235,-2.4402,-2.3135,-2.2344,-2.1257,-2.0266,-1.9155,-1.8056,-1.7239,-1.6602,-1.6021,-1.5832,-1.5832,-1.5832,-1.5832,-1.5832,-1.5832,-1.5832,-1.5832,-1.5832,-1.5832,-1.5832,0.0,0.0,0.0,0.0,0.0,0.0,0.0,0.0,0.0,0.0,0.0,0.0,0.0,0.0,0.0,0.0,0.0,0.0,0.0,0.0,0.0,-2.2071,-2.2234,-2.2535,-2.2952,-2.3027,-2.3376,-2.3891,-2.3891,-2.4167,-2.4707,-2.4707,-2.4745,-2.482,-2.5,-2.546,-2.6063,-2.622,-2.6608,-2.7085,-2.6938,-2.6921,-2.7011,0.0,0.0,0.0,0.0,0.0,0.0,0.0,-3.1482,-3.1539,-3.1883,-3.2135,-3.2508,-3.3081,-3.3985,-3.4917,-3.5524,-3.6678,-3.7804,-3.8148,-3.8783,-3.9335,-3.9475,-3.9387,-3.9246,-3.9135,0.0,-3.886,-3.886,-3.9007,-3.9222,-3.9556,0.0,-3.9884,-4.0037,-3.9884,-3.9998,-4.0521,-4.012,-3.9933,-4.0365,-3.9614,-3.8839,-3.8339,-3.7835,-3.6887,-3.5179,-3.4064,-3.2447,-3.0126,-2.8761,-2.694,-2.4413,-2.3484,-2.2511,-2.1516,-2.0808,-1.9629,-1.8241,-1.7512,-1.6864,-1.613,-1.5832,-1.5737,-1.5635,-1.5635,-1.5635,-1.5635,-1.5635,-1.5737,-1.573,-1.573,-1.5737,-1.5832,0.0,0.0,0.0,0.0,0.0,0.0,0.0,0.0,0.0,0.0,-1.379,-1.4426,0.0,0.0,0.0,0.0,0.0,0.0,0.0,0.0,0.0,0.0,-2.1832,-2.2347,-2.2447,-2.284,-2.3128,-2.3288,-2.3288,-2.3577,-2.4142,-2.4142,-2.4393,-2.482,-2.5,-2.5179,-2.5268,-2.5448,-2.5768,-2.6161,-2.6095,-2.6375,-2.6794,0.0,0.0,0.0,0.0,0.0,0.0,0.0,-3.1409,-3.1539,-3.1784,-3.2053,-3.2342,-3.2911,-3.3393,-3.409,-3.5651,-3.6296,-3.6727,-3.7719,-3.8071,-3.8239,-3.8569,-3.8292,0.0,0.0,-3.8399,-3.81,-3.823,-3.8511,-3.8805,-3.9077,0.0,0.0,0.0,0.0,-3.9341,0.0,0.0,0.0,-4.0213,-4.007,0.0,0.0,-3.8032,-3.6859,-3.5451,-3.4019,-3.185,-2.8762,-2.7329,-2.5723,-2.3927,-2.296,-2.198,-2.0808,-1.9911,-1.8896,-1.7785,-1.7052,-1.6393,-1.5832,-1.5635,-1.5261,-1.4879,-1.4879,-1.4879,-1.4879,-1.4879,-1.5166,-1.554,-1.554,-1.5642,-1.5832,0.0,0.0,0.0,0.0,0.0,0.0,0.0,0.0,-1.2735,-1.2881,-1.338,-1.3887,-1.4383,-1.5308,0.0,0.0,0.0,0.0,0.0,0.0,0.0,0.0,0.0,0.0,0.0,-2.2422,-2.2711,-2.2711,0.0,-2.3276,-2.3552,-2.3552,-2.369,-2.3941,-2.414,-2.4354,-2.4621,-2.4746,-2.5128,-2.56,-2.6037,-2.6253,0.0,0.0,0.0,0.0,0.0,0.0,0.0,0.0,-3.1278,-3.1409,-3.1727,-3.1955,-3.2191,-3.2641,-3.3246,-3.3903,-3.493,-3.5486,-3.5963,-3.6627,-3.6815,-3.6966,-3.7572,0.0,0.0,0.0,-3.7535,-3.7298,-3.7445,0.0,0.0,0.0,0.0,0.0,0.0,0.0,0.0,0.0,0.0,0.0,0.0,-3.968,-3.9364,-3.8649,-3.7539,-3.6361,-3.5162,-3.2738,-3.026,-2.8043,-2.6573,-2.5163,-2.3889,-2.2777,-2.1671,-2.0566,-1.9261,-1.8064,-1.7138,-1.6197,-1.5629,-1.5166,-1.4873,-1.4484,-1.4298,-1.41,-1.4202,-1.4298,-1.44,-1.4783,-1.5267,-1.5452,-1.5635,-1.5832,0.0,0.0,0.0,0.0,0.0,0.0,0.0,-1.248,-1.2735,-1.2929,-1.3142,-1.3504,-1.4216,-1.4795,-1.5394,0.0,0.0,0.0,0.0,0.0,0.0,0.0,0.0,0.0,0.0,0.0,0.0,-2.2133,-2.2686,0.0,0.0,0.0,0.0,0.0,-2.333,-2.3644,-2.4111,-2.4282,-2.4664,0.0,0.0,-2.6194,0.0,0.0,0.0,0.0,0.0,0.0,0.0,0.0,-3.1102,-3.1292,-3.1597,-3.1841,-3.2038,-3.2398,-3.3005,-3.3637,-3.4038,-3.4589,-3.5126,-3.5386,-3.5441,-3.5694,-3.6364,-3.6366,0.0,0.0,-3.6737,-3.6585,-3.6738,0.0,-3.7238,0.0,0.0,0.0,0.0,0.0,0.0,0.0,0.0,0.0,0.0,-3.8841,0.0,-3.7872,-3.6439,-3.5103,-3.434,-3.1376,-2.908,-2.7602,-2.618,-2.4871,-2.3746,-2.2519,-2.1299,-2.0083,-1.8566,-1.7283,-1.6197,-1.5248,-1.4675,-1.4292,-1.3806,-1.3516,-1.3323,-1.313,-1.313,-1.342,-1.3715,-1.4298,-1.4981,-1.5261,-1.554,-1.5825,0.0,0.0,0.0,0.0,0.0,0.0,0.0,-1.2283,-1.2627,-1.3027,-1.3238,-1.3573,-1.4146,-1.4736,-1.5213,0.0,0.0,0.0,0.0,0.0,0.0,0.0,0.0,0.0,0.0,0.0,0.0,-2.1556,-2.2121,0.0,0.0,0.0,0.0,0.0,0.0,-2.3488,-2.3705,-2.3975,0.0,0.0,0.0,0.0,0.0,0.0,0.0,0.0,0.0,0.0,0.0,0.0,0.0,-3.119,-3.1424,-3.1655,-3.1841,-3.1996,0.0,0.0,-3.3347,-3.3717,-3.3933,-3.418,-3.4329,-3.4508,-3.4679,0.0,0.0,-3.5714,-3.5984,-3.61,-3.6258,-3.6399,-3.6723,0.0,0.0,-3.7594,0.0,0.0,0.0,0.0,0.0,0.0,0.0,-3.7521,-3.7028,-3.6724,-3.4363,-3.2857,-3.2562,-3.1027,-2.9274,-2.7415,-2.6104,-2.4607,-2.2896,-2.1925,-2.0492,-1.875,-1.7654,-1.6341,-1.4854,-1.4286,-1.3607,-1.2926,-1.2829,-1.2252,-1.1487,-1.1389,-1.1585,-1.1878,-1.2073,-1.3141,-1.4394,-1.4688,-1.5166,-1.5737,0.0,0.0,0.0,0.0,0.0,0.0,-1.1828,-1.2332,-1.2764,-1.3094,-1.343,-1.381,-1.428,-1.4864,-1.5314,0.0,0.0,0.0,0.0,0.0,0.0,0.0,0.0,0.0,0.0,0.0,-2.0991,-2.0991,-2.1543,0.0,0.0,0.0,0.0,0.0,0.0,-2.3641,-2.3819,-2.4189,0.0,0.0,0.0,0.0,0.0,0.0,0.0,0.0,0.0,0.0,0.0,0.0,0.0,0.0,-3.1424,-3.1539,0.0,0.0,-3.194,-3.2057,-3.2501,-3.2732,-3.2813,-3.302,-3.3185,-3.3365,-3.3755,0.0,-3.4079,-3.4912,-3.5122,-3.5235,-3.5804,-3.5943,-3.6148,-3.6507,-3.6585,0.0,0.0,0.0,0.0,0.0,0.0,0.0,0.0,0.0,-3.5864,-3.4667,-3.2845,-3.13,-3.0214,-2.9338,-2.8244,-2.6837,-2.5324,-2.3999,-2.2654,-2.136,-1.9987,-1.8469,-1.6905,-1.5409,-1.4184,-1.3033,-1.2262,-1.177,-1.1282,-1.0895,-1.0511,-1.0314,-1.0511,-1.09,-1.1389,-1.2268,-1.3431,-1.3811,-1.4388,-1.4873,0.0,0.0,0.0,0.0,0.0,-1.1124,-1.1728,-1.2332,-1.2861,-1.3266,-1.3658,-1.4093,-1.4593,-1.513,-1.5546,-1.5736,0.0,0.0,0.0,0.0,0.0,0.0,0.0,0.0,0.0,0.0,-2.0401,-2.0401,-2.0978,-2.1242,0.0,0.0,-2.2159,-2.2334,0.0,0.0,0.0,0.0,0.0,0.0,0.0,0.0,0.0,0.0,0.0,0.0,0.0,0.0,0.0,0.0,0.0,0.0,0.0,0.0,0.0,0.0,-3.1727,-3.1727,-3.1826,-3.1981,-3.2135,-3.2247,-3.2413,-3.2647,0.0,0.0,-3.3343,-3.3985,-3.4162,-3.4445,-3.5217,-3.5337,-3.5477,-3.5928,-3.591,-3.5846,-3.5943,0.0,0.0,0.0,0.0,-3.5438,0.0,-3.5292,-3.4407,-3.2819,-3.1476,-2.9954,-2.8319,-2.7484,-2.6733,-2.5848,-2.4501,-2.322,-2.2013,-2.0756,-1.9298,-1.7782,-1.5972,-1.4514,-1.313,-1.1873,-1.0998,-1.0609,-1.0019,-0.9624,-0.9521,-0.9327,-0.9525,-1.0117,-1.0502,-1.1482,-1.2559,-1.3039,-1.3516,-1.4004,0.0,0.0,0.0,0.0,0.0,0.0,0.0,-1.2274,-1.292,-1.3525,-1.3941,-1.449,-1.522,-1.5603,-1.5969,-1.6362,0.0,0.0,0.0,0.0,0.0,0.0,0.0,0.0,0.0,0.0,-1.9811,-1.9811,-2.0388,-2.0731,-2.0743,-2.1242,-2.1782,-2.2309,0.0,0.0,0.0,0.0,0.0,0.0,0.0,0.0,0.0,0.0,0.0,0.0,0.0,0.0,0.0,0.0,0.0,0.0,0.0,0.0,0.0,0.0,-3.1482,-3.1482,-3.1524,-3.1769,-3.1996,-3.1981,-3.2191,-3.2342,0.0,0.0,-3.2925,-3.2749,-3.3156,-3.3709,-3.4367,-3.4487,-3.4711,-3.54,-3.5504,0.0,-3.5415,0.0,0.0,0.0,0.0,-3.4166,-3.4212,-3.3342,-3.2378,-3.1264,-3.0068,-2.8806,-2.7326,-2.5771,-2.4786,-2.4492,-2.3511,-2.2316,-2.0885,-1.9738,-1.8292,-1.64,-1.5071,-1.3396,-1.1585,-1.0801,-1.0019,-0.9232,-0.9236,-0.8935,-0.8432,-0.8432,-0.8733,-0.9232,-0.9513,-1.0596,-1.2078,-1.2273,-1.2845,-1.3414,0.0,0.0,0.0,0.0,0.0,0.0,0.0,-1.2431,-1.3065,-1.3668,-1.415,-1.4697,-1.5379,-1.5736,-1.6044,-1.6349,0.0,0.0,0.0,0.0,0.0,0.0,0.0,0.0,0.0,0.0,-1.9598,-2.0067,-2.0155,-2.0295,-2.0502,-2.0985,-2.1355,-2.1668,-2.2437,-2.3057,0.0,0.0,0.0,0.0,0.0,0.0,0.0,0.0,0.0,0.0,0.0,0.0,0.0,0.0,0.0,0.0,0.0,0.0,0.0,0.0,0.0,0.0,-3.1482,-3.1769,-3.1996,-3.1996,-3.2191,-3.2342,-3.2094,0.0,-3.2379,-3.2526,-3.2677,-3.2975,-3.357,-3.4047,-3.4278,-3.4307,-3.4457,-3.4467,0.0,0.0,0.0,0.0,0.0,-3.2927,0.0,0.0,-3.1223,-3.0073,-2.8976,-2.7788,-2.6274,-2.4688,-2.3791,-2.3692,-2.2299,-2.0979,-1.9746,-1.861,-1.7275,-1.5594,-1.4265,-1.2703,-1.1002,-1.0019,-0.9229,-0.8634,-0.8439,-0.8237,-0.8137,-0.8137,-0.8336,-0.8634,-0.8924,-0.9612,-1.04,-1.0703,-1.0998,-1.138,0.0,0.0,0.0,0.0,0.0,0.0,0.0,-1.2177,-1.2902,-1.3512,-1.4171,-1.488,-1.5457,-1.5869,-1.6175,-1.6436,0.0,0.0,0.0,0.0,0.0,0.0,0.0,0.0,0.0,-1.9217,-1.9603,-2.0012,-2.0218,-2.0372,-2.0573,-2.09,-2.1199,-2.1498,-2.2148,-2.275,0.0,0.0,0.0,0.0,0.0,0.0,-2.6539,0.0,0.0,0.0,0.0,0.0,0.0,0.0,0.0,0.0,0.0,0.0,0.0,0.0,-3.1482,0.0,0.0,-3.1712,-3.194,-3.194,-3.2094,0.0,0.0,0.0,-3.1947,-3.2122,-3.2079,-3.2214,-3.2702,-3.3007,-3.3216,-3.326,-3.3346,-3.3431,0.0,0.0,0.0,0.0,0.0,0.0,0.0,-3.0343,-2.9617,-2.8668,-2.7714,-2.6561,-2.5197,-2.3701,-2.2601,-2.2089,-2.0987,-1.9864,-1.8722,-1.7566,-1.6245,-1.4683,-1.3158,-1.1716,-1.0306,-0.9327,-0.8634,-0.8237,-0.8038,-0.8038,0.0,-0.8038,-0.8137,-0.8432,-0.8627,-0.9023,-0.9418,-0.9624,-0.9821,-0.9912,0.0,0.0,0.0,0.0,0.0,0.0,0.0,0.0,-1.2524,-1.3086,-1.4013,-1.488,-1.5487,-1.5932,-1.6275,-1.6479,0.0,0.0,0.0,0.0,0.0,0.0,0.0,0.0,-1.8048,-1.9133,-1.9721,-1.976,-2.0469,-2.0845,-2.0845,-2.0993,-2.1299,-2.1756,-2.1834,-2.2498,0.0,0.0,0.0,0.0,0.0,0.0,0.0,0.0,0.0,0.0,0.0,0.0,0.0,0.0,0.0,0.0,0.0,0.0,0.0,0.0,0.0,0.0,0.0,0.0,0.0,0.0,0.0,0.0,0.0,0.0,0.0,0.0,-3.1409,-3.1397,-3.1824,-3.1638,-3.1685,-3.2316,-3.2368,0.0,0.0,0.0,0.0,0.0,-3.0833,0.0,-2.9484,-2.8645,-2.7775,-2.7094,-2.6177,-2.5156,-2.4024,-2.2641,-2.133,-2.001,-1.9605,-1.8894,-1.7877,-1.6535,-1.5221,-1.3846,-1.1996,-1.0588,-0.9509,-0.8726,-0.8237,-0.8038,-0.8038,-0.8038,-0.8038,-0.8038,-0.8137,-0.8333,-0.8333,-0.8634,-0.9133,-0.9137,-0.9027,-0.9019,0.0,0.0,0.0,0.0,0.0,0.0,0.0,0.0,0.0,0.0,-1.3379,-1.4204,-1.4986,-1.5659,-1.6175,0.0,0.0,0.0,0.0,0.0,0.0,0.0,0.0,0.0,-1.8652,-1.919,-1.9825,-2.0481,-2.0885,-2.1264,-2.1541,-2.1506,-2.1636,-2.1945,-2.2051,-2.2827,0.0,0.0,0.0,0.0,0.0,0.0,0.0,0.0,0.0,0.0,-2.8511,-2.9319,0.0,0.0,0.0,0.0,0.0,0.0,0.0,0.0,-3.1482,-3.1482,-3.1482,0.0,-3.1799,-3.1799,-3.1898,0.0,0.0,0.0,0.0,0.0,0.0,0.0,0.0,-3.104,-3.1112,-3.1112,-3.1226,-3.1365,0.0,0.0,0.0,-3.0406,-2.9716,-2.8895,-2.8044,-2.7356,-2.6574,-2.5748,-2.4703,-2.373,-2.2694,-2.1053,-1.9597,-1.8518,-1.7615,-1.681,-1.6197,-1.5003,-1.362,-1.2178,-1.1121,-0.9991,-0.9019,-0.863,-0.8237,-0.8038,-0.8038,-0.8038,-0.8038,-0.8038,-0.8038,-0.8137,-0.8137,-0.8137,-0.824,-0.8041,-0.7839,-0.7633,0.0,0.0,0.0,0.0,0.0,0.0,0.0,0.0,0.0,0.0,0.0,0.0,0.0,0.0,0.0,0.0,0.0,0.0,0.0,0.0,0.0,0.0,0.0,-1.7977,-1.8563,-1.9055,-1.9612,-2.0315,-2.0825,-2.1342,-2.1793,-2.1793,-2.1841,-2.2024,-2.2569,-2.3234,0.0,0.0,0.0,0.0,-2.5839,0.0,0.0,0.0,0.0,0.0,-2.828,-2.9087,0.0,-3.0837,-3.119,-3.1234,0.0,0.0,0.0,0.0,-3.1482,-3.1482,-3.1482,-3.1597,-3.167,-3.167,-3.1712,-3.1769,0.0,0.0,0.0,0.0,0.0,0.0,0.0,0.0,0.0,-2.9835,-2.9961,0.0,0.0,0.0,0.0,-2.9406,-2.8688,-2.781,-2.6823,-2.6081,-2.5301,-2.4464,-2.3309,-2.2312,-2.1371,-1.9836,-1.8474,-1.7299,-1.6069,-1.5331,-1.5082,-1.392,-1.2622,-1.1199,-1.0201,-0.921,-0.8432,-0.8035,-0.7736,-0.764,-0.764,-0.764,-0.764,-0.754,-0.7441,-0.7441,-0.7338,-0.7238,-0.7238,-0.7138,-0.6839,-0.6437,0.0,0.0,0.0,0.0,0.0,0.0,0.0,0.0,0.0,0.0,0.0,0.0,0.0,0.0,0.0,0.0,0.0,0.0,0.0,0.0,0.0,0.0,0.0,-1.8003,-1.8228,-1.8782,-1.9305,-1.9823,-2.0515,-2.1167,-2.1746,-2.1902,-2.1996,-2.2052,-2.3164,-2.3654,0.0,0.0,0.0,0.0,-2.5688,0.0,0.0,0.0,0.0,0.0,0.0,0.0,0.0,-3.0705,-3.1132,-3.119,-3.1424,0.0,0.0,0.0,0.0,0.0,-3.1482,-3.1482,-3.1467,-3.1467,-3.1467,-3.1482,0.0,0.0,0.0,0.0,0.0,0.0,0.0,0.0,0.0,0.0,0.0,0.0,0.0,0.0,-2.8937,-2.8383,-2.7637,-2.6823,-2.5768,-2.4829,-2.3961,-2.3194,-2.1925,-2.0865,-2.0062,-1.8813,-1.7548,-1.6169,-1.4844,-1.4138,-1.3841,-1.2946,-1.1754,-1.0449,-0.9291,-0.8432,-0.7839,-0.7338,-0.7039,-0.7039,-0.7039,-0.7039,-0.7039,-0.6742,-0.6645,-0.6642,-0.6339,-0.6237,-0.6237,-0.6137,-0.5837,-0.5334,0.0,0.0,0.0,0.0,0.0,0.0,0.0,0.0,0.0,0.0,0.0,0.0,0.0,0.0,0.0,0.0,0.0,0.0,0.0,0.0,0.0,-1.7295,-1.7666,-1.8029,-1.8279,-1.8714,-1.9278,-1.9954,-2.0425,-2.0967,-2.1616,-2.1746,-2.1902,-2.2052,-2.3364,-2.3923,-2.3933,-2.5266,-2.5853,-2.5839,-2.5839,0.0,0.0,0.0,0.0,0.0,0.0,0.0,0.0,-3.0558,-3.119,-3.1292,-3.1467,0.0,0.0,0.0,0.0,0.0,-3.1482,-3.1409,-3.1351,-3.1351,-3.1351,-3.1234,-3.0999,0.0,0.0,0.0,0.0,0.0,0.0,0.0,0.0,0.0,0.0,-2.8612,0.0,0.0,-2.7891,-2.7418,-2.6434,-2.5516,-2.4754,-2.3887,-2.295,-2.2054,-2.0788,-1.972,-1.8769,-1.7566,-1.6334,-1.498,-1.3876,-1.271,-1.1382,-1.0959,-1.0255,-0.9061,-0.8443,-0.7836,-0.7338,-0.6736,-0.6537,-0.6537,-0.6239,-0.6142,-0.6142,-0.6142,-0.5939,-0.5737,-0.5734,-0.5734,-0.5634,-0.5236,-0.4832,-0.4429,0.0,0.0,0.0,0.0,0.0,0.0,0.0,0.0,0.0,0.0,0.0,0.0,0.0,0.0,0.0,0.0,0.0,0.0,0.0,0.0,0.0,-1.7073,-1.7295,-1.757,-1.7868,-1.8058,-1.8582,-1.9526,-1.9704,-2.0248,-2.1153,-2.1299,-2.1396,-2.1499,-2.2797,-2.3344,-2.3491,-2.4765,-2.5342,-2.5397,0.0,0.0,0.0,0.0,0.0,0.0,0.0,0.0,0.0,0.0,-3.119,-3.1351,-3.1467,0.0,0.0,0.0,0.0,0.0,-3.1482,-3.1409,-3.1292,-3.1234,-3.1117,-3.0999,-3.0762,0.0,0.0,0.0,0.0,0.0,0.0,0.0,0.0,-2.7589,0.0,-2.7812,-2.7633,-2.7334,-2.6917,-2.6362,-2.5432,-2.4498,-2.379,-2.2921,-2.1952,-2.0988,-1.9803,-1.8611,-1.7677,-1.6473,-1.5235,-1.389,-1.2737,-1.1473,-1.0203,-0.9418,-0.8829,-0.8333,-0.7836,-0.7138,-0.6337,-0.5737,-0.5336,-0.5135,-0.4935,-0.4937,-0.4937,-0.4632,-0.4431,-0.4228,-0.4029,-0.3828,-0.3828,-0.3426,-0.3123,-0.2821,0.0,0.0,0.0,0.0,0.0,0.0,0.0,0.0,0.0,0.0,0.0,0.0,0.0,0.0,0.0,0.0,0.0,0.0,0.0,0.0,-1.6607,-1.6863,-1.6863,-1.7031,-1.7434,-1.7525,-1.8064,-1.9028,-1.9114,-1.969,-2.0709,-2.0795,-2.0974,-2.1159,-2.2246,-2.2911,-2.3152,-2.4278,-2.4778,-2.4892,0.0,0.0,0.0,0.0,0.0,0.0,0.0,0.0,0.0,0.0,0.0,0.0,0.0,0.0,0.0,-3.1482,-3.1482,-3.1482,-3.1467,-3.1351,-3.1234,-3.1073,0.0,-3.0642,-3.0387,0.0,0.0,0.0,0.0,0.0,0.0,-2.8039,0.0,-2.6781,-2.692,-2.7031,-2.6811,-2.646,-2.603,-2.5359,-2.4423,-2.3551,-2.2833,-2.1952,-2.0988,-2.0002,-1.8804,-1.7684,-1.6662,-1.552,-1.4286,-1.2931,-1.1775,-1.06,-0.941,-0.8428,-0.7839,-0.7839,-0.7238,-0.6437,-0.5436,-0.4732,-0.4131,-0.3731,-0.3629,-0.3528,-0.3528,-0.3124,-0.2922,-0.2821,-0.2421,-0.222,-0.2119,-0.1917,-0.1614,-0.1312,0.0,0.0,0.0,0.0,0.0,0.0,0.0,0.0,0.0,0.0,0.0,0.0,0.0,0.0,0.0,0.0,0.0,0.0,0.0,0.0,-1.6436,-1.6522,-1.6522,-1.6735,-1.7199,-1.7635,-1.8163,-1.874,-1.9175,-1.9742,-2.0422,-2.0422,-2.0809,-2.1524,-2.23,-2.2921,-2.3408,-2.4283,-2.462,-2.4607,-2.4421,0.0,0.0,0.0,0.0,0.0,0.0,0.0,0.0,0.0,0.0,0.0,0.0,0.0,-3.1482,-3.1482,-3.1482,-3.1467,-3.1351,-3.1249,-3.1087,-3.0895,-3.0568,0.0,-2.9789,-2.9526,0.0,-2.898,0.0,0.0,0.0,-2.7082,-2.6371,-2.6029,-2.6457,-2.6609,-2.6047,-2.5761,-2.5359,-2.4669,-2.357,-2.2608,-2.1872,-2.0907,-2.0002,-1.898,-1.7971,-1.6951,-1.592,-1.4867,-1.3811,-1.2467,-1.1389,-1.0207,-0.8821,-0.8028,-0.7534,-0.7238,-0.6439,-0.5639,-0.4834,-0.3827,-0.3124,-0.2825,-0.232,-0.2117,-0.2117,-0.2117,-0.1916,-0.1714,-0.1714,-0.1514,-0.1313,-0.1313,-0.0909,-0.0505,0.0,0.0,0.0,0.0,0.0,0.0,0.0,0.0,0.0,0.0,0.0,0.0,0.0,0.0,0.0,0.0,0.0,0.0,0.0,-1.6231,-1.6362,-1.6479,-1.6522,-1.6728,-1.7182,-1.7441,-1.7867,-1.838,-1.9169,-1.9661,-1.9914,-1.9823,-2.0177,-2.0904,-2.1626,-2.2343,-2.3093,-2.3864,-2.4229,-2.4274,-2.3969,-2.3852,0.0,0.0,0.0,0.0,0.0,0.0,0.0,0.0,-3.1058,-3.1409,-3.1409,-3.1409,-3.1351,-3.1307,-3.1249,-3.119,-3.1058,-3.0881,-3.0762,-3.0507,0.0,0.0,0.0,-2.9212,-2.8766,-2.8444,-2.8039,0.0,0.0,0.0,-2.5886,-2.5229,-2.5675,-2.5747,-2.4814,-2.4841,-2.4584,-2.3734,-2.2765,-2.1793,-2.1078,-1.9994,-1.8988,-1.7971,-1.6951,-1.5913,-1.4968,-1.3908,-1.2754,-1.1487,-1.0404,-0.9217,-0.8028,-0.7135,-0.6337,-0.5737,-0.5436,-0.4634,-0.353,-0.2822,-0.2118,-0.1515,-0.1313,-0.1211,-0.1211,-0.111,-0.0908,-0.0808,-0.0707,-0.0505,-0.0404,-0.0404,-0.0303,-0.0101,0.0,0.0,0.0,0.0,0.0,0.0,0.0,0.0,0.0,0.0,0.0,0.0,0.0,0.0,0.0,0.0,0.0,0.0,-1.5913,-1.6044,-1.6188,-1.6349,-1.6511,-1.6707,-1.7011,-1.739,-1.7795,-1.8275,-1.9017,-1.9408,-1.9408,-1.9474,-1.9907,-2.0625,-2.1338,-2.2173,-2.3019,-2.3664,-2.3949,-2.3936,-2.3628,-2.345,0.0,0.0,0.0,0.0,0.0,0.0,0.0,0.0,-3.094,-3.1278,-3.1278,-3.1278,-3.1292,-3.1073,-3.0955,-3.0895,-3.0568,-3.0387,-3.0266,0.0,0.0,0.0,-2.9275,-2.878,-2.8262,-2.7802,-2.7108,0.0,-2.5767,0.0,0.0,0.0,-2.5004,-2.5049,-2.4035,-2.4096,-2.3907,-2.296,-2.1971,-2.1078,-2.0275,-1.9072,-1.7878,-1.6857,-1.5913,-1.4867,-1.3817,-1.2754,-1.1678,-1.0502,-0.9414,-0.8322,-0.7232,-0.6137,-0.5138,-0.4331,-0.4029,-0.3426,-0.2522,-0.1917,-0.1312,-0.0707,-0.0606,-0.0505,-0.0505,-0.0303,-0.0303,-0.0303,-0.0101,0.0,0.0,0.01,0.01,0.02,0.0,0.0,0.0,0.0,0.0,0.0,0.0,0.0,0.0,0.0,0.0,0.0,0.0,0.0,0.0,0.0,0.0,0.0,-1.5748,-1.5913,-1.5988,-1.5988,-1.649,-1.6735,-1.6584,-1.7454,-1.8052,-1.8382,-1.8799,-1.8987,-1.9011,-1.9449,-2.0089,-2.0803,-2.1724,-2.2577,-2.3403,-2.3772,-2.376,-2.3569,-2.345,-2.3223,-2.2909,0.0,0.0,0.0,0.0,0.0,0.0,0.0,-3.0747,-3.1278,-3.1278,-3.1278,-3.1219,-3.0881,-3.0702,-3.0447,-2.9931,-2.9685,0.0,0.0,0.0,0.0,-2.8651,-2.8183,-2.7643,-2.7108,0.0,-2.5158,-2.4791,-2.4587,0.0,-2.397,-2.4487,-2.4646,-2.3785,-2.3772,-2.3396,-2.252,-2.1356,-2.0184,-1.9279,-1.8071,-1.6857,-1.5825,-1.4867,-1.3811,-1.2748,-1.178,-1.0694,-0.9604,-0.8513,-0.7425,-0.6434,-0.5331,-0.4228,-0.3222,-0.2417,-0.2017,-0.1917,-0.1111,-0.0606,-0.0404,-0.0101,0.0,0.0,0.0,0.0,0.0,0.0,0.0,0.0,0.0297,0.0393,0.0489,0.0,0.0,0.0,0.0,0.0,0.0,0.0,0.0,0.0,0.0,0.0,0.0,0.0,0.0,0.0,0.0,0.0,0.0,-1.5435,-1.5558,-1.568,-1.5724,-1.6158,-1.6468,-1.659,-1.7119,-1.779,-1.8548,-1.8412,-1.8561,-1.8867,-1.8782,-1.9379,-2.0449,-2.0973,-2.1693,-2.2494,-2.2859,-2.2919,-2.2859,-2.2775,-2.2714,-2.2751,0.0,0.0,0.0,0.0,0.0,0.0,0.0,0.0,0.0,-3.0807,-3.0687,-3.0493,-3.0097,-2.9837,-2.956,-2.9044,-2.8853,0.0,0.0,0.0,0.0,0.0,-2.7723,0.0,0.0,-2.5441,-2.4731,-2.4238,-2.3728,-2.3287,-2.2927,-2.3067,-2.3108,-2.2625,-2.2587,-2.2361,-2.1774,-2.0718,-1.9712,-1.8711,-1.7512,-1.6202,-1.4878,-1.392,-1.2786,-1.1542,-1.0583,-0.9715,-0.8747,-0.767,-0.6554,-0.5417,-0.4162,-0.3199,-0.2328,-0.1551,-0.1181,-0.1111,-0.0707,-0.0404,-0.0101,0.0,0.0,0.0,0.0,0.0097,0.0291,0.0291,0.0485,0.0776,0.0867,0.1058,0.144,0.0,0.0,0.0,0.0,0.0,0.0,0.0,0.0,0.0,0.0,0.0,0.0,0.0,0.0,0.0,0.0,0.0,0.0,0.0,-1.5096,-1.5222,-1.5383,-1.5782,-1.6187,-1.6444,-1.6665,-1.7011,-1.7556,-1.7556,-1.7812,-1.8233,-1.8317,-1.8895,-1.9958,-2.0449,-2.1086,-2.1865,-2.2113,-2.2175,-2.2137,-2.2315,-2.2348,-2.2384,0.0,0.0,0.0,0.0,0.0,0.0,0.0,0.0,0.0,-3.0251,-3.019,-2.9946,-2.954,-2.9135,-2.8803,-2.8352,0.0,0.0,0.0,0.0,0.0,0.0,0.0,0.0,0.0,-2.4576,-2.4009,-2.3446,-2.2852,-2.2402,-2.2101,-2.219,-2.2098,-2.1715,-2.1547,-2.1219,-2.0588,-1.9635,-1.8563,-1.7568,-1.6388,-1.512,-1.3755,-1.2724,-1.1599,-1.0373,-0.9617,-0.8767,-0.7815,-0.6852,-0.5669,-0.4375,-0.3331,-0.2382,-0.1526,-0.0954,-0.0579,-0.0494,-0.0296,-0.0198,0.0,0.0098,0.0291,0.0485,0.0479,0.0572,0.0763,0.0953,0.1143,0.1428,0.17,0.1977,0.2349,0.0,0.0,0.0,0.0,0.0,0.0,0.0,0.0,0.0,0.0,0.0,0.0,0.0,0.0,0.0,0.0,0.0,0.0,0.0,0.0,-1.4744,-1.4904,-1.5423,-1.585,-1.6177,-1.6046,-1.5931,-1.5816,-1.6452,-1.6932,-1.7326,-1.7848,-1.8509,-1.9306,-1.9975,-2.0624,-2.1198,-2.1376,-2.1336,-2.1366,-2.1981,-2.2124,-2.2073,-2.3261,0.0,0.0,0.0,0.0,0.0,0.0,0.0,0.0,-2.9685,-2.956,-2.9373,-2.9022,-2.856,-2.8091,-2.7776,0.0,0.0,0.0,0.0,0.0,0.0,0.0,-2.5465,-2.4564,0.0,-2.3075,-2.2478,-2.2025,-2.1655,-2.1425,-2.1605,-2.1471,-2.088,-2.0549,-2.0111,-1.9213,-1.8102,-1.7056,-1.6094,-1.4937,-1.3767,-1.2478,-1.1466,-1.0449,-0.9423,-0.8687,-0.7847,-0.6907,-0.6059,-0.4924,-0.3499,-0.2651,-0.1705,-0.0758,-0.0474,-0.019,0.0,0.0,0.0095,0.0095,0.038,0.076,0.1138,0.1233,0.1328,0.1517,0.1799,0.1988,0.2078,0.2783,0.3042,0.3217,0.0,0.0,0.0,0.0,0.0,0.0,0.0,0.0,0.0,0.0,0.0,0.0,0.0,0.0,0.0,0.0,0.0,0.0,0.0,0.0,-1.4317,-1.4372,-1.4732,-1.5077,-1.5449,-1.5177,-1.5001,-1.4942,-1.593,-1.6568,-1.6874,-1.7258,-1.776,-1.8302,-1.888,-1.933,-1.9584,-1.9922,-2.0204,-2.0474,-2.0985,-2.1453,-2.2116,-2.3614,-2.4434,0.0,0.0,0.0,0.0,0.0,0.0,0.0,-2.8739,-2.8454,-2.826,-2.763,-2.7242,-2.6973,0.0,-2.6564,0.0,0.0,0.0,0.0,0.0,-2.4814,-2.4539,-2.442,-2.3559,-2.2703,-2.2252,-2.1578,-2.1051,-2.0809,-2.0557,-2.0178,-1.9942,-1.9395,-1.8811,-1.8164,-1.7239,-1.6271,-1.5287,-1.4302,-1.3134,-1.1774,-1.0775,-0.9781,-0.8695,-0.7967,-0.7234,-0.6498,-0.5383,-0.4238,-0.2997,-0.1907,-0.1091,-0.0454,0.0,0.0273,0.0273,0.0282,0.0473,0.0838,0.1118,0.1384,0.1637,0.1907,0.2179,0.2543,0.2633,0.3086,0.381,0.3974,0.4328,0.4954,0.0,0.0,0.0,0.0,0.0,0.0,0.0,0.0,0.0,0.0,0.0,0.0,0.0,0.0,0.0,0.0,0.0,0.0,0.0,0.0,-1.3807,-1.4009,-1.4092,-1.4182,-1.4392,-1.4043,-1.3951,-1.4145,-1.4908,-1.5523,-1.6119,-1.6487,-1.7044,-1.7638,-1.8046,-1.8452,-1.8875,-1.937,-1.9677,-1.9927,-2.0786,-2.1388,-2.2013,-2.3509,-2.4355,-2.4823,-2.5787,0.0,0.0,0.0,0.0,0.0,0.0,0.0,-2.6989,-2.6526,-2.6277,-2.6013,0.0,0.0,0.0,0.0,0.0,0.0,0.0,-2.4166,-2.3813,-2.3486,-2.283,-2.2101,-2.1655,-2.1051,-2.0508,-2.0333,-1.9784,-1.9304,-1.8931,-1.815,-1.739,-1.673,-1.5806,-1.495,-1.3993,-1.3021,-1.1905,-1.0642,-0.9748,-0.886,-0.7796,-0.7258,-0.6538,-0.5729,-0.4727,-0.3619,-0.242,-0.1524,-0.0718,0.0,0.0359,0.0807,0.1435,0.1009,0.1197,0.1822,0.2004,0.2445,0.3047,0.3135,0.3491,0.3939,0.4028,0.4387,0.4835,0.5102,0.5458,0.5899,0.0,0.0,0.0,0.0,0.0,0.0,0.0,0.0,0.0,0.0,0.0,0.0,0.0,0.0,0.0,0.0,0.0,0.0,0.0,0.0,0.0,-1.3584,-1.3459,-1.3329,-1.326,-1.3014,-1.307,-1.3307,-1.3737,-1.4338,0.0,-1.5592,-1.6228,-1.6881,-1.7295,-1.7803,-1.8436,-1.9052,-1.9434,-1.9636,-2.0803,-2.145,-2.186,-2.3205,-2.4043,-2.449,-2.5182,-2.5652,-2.5918,-2.6139,0.0,0.0,0.0,0.0,-2.5767,-2.5475,-2.5217,-2.5016,0.0,0.0,0.0,0.0,0.0,0.0,0.0,-2.3582,-2.3075,-2.2327,-2.1959,-2.1578,-2.0984,-2.0508,-2.0108,-1.9784,-1.9231,-1.8585,-1.7844,-1.7041,-1.6147,-1.5311,-1.4391,-1.3464,-1.2528,-1.1585,-1.0636,-0.9515,-0.8723,-0.7929,-0.7054,-0.652,-0.5808,-0.4921,-0.4115,-0.3045,-0.1705,-0.1256,-0.0538,0.0448,0.0807,0.1613,0.2686,0.224,0.2239,0.2865,0.3135,0.3671,0.4478,0.4565,0.4832,0.5188,0.5458,0.5549,0.5727,0.6083,0.6346,0.6609,0.0,0.0,0.0,0.0,0.0,0.0,0.0,0.0,0.0,0.0,0.0,0.0,0.0,0.0,0.0,0.0,0.0,0.0,-1.2996,0.0,0.0,-1.2918,-1.2757,-1.2482,-1.2228,-1.2459,-1.2572,-1.2611,-1.3119,0.0,0.0,0.0,0.0,-1.548,-1.6167,-1.6985,-1.7892,-1.835,-1.901,-1.9905,-2.0376,-2.1118,-2.1866,-2.2798,-2.3497,-2.4043,-2.4432,-2.4779,-2.5146,-2.5146,-2.537,0.0,0.0,0.0,-2.4564,-2.4009,-2.3875,-2.3875,0.0,0.0,0.0,0.0,0.0,0.0,0.0,0.0,-2.1883,0.0,-2.1436,-2.1349,-2.0722,-2.0255,-1.9784,-1.9231,-1.8585,-1.7844,-1.6968,-1.6139,-1.5228,-1.4391,-1.3464,-1.2528,-1.1585,-1.0636,-0.9772,-0.9087,-0.8109,-0.7404,-0.6881,-0.5994,-0.5191,-0.4387,-0.3312,-0.2329,-0.1436,-0.0807,-0.0179,0.0448,0.1523,0.2596,0.3758,0.4113,0.4204,0.4119,0.4383,0.4741,0.5282,0.5455,0.5722,0.5994,0.5994,0.626,0.6618,0.6707,0.6972,0.7326,0.0,0.0,0.0,0.0,0.0,0.0,0.0,0.0,0.0,0.0,0.0,0.0,0.0,0.0,0.0,-1.1524,-1.165,-1.1909,-1.2501,-1.2588,-1.2567,-1.2405,-1.205,-1.1821,-1.1809,-1.1891,-1.2079,-1.2434,0.0,0.0,0.0,-1.3548,-1.4266,0.0,0.0,0.0,-1.736,-1.7961,-1.8619,-1.9259,-1.9774,-2.0294,-2.0769,-2.1354,-2.1886,-2.236,-2.2638,-2.3158,-2.3683,-2.3683,-2.3998,-2.4238,-2.379,0.0,0.0,0.0,-2.2777,0.0,0.0,0.0,0.0,0.0,0.0,0.0,0.0,0.0,-2.1272,-2.0576,-2.0576,-2.0489,-2.0255,-1.9784,-1.9152,-1.8576,-1.7772,-1.696,-1.6057,-1.5228,-1.43,-1.3379,-1.2528,-1.1585,-1.0636,-0.9772,-0.899,-0.8197,-0.7496,-0.6789,-0.6083,-0.5191,-0.4389,-0.3582,-0.2598,-0.1704,-0.0807,-0.0359,0.0448,0.1613,0.2776,0.3849,0.4743,0.5277,0.5366,0.5099,0.5366,0.5725,0.6171,0.6257,0.6435,0.67,0.67,0.6789,0.6966,0.6966,0.7323,0.7768,0.0,0.0,0.0,0.0,0.0,0.0,0.0,0.0,0.0,0.0,0.0,0.0,0.0,0.0,0.0,0.0,-1.1295,-1.155,-1.2063,-1.2096,-1.1996,-1.1809,-1.1445,-1.1276,-1.1304,-1.1329,-1.156,-1.2006,0.0,0.0,-1.2452,-1.2673,-1.3258,0.0,-1.508,-1.5969,0.0,0.0,0.0,0.0,-1.9094,-1.9362,-1.958,-1.9875,-2.0187,-2.0663,-2.0884,-2.142,-2.2113,-2.2199,-2.2596,-2.2916,-2.2542,-2.2392,0.0,0.0,0.0,0.0,0.0,0.0,0.0,0.0,0.0,0.0,0.0,0.0,-2.0498,0.0,-1.9539,-1.9381,-1.9381,-1.8984,-1.8505,-1.7764,-1.696,-1.6064,-1.5228,-1.4307,-1.3379,-1.2443,-1.1499,-1.0549,-0.9593,-0.8903,-0.8201,-0.7312,-0.67,-0.6083,-0.5193,-0.4389,-0.3494,-0.2689,-0.1883,-0.1076,-0.0179,0.0358,0.1343,0.2776,0.3939,0.4835,0.5638,0.6083,0.6169,0.6074,0.6169,0.6526,0.6881,0.6881,0.6969,0.7139,0.7139,0.7143,0.7231,0.7231,0.7588,0.8116,0.0,0.0,0.0,0.0,0.0,0.0,0.0,0.0,0.0,0.0,0.0,0.0,-1.0294,-1.0222,-1.0291,-1.0773,-1.0988,-1.1308,-1.1819,-1.174,-1.1435,-1.087,-1.0951,0.0,-1.0195,-1.0773,-1.1047,0.0,0.0,0.0,-1.2003,-1.2224,-1.2599,-1.3053,-1.4089,-1.53,-1.6632,0.0,0.0,0.0,0.0,0.0,0.0,0.0,-1.8762,-1.9316,-1.964,-2.011,-2.0653,-2.0827,-2.1078,-2.1318,-2.1098,-2.1021,-2.0867,0.0,0.0,0.0,0.0,0.0,0.0,0.0,0.0,0.0,0.0,0.0,-1.9073,-1.9082,-1.8576,-1.8006,-1.7853,-1.7925,-1.7764,-1.6894,-1.6064,-1.5144,-1.4307,-1.3379,-1.2443,-1.1499,-1.0549,-0.9593,-0.8627,-0.7929,-0.7224,-0.6517,-0.5813,-0.5104,-0.4389,-0.3494,-0.2599,-0.1884,-0.0987,-0.0179,0.0359,0.1702,0.2774,0.3578,0.4474,0.5366,0.6083,0.6529,0.6881,0.7051,0.6881,0.6881,0.7054,0.7054,0.7051,0.7139,0.7139,0.7234,0.7507,0.7507,0.794,0.8548,0.0,0.0,0.0,0.0,0.0,0.0,0.0,0.0,0.0,0.0,0.0,0.0,0.0,-0.9522,-0.9637,-1.0105,-1.0312,-1.0564,-1.0873,-1.0763,-1.0647,-1.0635,-1.0399,-1.026,-1.0295,-1.0408,-1.0513,0.0,0.0,-1.1186,-1.1409,-1.1632,-1.2032,-1.2605,-1.3683,-1.4585,-1.5459,-1.596,0.0,0.0,0.0,0.0,0.0,0.0,-1.7172,-1.7649,-1.7819,-1.8541,-1.9344,-1.9529,-1.9991,0.0,0.0,0.0,0.0,0.0,0.0,0.0,0.0,0.0,0.0,0.0,0.0,-1.8895,-1.8567,-1.8407,-1.8167,-1.7602,-1.735,-1.7025,-1.655,-1.6714,-1.6706,-1.5982,-1.5144,-1.4223,-1.3294,-1.2351,-1.1413,-1.0549,-0.9593,-0.8632,-0.7665,-0.6956,-0.6245,-0.5361,-0.4741,-0.4028,-0.3224,-0.251,-0.1793,-0.0897,-0.0269,0.0628,0.1702,0.3044,0.3939,0.4472,0.545,0.6166,0.6526,0.7061,0.7326,0.7326,0.7584,0.7584,0.7411,0.7672,0.7845,0.7845,0.8021,0.8109,0.8201,0.8372,0.8723,0.934,0.0,0.0,0.0,0.0,0.0,0.0,0.0,0.0,0.0,0.0,0.0,0.0,0.0,0.0,-0.9241,-0.9627,-0.9794,-0.9928,-1.0117,-0.9994,-0.9929,-1.0031,-0.9845,-0.9757,-0.9701,-0.9637,-0.9681,0.0,0.0,0.0,0.0,-1.1037,-1.1489,-1.2152,-1.2852,-1.3754,0.0,0.0,0.0,-1.5891,0.0,0.0,-1.5643,0.0,-1.5553,-1.5869,-1.6041,-1.669,-1.7415,-1.7844,-1.8399,0.0,0.0,0.0,0.0,0.0,0.0,0.0,0.0,0.0,0.0,0.0,0.0,-1.7585,-1.709,0.0,-1.6683,-1.6026,-1.5779,-1.5538,-1.5137,-1.5137,-1.522,-1.4977,-1.4223,-1.3294,-1.2357,-1.1413,-1.0463,-0.9506,-0.8632,-0.7665,-0.6694,-0.5983,-0.527,-0.4293,-0.3758,-0.3044,-0.2151,-0.1614,-0.0807,0.0269,0.0896,0.1881,0.3135,0.4119,0.4924,0.5366,0.6254,0.67,0.6881,0.7499,0.7764,0.7852,0.8464,0.8376,0.7852,0.8285,0.8456,0.8544,0.8719,0.8894,0.9069,0.9157,0.9593,1.0207,0.0,0.0,0.0,0.0,0.0,0.0,0.0,0.0,0.0,-0.85,0.0,0.0,0.0,0.0,0.0,-0.9164,-0.941,-0.9491,-0.9497,-0.9497,-0.9357,-0.9076,-0.9304,-0.9066,-0.8259,-0.8524,-0.8623,-0.8623,-0.8851,-0.9377,0.0,0.0,-1.0819,-1.148,-1.1738,-1.2724,-1.4232,0.0,-1.4894,-1.5311,0.0,-1.465,-1.4566,0.0,-1.3808,-1.4055,-1.4307,-1.4636,-1.5039,-1.5703,-1.6198,-1.6698,0.0,0.0,0.0,0.0,0.0,0.0,0.0,0.0,0.0,0.0,0.0,0.0,-1.5039,0.0,-1.4615,-1.4364,-1.3951,-1.362,-1.362,-1.3288,-1.3209,-1.3886,-1.3209,-1.2357,-1.1408,-1.0463,-0.9506,-0.854,-0.7665,-0.6697,-0.5719,-0.5006,-0.4204,-0.3226,-0.2688,-0.2151,-0.1436,-0.0718,0.0359,0.1794,0.251,0.3403,0.43,0.5104,0.5638,0.6171,0.6789,0.7139,0.7139,0.7933,0.8372,0.8544,0.9336,0.9248,0.8627,0.889,0.9061,0.9231,0.9318,0.9589,0.9946,0.9946,1.0549,1.1413,0.0,0.0,0.0,0.0,0.0,0.0,0.0,-0.7003,-0.7113,0.0,0.0,0.0,-0.705,-0.6971,-0.6925,-0.6974,-0.7028,-0.7115,-0.7329,-0.7342,-0.7396,-0.7451,-0.7358,-0.7239,-0.7011,-0.6908,-0.6853,-0.6853,-0.7318,-0.7855,-0.847,-0.9005,-0.9665,0.0,-1.0772,-1.1511,-1.2505,-1.3353,0.0,-1.3977,-1.3815,-1.3555,-1.3215,-1.2875,-1.279,-1.2869,-1.3112,-1.3438,-1.386,-1.4183,-1.4601,-1.5025,0.0,0.0,0.0,0.0,0.0,0.0,-1.5409,0.0,0.0,0.0,0.0,0.0,-1.3951,0.0,-1.3353,-1.3027,-1.2863,-1.2699,-1.2522,-1.2095,-1.1752,-1.1837,-1.1752,-1.1322,-1.0463,-0.9506,-0.8544,-0.7577,-0.6694,-0.5719,-0.4743,-0.3939,-0.3045,-0.2242,-0.1613,-0.0986,-0.0448,0.0628,0.1614,0.2599,0.3494,0.43,0.5104,0.5811,0.6343,0.6786,0.7319,0.776,0.8105,0.8899,0.9336,0.9593,1.0463,1.0804,1.0804,1.0717,1.0631,1.0712,1.1058,1.1322,1.1413,1.1671,1.21,1.2528,0.0,0.0,0.0,0.0,0.0,0.0,-0.5928,-0.6071,-0.6183,0.0,0.0,0.0,-0.579,-0.5783,-0.5801,-0.5801,-0.5855,-0.5925,-0.6091,-0.6098,-0.6139,-0.6146,-0.6076,-0.5925,-0.5767,-0.5616,-0.5541,-0.5541,-0.5986,-0.6485,-0.7118,-0.7676,-0.8423,-0.928,0.0,0.0,0.0,0.0,0.0,0.0,-1.3052,-1.279,-1.2357,-1.1757,-1.1413,-1.1322,-1.1391,-1.1558,-1.1809,-1.2237,-1.2923,-1.3522,0.0,0.0,0.0,0.0,0.0,0.0,0.0,0.0,0.0,0.0,0.0,0.0,-1.2083,-1.1826,-1.1569,-1.1139,-1.1058,-1.0971,-1.0712,-1.0453,-1.0193,-0.9758,-0.9666,-0.9584,-0.9331,-0.8452,-0.7485,-0.6605,-0.5719,-0.4743,-0.3851,-0.2957,-0.2062,-0.1256,-0.0628,0.0179,0.0986,0.1883,0.2778,0.358,0.4387,0.5102,0.5813,0.6432,0.6962,0.7408,0.7937,0.8464,0.8986,0.9772,1.0381,1.0722,1.1499,1.2015,1.2277,1.2272,1.21,1.1929,1.2272,1.2534,1.2619,1.2954,1.3379,1.3717,0.0,0.0,0.0,0.0,0.0,0.0,-0.4998,-0.517,-0.5177,0.0,-0.5006,-0.4879,-0.467,-0.4842,-0.4911,-0.4911,-0.5081,-0.522,-0.522,-0.522,-0.5143,-0.4916,-0.4916,-0.4761,-0.4375,-0.4387,-0.4394,-0.4394,-0.4654,-0.5192,-0.5842,-0.6299,-0.7104,-0.7928,0.0,0.0,0.0,0.0,0.0,-1.2711,-1.2363,-1.21,-1.1671,-1.0549,-1.0033,-0.9767,-0.9584,-0.9492,-0.9584,-1.0202,-1.1149,-1.2095,-1.2613,0.0,0.0,0.0,-1.279,0.0,0.0,0.0,0.0,0.0,-1.1327,0.0,-0.9941,-0.9685,-0.9593,-0.9148,-0.8969,-0.8973,-0.8711,-0.8623,-0.8448,-0.7742,-0.7394,-0.7397,-0.8101,-0.7305,-0.6337,-0.563,-0.4652,-0.3762,-0.2867,-0.2063,-0.1256,-0.0359,0.0269,0.1254,0.2597,0.3135,0.3849,0.4739,0.5277,0.5813,0.6428,0.6962,0.7408,0.794,0.8644,0.9257,0.9864,1.0722,1.1413,1.1929,1.2534,1.296,1.3228,1.3652,1.3392,1.279,1.3045,1.33,1.3561,1.4055,1.4559,1.4985,0.0,0.0,0.0,0.0,0.0,0.0,-0.4141,-0.3953,-0.3819,-0.3748,-0.3244,-0.2794,-0.2542,-0.2558,-0.2565,-0.2565,-0.2575,-0.266,-0.266,-0.266,-0.2582,-0.2584,-0.2584,-0.2506,-0.2427,-0.2475,-0.2418,-0.2418,-0.2883,-0.3413,-0.3995,-0.485,-0.5598,-0.6316,0.0,0.0,0.0,0.0,0.0,-1.0549,-1.1241,-1.1068,-1.0289,-0.9689,-0.9253,-0.8811,-0.8807,-0.8807,-0.8894,-0.934,-0.9777,-1.0294,-1.1154,-1.1499,-1.1671,-1.21,0.0,0.0,0.0,0.0,0.0,0.0,-1.012,0.0,-0.8982,-0.8632,-0.8372,-0.7925,-0.7837,-0.7749,-0.7478,-0.7122,-0.6854,-0.6681,-0.58,-0.5536,-0.6422,-0.5894,-0.5097,-0.4383,-0.3401,-0.2598,-0.2062,-0.1166,-0.0448,0.0179,0.1433,0.2508,0.358,0.4115,0.4739,0.5453,0.5988,0.6432,0.6962,0.7408,0.8028,0.8736,0.934,1.0115,1.0982,1.1757,1.2363,1.2881,1.3307,1.3561,1.3646,1.4068,1.3977,1.3561,1.3977,1.423,1.4482,1.4977,1.556,1.6064,0.0,0.0,0.0,0.0,0.0,0.0,0.0,-0.2648,-0.252,-0.2447,-0.1972,-0.1471,-0.1174,-0.1097,-0.1097,-0.094,-0.103,-0.1117,-0.1117,-0.1291,-0.138,-0.138,-0.1543,-0.1624,-0.1624,-0.156,-0.157,-0.157,-0.1858,-0.2219,-0.2818,-0.3401,-0.4049,-0.4842,-0.5513,0.0,0.0,0.0,-0.8356,-0.8803,-1.0111,-1.0115,-0.9331,-0.8727,-0.8109,-0.7489,-0.7404,-0.7404,-0.7577,-0.7929,-0.846,-0.899,-0.9419,-0.985,-1.0106,-1.0193,-1.0279,-1.0193,0.0,0.0,-0.9405,-0.8803,-0.8452,0.0,0.0,-0.7136,-0.6871,-0.652,-0.634,-0.616,-0.5802,-0.5536,-0.5179,-0.4732,-0.4111,-0.3757,-0.3753,-0.3757,-0.358,-0.3133,-0.215,-0.1434,-0.0987,-0.0269,0.0538,0.1613,0.2776,0.376,0.4565,0.5099,0.5633,0.6257,0.6609,0.6962,0.7408,0.8028,0.8732,0.9428,1.0202,1.1068,1.1843,1.2619,1.3052,1.3392,1.3899,1.4068,1.4068,1.4573,1.4657,1.4566,1.4894,1.5228,1.5477,1.6296,1.6788,1.7277,-0.1125,0.0,0.0,0.0,0.0,0.0,0.0,0.0,-0.1371,-0.1144,-0.0853,-0.0471,-0.0078,0.0079,0.0158,0.0394,0.0242,0.0082,0.0,-0.0333,-0.0588,-0.0673,-0.0925,-0.1009,-0.1009,-0.1013,-0.1015,-0.1015,-0.1124,-0.1399,-0.1836,-0.2134,-0.2686,-0.3403,-0.3935,0.0,0.0,0.0,0.0,-0.7129,-0.8536,-0.889,-0.8452,-0.7669,-0.6874,-0.6166,-0.5991,-0.5988,-0.6163,-0.6514,-0.7132,-0.7845,-0.7933,-0.8193,-0.854,-0.8277,-0.8189,-0.8189,-0.8097,-0.7834,-0.7478,-0.7132,-0.6779,-0.6425,0.0,0.0,0.0,-0.5013,-0.4743,-0.4474,-0.3939,-0.3851,-0.3583,-0.2778,-0.2598,-0.2151,-0.1345,-0.1523,-0.1791,-0.1791,-0.0896,-0.0179,0.0179,0.0807,0.1703,0.3047,0.403,0.4835,0.5638,0.6083,0.6523,0.7058,0.7231,0.758,0.8113,0.8732,0.9428,1.0202,1.1063,1.1929,1.2619,1.3222,1.3652,1.3899,1.4314,1.4566,1.4643,1.5159,1.5492,1.5636,1.5816,1.5974,1.6386,1.7448,1.8014,1.8247,0.0362,0.0073,0.0,0.0,0.0,0.0,0.0,0.0,-0.0625,-0.0235,0.0,0.0393,0.1021,0.0,0.0,0.0,0.0,0.1423,0.1256,0.0756,0.0421,0.0253,0.0,-0.0168,-0.0168,-0.0172,-0.0173,-0.0173,-0.0354,-0.0625,-0.0893,-0.1344,-0.1614,-0.1704,-0.2418,0.0,0.0,0.0,-0.491,0.0,-0.598,-0.6514,-0.6953,-0.6248,-0.5722,-0.546,-0.5188,-0.5097,-0.5188,-0.563,-0.6071,-0.6422,-0.6868,-0.7136,-0.7312,-0.7302,-0.7302,-0.721,-0.677,-0.659,-0.6416,-0.58,-0.5625,-0.5359,-0.4654,0.0,-0.4208,-0.3403,0.0,-0.2956,-0.2508,0.0,0.0,-0.1973,-0.1345,-0.0807,-0.0538,0.0359,0.0628,-0.0179,0.0448,0.0897,0.0987,0.1972,0.3045,0.403,0.4835,0.5638,0.6615,0.6877,0.7316,0.8025,0.8025,0.8376,0.9087,0.9602,1.0202,1.1149,1.1929,1.2619,1.3307,1.3828,1.4159,1.4314,1.4824,1.5159,1.5311,1.5982,1.6386,1.6535,1.6386,1.655,1.7041,1.7934,1.8505,1.8922,0.1566,0.1191,0.0,0.0,0.0,0.0,0.0,0.0,0.0644,0.1142,0.139,0.0,0.0,0.0,0.0,0.0,0.0,0.308,0.2823,0.2166,0.0,0.1486,0.0961,0.0612,0.0612,0.0353,0.0266,0.0266,0.0,-0.0269,-0.0538,-0.0718,-0.0897,-0.0987,-0.1345,0.0,-0.2059,0.0,-0.3309,0.0,-0.4026,-0.4291,-0.4559,-0.4917,-0.4561,-0.3941,-0.3491,-0.358,-0.3849,-0.4117,-0.4652,-0.5097,-0.5272,-0.5364,-0.5453,-0.5267,-0.5176,-0.4999,-0.4819,-0.4554,-0.4289,-0.4024,-0.3755,-0.3487,-0.3133,-0.2956,-0.2778,-0.2331,0.0,0.0,0.0,0.0,0.0,0.0,-0.0269,0.0269,0.0807,0.1704,0.1972,0.1343,0.1881,0.2419,0.2686,0.3491,0.4206,0.4924,0.5544,0.6254,0.6966,0.7319,0.7757,0.8372,0.8811,0.9253,0.9864,1.0554,1.1241,1.1929,1.279,1.3392,1.3828,1.4419,1.4824,1.4977,1.5567,1.5982,1.6214,1.7025,1.744,1.7683,1.7925,1.8006,1.8095,1.9063,1.9627,2.002,0.2984,0.0,0.0,0.0,0.0,0.0,0.0,0.0,0.1813,0.2264,0.2606,0.0,0.3942,0.43,0.0,0.0,0.4662,0.4285,0.4021,0.3195,0.2598,0.2422,0.1793,0.1345,0.1256,0.0987,0.0718,0.0718,0.0449,0.0269,0.0,0.0,-0.009,-0.0179,0.0,-0.0448,-0.0718,0.0,-0.1612,-0.1971,-0.2151,-0.224,-0.2419,-0.34,-0.3312,-0.2419,-0.206,-0.224,-0.251,-0.2869,-0.3315,-0.3851,-0.3851,-0.3851,-0.376,-0.3312,-0.3042,-0.2862,-0.2772,-0.2505,-0.2327,-0.2239,-0.206,-0.1881,-0.1792,-0.1704,-0.1615,-0.1436,-0.1166,0.0,0.0,0.0,-0.009,0.0359,0.0,0.1434,0.2063,0.2867,0.3223,0.2685,0.3224,0.3851,0.4295,0.4739,0.5186,0.5727,0.6257,0.6874,0.758,0.7933,0.8456,0.9152,0.9767,1.0294,1.0895,1.1585,1.2277,1.279,1.3561,1.4068,1.4496,1.5166,1.5567,1.5801,1.6542,1.6952,1.7188,1.7997,1.8496,1.8745,1.9381,1.9529,1.9371,2.0167,2.0576,2.0809,0.4919,0.4611,0.0,0.0,0.0,0.0,0.0,0.2596,0.2515,0.2769,0.3355,0.394,0.0,0.0,0.0,0.0,0.521,0.4914,0.4645,0.3758,0.3047,0.2867,0.2418,0.206,0.1794,0.1794,0.1615,0.1345,0.1345,0.1256,0.1076,0.1076,0.1076,0.0987,0.0807,0.0807,0.0987,0.0538,0.0269,0.0269,-0.0269,-0.0628,-0.0897,-0.1614,-0.1705,-0.1436,-0.1436,-0.1436,-0.1525,-0.2064,-0.242,-0.2597,-0.2597,-0.2597,-0.2418,-0.17,-0.1342,-0.1074,-0.0626,-0.0626,-0.0716,-0.0538,-0.0807,-0.1076,-0.0807,-0.0987,-0.0987,-0.0538,-0.0269,0.0,0.0269,0.0718,0.1076,0.0,0.1972,0.0,0.0,0.4028,0.4472,0.3939,0.4474,0.501,0.5282,0.5544,0.5988,0.6704,0.6966,0.7584,0.8823,0.9069,0.9671,1.0895,1.1154,1.1585,1.2363,1.2534,1.296,1.3652,1.4146,1.4727,1.5394,1.6057,1.6468,1.6698,1.7594,1.8086,1.8336,1.8984,1.939,1.9636,2.0333,2.0634,2.0867,2.0867,2.1031,2.1282,0.0,0.0,0.0,0.0,0.0,0.0,0.427,0.428,0.4473,0.4715,0.516,0.5684,0.5953,0.634,0.654,0.663,0.6319,0.6077,0.5808,0.5184,0.4741,0.4567,0.3939,0.3582,0.3494,0.2868,0.251,0.2419,0.206,0.1881,0.1792,0.1614,0.1525,0.1525,0.1256,0.1256,0.0,0.0,0.0,0.0,0.0897,0.0897,0.0807,-0.0179,-0.0628,-0.0718,-0.0539,-0.0628,-0.0807,-0.0987,-0.1165,-0.1255,-0.1165,-0.0896,-0.0537,-0.0089,0.0268,0.0626,0.0716,0.0895,0.0895,0.0807,0.0807,0.0807,0.0718,0.0628,0.0628,0.0718,0.0987,0.1256,0.1345,0.1882,0.0,0.0,0.0,0.3849,0.0,0.5095,0.5894,0.5983,0.5985,0.5988,0.626,0.6523,0.6874,0.7411,0.7845,0.8456,0.9345,0.9685,1.0371,1.1413,1.1843,1.2277,1.2881,1.3398,1.3822,1.4146,1.4901,1.556,1.6057,1.6878,1.7448,1.7764,1.8567,1.8975,1.9231,1.9706,2.0098,2.0333,2.0809,2.1262,2.1721,2.1721,2.1873,2.2252,0.7687,0.0,0.0,0.0,0.0,0.5381,0.5412,0.5686,0.5889,0.6154,0.6694,0.7139,0.7319,0.7408,0.7492,0.7492,0.7143,0.6877,0.6694,0.6166,0.5813,0.5638,0.5102,0.4743,0.4656,0.4119,0.376,0.3671,0.3312,0.3132,0.2955,0.2688,0.242,0.2152,0.0,0.1973,0.2062,0.224,0.2419,0.0,0.2509,0.2331,0.2062,0.1344,0.0717,0.0269,0.0449,0.0359,0.0269,0.0179,0.009,0.009,0.0269,0.0717,0.1254,0.17,0.2147,0.2505,0.2593,0.2684,0.2685,0.2509,0.233,0.224,0.224,0.215,0.2238,0.2238,0.2596,0.2774,0.2774,0.331,0.3758,0.0,0.0,0.0,0.0,0.634,0.7051,0.7404,0.7054,0.6966,0.7234,0.7492,0.7845,0.8376,0.8811,0.9419,1.0294,1.0722,1.1327,1.2277,1.2705,1.313,1.3555,1.4075,1.4489,1.4901,1.565,1.6394,1.7033,1.7781,1.8345,1.8825,1.939,1.9706,1.9872,2.0342,2.0654,2.0886,2.1349,2.1883,2.2402,2.2402,2.2841,2.3497,0.8535,0.8258,0.0,0.6739,0.6241,0.6112,0.641,0.6694,0.6959,0.7139,0.7845,0.8288,0.8288,0.8288,0.8288,0.8201,0.758,0.7139,0.7139,0.6523,0.6171,0.6171,0.5899,0.5633,0.546,0.546,0.5282,0.501,0.501,0.4832,0.4387,0.4117,0.3582,0.2956,0.2956,0.0,0.3226,0.376,0.4293,0.4739,0.4476,0.3851,0.3045,0.3045,0.2419,0.1524,0.1435,0.1436,0.1436,0.1256,0.1345,0.1524,0.1791,0.2238,0.2776,0.3669,0.4117,0.4478,0.4921,0.4743,0.4387,0.4387,0.3848,0.3396,0.3667,0.3751,0.3837,0.4016,0.4459,0.4814,0.4725,0.5176,0.5536,0.0,0.0,0.0,0.7139,0.7584,0.7937,0.8288,0.7852,0.7768,0.8201,0.8456,0.8894,0.9602,0.9859,1.0463,1.1671,1.1929,1.2443,1.3398,1.3652,1.3984,1.4398,1.465,1.5068,1.5733,1.6402,1.7204,1.8078,1.8745,1.924,1.9645,2.0108,2.0342,2.0342,2.0741,2.1061,2.1282,2.1883,2.2553,2.3075,2.3075,2.379,2.4779,0.9614,0.9048,0.8545,0.8324,0.7926,0.7621,0.7749,0.8113,0.8376,0.8468,0.8903,0.9165,0.8995,0.9165,0.9074,0.8719,0.854,0.8281,0.7933,0.7757,0.7496,0.7149,0.6877,0.6609,0.6438,0.6083,0.5905,0.5816,0.5633,0.5453,0.5364,0.4919,0.4561,0.4204,0.0,0.3671,0.376,0.4293,0.4828,0.5453,0.5191,0.5013,0.4746,0.4563,0.4295,0.3937,0.2508,0.1971,0.206,0.233,0.251,0.2688,0.3403,0.3848,0.4293,0.4832,0.5188,0.5364,0.5453,0.5453,0.5364,0.5364,0.5359,0.5442,0.5617,0.5963,0.631,0.6483,0.6926,0.7193,0.7017,0.7291,0.7386,0.0,0.0,0.0,0.8364,0.8544,0.8807,0.9423,0.9336,0.9248,0.9253,0.9423,0.9941,1.0809,1.1068,1.1585,1.2363,1.2705,1.3137,1.3913,1.3997,1.425,1.4915,1.5242,1.5816,1.6484,1.7286,1.8006,1.8745,1.939,1.9872,2.0108,2.0586,2.0751,2.0751,2.1205,2.1578,2.1949,2.2553,2.3497,2.4515,2.4515,2.4874,2.5382,1.1068,1.0458,0.985,0.9676,0.9501,0.9244,0.8727,0.9078,0.9428,0.9602,0.9946,1.0207,1.0381,1.0294,1.0115,0.9937,0.9589,0.9244,0.8986,0.8636,0.8372,0.8113,0.7845,0.7669,0.7584,0.7231,0.7054,0.7054,0.67,0.6432,0.634,0.5808,0.5453,0.0,0.0,0.465,0.4739,0.5364,0.5811,0.6169,0.6083,0.5905,0.0,0.5547,0.5366,0.5186,0.4113,0.3578,0.3489,0.3758,0.3939,0.4119,0.4741,0.5099,0.5366,0.5902,0.6083,0.6166,0.6254,0.634,0.634,0.6428,0.6691,0.6949,0.7386,0.7906,0.8424,0.8777,0.9131,0.9392,0.9218,0.9226,0.9144,0.8973,0.9065,0.9414,0.9753,1.0183,1.0611,1.1052,1.1311,1.1397,1.1397,1.0977,1.1068,1.1843,1.2186,1.2619,1.3307,1.3483,1.3822,1.4503,1.458,1.4992,1.5658,1.6064,1.6632,1.7375,1.8095,1.8745,1.939,1.9942,2.0342,2.0586,2.0974,2.1205,2.1359,2.1807,2.2252,2.2703,2.357,2.4515,2.5382,2.5453,2.5676,2.5898,1.2448,1.1929,1.1235,1.0809,1.0982,1.0814,0.9777,0.9859,1.0202,1.0636,1.0895,1.1241,1.1671,1.1413,1.1241,1.1413,1.0722,1.0202,1.012,0.9501,0.9152,0.9065,0.8894,0.8719,0.8719,0.846,0.8285,0.8201,0.7764,0.7411,0.7143,0.6697,0.0,0.0,0.0,0.0,0.0,0.6523,0.6792,0.6884,0.6884,0.6615,0.626,0.626,0.6077,0.5897,0.5897,0.5542,0.5099,0.5099,0.528,0.5549,0.5811,0.5991,0.626,0.6704,0.6884,0.6969,0.7143,0.7231,0.7316,0.7577,0.7837,0.8273,0.8978,0.9753,1.0361,1.0804,1.1154,1.1327,1.1327,1.1149,1.0977,1.0804,1.089,1.1139,1.1386,1.2066,0.0,0.0,1.336,0.0,1.3951,1.2778,1.2272,1.2869,1.3215,1.3561,1.425,1.4334,1.4587,1.5249,1.5484,1.5884,1.6632,1.6952,1.761,1.8496,1.8913,1.9469,2.0098,2.0489,2.0809,2.1061,2.1502,2.1807,2.2025,2.2628,2.3139,2.3655,2.4731,2.5453,2.598,2.6201,2.627,2.627,1.2966,0.0,0.0,1.1757,1.1671,1.1585,1.1499,1.1235,1.1063,1.1154,1.1413,1.1671,1.1929,1.21,1.2192,1.2186,1.202,1.1671,1.1068,1.0977,1.0544,0.9772,0.9685,0.9506,0.9061,0.889,0.8632,0.8456,0.7937,0.768,0.7415,0.6969,0.0,0.0,0.0,0.0,0.6615,0.6704,0.6881,0.7054,0.7054,0.6962,0.6966,0.6966,0.6874,0.6874,0.6874,0.634,0.5633,0.5813,0.5905,0.6083,0.6438,0.6615,0.6704,0.6966,0.7234,0.7415,0.7415,0.7676,0.8113,0.8556,0.9074,0.9767,1.0458,1.1322,1.2015,1.2272,1.279,1.3222,1.3045,1.3118,1.3184,1.3087,1.325,1.3503,1.3672,1.384,1.4099,0.0,1.4706,1.4873,1.5282,1.4132,1.3646,1.4314,1.4398,1.465,1.5151,1.5318,1.5658,1.6147,1.6378,1.6862,1.7674,1.7925,1.8496,1.9362,1.9863,2.042,2.0974,2.1195,2.1578,2.1883,2.2327,2.2628,2.2852,2.3644,2.4371,2.5028,2.5535,2.591,2.6201,2.6396,2.6521,2.6589,1.3483,0.0,0.0,0.0,1.2619,1.2619,1.2705,1.2534,1.2357,1.2277,1.2363,1.2534,1.2875,1.2875,1.2966,1.3052,1.2881,1.2619,1.2272,1.202,1.1671,1.1241,1.1068,1.089,1.0626,1.0279,0.9937,0.9589,0.889,0.8285,0.7852,0.7415,0.7149,0.7149,0.0,0.7404,0.0,0.7496,0.7584,0.7669,0.7408,0.7323,0.7323,0.7143,0.7139,0.7139,0.7139,0.6874,0.6612,0.6612,0.6704,0.6884,0.7061,0.7323,0.7584,0.7672,0.7848,0.8116,0.8201,0.8548,0.9078,0.9515,1.0207,1.0982,1.1585,1.2448,1.3137,1.3398,1.3815,1.423,1.4398,1.4629,1.4775,1.4844,1.5094,1.535,1.5523,1.5854,1.6191,0.0,0.0,0.0,1.6846,1.6116,1.5553,1.5477,1.5394,1.5643,1.6049,1.6131,1.6542,1.7196,1.7513,1.8069,1.8798,1.9283,1.9756,2.0401,2.0857,2.1252,2.1655,2.2111,2.2402,2.2628,2.3202,2.3559,2.3779,2.4587,2.5241,2.5758,2.598,2.6188,2.6465,2.6589,2.6794,2.6998,1.3828,1.3737,1.3652,1.3483,1.3398,1.3398,1.3483,1.3483,1.3392,1.3222,1.3137,1.3307,1.3652,1.3568,1.3568,1.3737,1.3483,1.3313,1.3228,1.2881,1.2619,1.2534,1.2363,1.2186,1.2186,1.1671,1.1235,1.0722,0.9845,0.8978,0.8376,0.7852,0.768,0.7768,0.8201,0.8372,0.8372,0.8372,0.8372,0.8285,0.794,0.7764,0.768,0.7496,0.7404,0.7404,0.7404,0.7584,0.7676,0.758,0.7584,0.768,0.768,0.8025,0.8372,0.8372,0.8636,0.8894,0.9065,0.9506,1.0033,1.0463,1.1241,1.2015,1.2534,1.3222,1.3906,1.4243,1.4741,1.5304,1.5884,1.6124,1.6355,1.6585,1.6919,1.7172,1.7261,1.7836,1.8327,1.8479,0.0,0.0,1.8479,1.8158,1.7674,1.6862,1.6617,1.6698,1.718,1.7261,1.7585,1.8399,1.8789,1.9353,1.9991,2.0537,2.1011,2.1578,2.1928,2.2231,2.2542,2.3065,2.3287,2.3423,2.4154,2.4576,2.4862,2.5465,2.591,2.627,2.627,2.6465,2.6782,2.685,2.7121,2.7456,1.4088,1.3913,1.3652,1.3652,1.3483,1.3483,1.3652,1.3652,1.3568,1.3398,1.3398,1.3483,1.3652,1.3652,1.3737,1.4004,1.4004,1.3913,1.3652,1.3568,1.3392,1.3052,1.3052,1.2881,1.2619,1.2186,1.1666,1.1241,1.0289,0.951,0.8823,0.8376,0.8197,0.8456,0.8715,0.8973,0.9148,0.9148,0.8973,0.8803,0.8803,0.8632,0.846,0.846,0.846,0.846,0.846,0.846,0.8548,0.8719,0.8456,0.8201,0.8372,0.8632,0.889,0.9061,0.9414,0.9772,0.9772,1.0463,1.1241,1.1499,1.21,1.2705,1.3222,1.3808,1.4475,1.4894,1.5794,1.678,1.7594,1.7925,1.8175,1.8665,1.9045,1.9274,1.9353,1.9678,2.0001,2.0001,0.0,0.0,2.0001,1.9923,1.9756,1.9274,1.8399,1.8078,1.8718,1.8975,1.9283,1.9737,2.0138,2.0605,2.1308,2.1538,2.2069,2.2852,2.2852,2.3287,2.4009,2.407,2.436,2.4791,2.5087,2.5535,2.6062,2.6131,2.627,2.6465,2.6589,2.6782,2.704,2.7323,2.7789,2.8222,1.4088,1.3997,1.3913,1.3913,1.3913,1.3828,1.3913,1.3913,1.3913,1.3828,1.3828,1.3828,1.3913,1.3913,1.3997,1.4088,1.4088,1.4082,1.3913,1.3913,1.3913,1.3743,1.3743,1.3652,1.3568,1.3222,1.2705,1.21,1.1327,1.0549,0.9689,0.9253,0.9161,0.9331,1.0024,1.0366,1.0453,1.0453,1.0366,1.0279,0.9767,0.9419,0.9331,0.9065,0.8978,0.8978,0.8978,0.9152,0.9423,0.9506,0.9336,0.9078,0.9244,0.9763,1.0366,1.0453,1.0799,1.1241,1.1327,1.1757,1.2272,1.2619,1.3137,1.3646,1.4068,1.4734,1.5311,1.5809,1.687,1.7925,1.8647,1.8904,1.9231,1.9715,2.001,2.0313,2.0537,2.0924,2.1155,2.1155,2.1221,2.1231,2.1031,2.0867,2.0779,2.0712,1.9747,1.9353,1.9678,1.9923,2.0304,2.0981,2.1308,2.1776,2.2381,2.283,2.3276,2.3717,2.4082,2.436,2.4719,2.4945,2.5312,2.5688,2.5828,2.605,2.6396,2.6396,2.6465,2.6658,2.6782,2.7108,2.751,2.7842,2.8352,2.8917,1.4088,1.4088,1.4088,1.4088,1.4088,1.4088,1.4088,1.4088,1.4088,1.4088,1.4088,1.4088,1.4088,1.4088,1.4088,1.4088,1.4088,1.4088,1.4088,1.4088,1.4088,1.4088,1.4088,1.4088,1.4088,1.3828,1.3476,1.2875,1.2186,1.1499,1.0722,1.0294,1.0207,1.0463,1.1241,1.1671,1.1671,1.1671,1.1671,1.1585,1.0895,1.0549,1.0463,1.0193,1.0014,1.0014,1.0014,1.0279,1.0549,1.0636,1.0549,1.0467,1.0463,1.0982,1.1671,1.1671,1.2015,1.2363,1.2619,1.2881,1.3222,1.3646,1.4159,1.458,1.5068,1.5643,1.6304,1.7041,1.7934,1.8904,1.9539,1.9784,2.0029,2.0576,2.0876,2.1175,2.1548,2.2069,2.2371,2.2446,2.2446,2.2456,2.2252,2.209,2.2004,2.1949,2.1385,2.0991,2.0857,2.1011,2.1461,2.222,2.2467,2.2916,2.3423,2.3875,2.4311,2.4587,2.5016,2.5229,2.5382,2.5676,2.6037,2.627,2.627,2.6396,2.6589,2.6589,2.6658,2.6918,2.7108,2.7577,2.8118,2.8495,2.9058,2.9623,1.4088,1.4088,1.4088,1.4088,1.4088,1.4088,1.4088,1.4088,1.4088,1.4088,1.4088,1.4088,1.4088,1.4088,1.4088,1.4088,1.4088,1.4088,1.4088,1.4088,1.4088,1.4088,1.4088,1.4088,1.4088,1.3828,1.3568,1.3392,1.2705,1.2192,1.1677,1.1413,1.1413,1.1671,1.2186,1.2534,1.2705,1.2705,1.2534,1.2363,1.2363,1.2192,1.1929,1.1929,1.1929,1.1929,1.1929,1.1929,1.2015,1.2277,1.2534,1.2534,1.1929,1.2015,1.2448,1.2619,1.2881,1.3137,1.3307,1.3743,1.4166,1.4573,1.5068,1.556,1.6229,1.6714,1.7367,1.8674,1.932,1.9794,2.0489,2.0566,2.0799,2.1425,2.1807,2.2252,2.2628,2.3224,2.3666,2.3824,2.4043,2.4116,2.3897,2.3897,2.3604,2.3001,2.3372,2.3224,2.2402,2.2553,2.2852,2.3298,2.3666,2.402,2.442,2.4564,2.5016,2.5606,2.5606,2.5828,2.6201,2.6396,2.6465,2.6533,2.6533,2.6589,2.6714,2.6714,2.693,2.7335,2.7656,2.8118,2.8651,2.9352,2.9898,3.0326,1.4755,1.4908,1.4985,1.4985,1.4985,1.4985,1.4985,1.4831,1.4755,1.4755,1.4496,1.4321,1.4321,1.4166,1.4088,1.4088,1.4088,1.4088,1.4088,1.4088,1.4088,1.4088,1.4088,1.4088,1.4088,1.3997,1.3822,1.3568,1.3222,1.2875,1.2357,1.2448,1.2534,1.2705,1.3137,1.3307,1.3392,1.3392,1.3307,1.3222,1.2966,1.2796,1.2705,1.2534,1.2443,1.2443,1.2443,1.2619,1.2796,1.3052,1.3313,1.3652,1.3717,1.3639,1.3568,1.3652,1.4075,1.4496,1.458,1.4908,1.5318,1.5733,1.6049,1.6535,1.7277,1.8086,1.8736,1.9469,1.9872,2.0196,2.0741,2.0896,2.1272,2.1949,2.2478,2.299,2.3779,2.4093,2.425,2.4443,2.4394,2.4345,2.4116,2.425,2.4238,2.4009,2.4227,2.3936,2.3075,2.3423,2.3863,2.4215,2.4515,2.4802,2.5229,2.5382,2.5676,2.5992,2.6188,2.6245,2.6396,2.6465,2.6521,2.6658,2.6658,2.6794,2.7134,2.7201,2.7523,2.8039,2.8352,2.8867,2.9449,2.9884,3.0372,3.0792,1.5852,1.5834,1.5829,1.5829,1.5725,1.5643,1.5643,1.5567,1.5409,1.5333,1.5068,1.4894,1.481,1.465,1.4503,1.4173,1.4088,1.4088,1.4088,1.4088,1.4088,1.4088,1.4088,1.4088,1.4088,1.4088,1.3997,1.3822,1.3652,1.3307,1.296,1.3222,1.3307,1.3313,1.3652,1.3822,1.3822,1.3822,1.3822,1.3828,1.3568,1.3483,1.3483,1.3307,1.3222,1.3222,1.33,1.347,1.3646,1.3906,1.4243,1.4664,1.4985,1.5068,1.5068,1.4748,1.4999,1.5416,1.565,1.5891,1.6221,1.6878,1.7115,1.7513,1.8407,1.9134,1.9784,2.0098,2.0342,2.0664,2.1282,2.1512,2.1959,2.2852,2.3287,2.3779,2.4636,2.4814,2.4981,2.5158,2.5111,2.4992,2.4838,2.4969,2.4957,2.4886,2.5087,2.4874,2.4238,2.4443,2.4731,2.5016,2.5229,2.5453,2.5828,2.598,2.6119,2.6339,2.6465,2.6589,2.6589,2.6726,2.6863,2.693,2.7053,2.7323,2.7723,2.7842,2.8222,2.8803,2.9044,2.956,3.0129,3.0433,3.0792,3.1161,1.7311,1.7063,1.6838,1.6815,1.6544,1.6327,1.6296,1.6214,1.6131,1.5899,1.5816,1.5733,1.5477,1.5477,1.5151,1.4334,1.4173,1.4173,1.4088,1.4088,1.4088,1.4088,1.4088,1.4088,1.4088,1.4088,1.4088,1.4088,1.3822,1.3652,1.3476,1.3646,1.3737,1.3737,1.3997,1.4173,1.4173,1.4173,1.4173,1.4173,1.4166,1.4173,1.4173,1.4166,1.4173,1.425,1.4405,1.4482,1.4566,1.4999,1.5325,1.556,1.5809,1.6296,1.6617,1.5974,1.5816,1.5974,1.6617,1.6854,1.7025,1.7917,1.8247,1.8665,1.9478,2.0029,2.042,2.0566,2.0809,2.1205,2.2035,2.2327,2.2777,2.3813,2.4227,2.4636,2.5312,2.5535,2.5688,2.591,2.591,2.591,2.591,2.591,2.5828,2.5676,2.5828,2.5828,2.5676,2.5453,2.5453,2.5618,2.5828,2.605,2.6201,2.6201,2.6339,2.6533,2.6658,2.6782,2.6782,2.7134,2.7335,2.7403,2.7723,2.8039,2.8417,2.8546,2.9044,2.9685,2.9808,3.019,3.0687,3.0911,3.1146,3.1409,1.8801,1.8974,1.9056,1.8697,1.8568,1.8413,1.8129,1.7755,1.7513,1.7432,1.6862,1.6453,1.637,1.6131,1.5891,1.5643,1.5166,1.4748,1.4321,1.4321,1.4237,1.4088,1.4088,1.4088,1.4088,1.4088,1.4088,1.4088,1.4004,1.3997,1.3913,1.4153,1.423,1.423,1.4489,1.4573,1.4573,1.4573,1.4573,1.4573,1.4755,1.4838,1.4922,1.4992,1.5068,1.5068,1.5151,1.5228,1.5484,1.5899,1.6221,1.6535,1.7269,1.7594,1.7513,1.6698,1.6944,1.7513,1.7674,1.8086,1.8505,1.8895,1.9381,1.9863,2.0108,2.043,2.0819,2.1051,2.1359,2.1807,2.2478,2.2852,2.3361,2.436,2.4719,2.5087,2.591,2.591,2.591,2.6131,2.598,2.591,2.591,2.6062,2.6131,2.6062,2.6258,2.6314,2.6314,2.6245,2.6176,2.6062,2.6258,2.6396,2.6396,2.6521,2.6726,2.7134,2.7134,2.7255,2.751,2.7656,2.7908,2.8222,2.8287,2.8675,2.931,2.9435,2.9808,3.0387,3.0507,3.0807,3.1161,3.1321,3.1509,3.1712,2.0376,2.0476,2.0395,1.9913,1.9687,1.9435,1.9038,1.8736,1.8567,1.8496,1.8014,1.7683,1.7594,1.744,1.7196,1.7025,1.5974,1.5242,1.4985,1.4894,1.4741,1.4587,1.4587,1.4419,1.4243,1.4243,1.4166,1.4088,1.4088,1.4166,1.4243,1.4398,1.465,1.4894,1.5068,1.5151,1.5151,1.5151,1.5151,1.5151,1.5325,1.5409,1.5567,1.5643,1.5726,1.5726,1.5966,1.6049,1.6304,1.687,1.7277,1.7521,1.8256,1.8576,1.8656,1.8167,1.8256,1.8496,1.8656,1.8984,1.9399,1.9775,2.0264,2.0586,2.0809,2.1051,2.1282,2.1655,2.2035,2.2478,2.3224,2.3655,2.4227,2.5087,2.5382,2.5746,2.6258,2.6258,2.6188,2.6327,2.6258,2.6176,2.6176,2.6258,2.6339,2.6339,2.6465,2.6521,2.6589,2.6589,2.6521,2.6396,2.6521,2.6658,2.6863,2.7053,2.7323,2.7523,2.7789,2.7908,2.8091,2.8481,2.8739,2.898,2.9233,2.9623,3.0068,3.019,3.0553,3.1029,3.1102,3.1336,3.1739,3.1781,3.1966,3.2191,2.183,2.1632,2.133,2.0772,2.0485,2.0096,1.9613,1.946,1.939,1.924,1.9161,1.9002,1.8825,1.8825,1.8656,1.8238,1.6952,1.6064,1.5899,1.5726,1.5477,1.5249,1.5249,1.4992,1.4559,1.4559,1.4489,1.4334,1.4334,1.4412,1.4566,1.4817,1.5151,1.556,1.5816,1.5899,1.5982,1.5982,1.5982,1.5982,1.6057,1.6221,1.6378,1.646,1.646,1.6542,1.6862,1.7025,1.7188,1.7917,1.8327,1.8585,1.9073,1.9399,1.9724,1.9724,1.9557,1.932,1.9645,1.9724,1.9951,2.0566,2.0896,2.1128,2.1512,2.1655,2.1883,2.2402,2.2767,2.3213,2.4189,2.4599,2.5087,2.5828,2.6062,2.627,2.6465,2.6521,2.6521,2.6521,2.6602,2.6589,2.6589,2.6671,2.6658,2.6658,2.6658,2.6726,2.6782,2.685,2.6918,2.6918,2.685,2.7053,2.7469,2.7789,2.7973,2.8105,2.8481,2.8675,2.8803,2.9435,2.9747,2.9808,3.019,3.0507,3.0747,3.0881,3.1146,3.161,3.161,3.1894,3.2247,3.2358,3.2508,3.2749,2.2618,2.2736,2.2534,2.1845,2.1661,2.1341,2.0527,2.0255,2.0108,2.0108,1.9715,1.9478,1.9478,1.9311,1.9143,1.9134,1.8745,1.7934,1.6617,1.6535,1.6296,1.5974,1.5733,1.5567,1.5484,1.5311,1.5228,1.5235,1.5235,1.5228,1.5228,1.5665,1.5997,1.6221,1.6632,1.6952,1.7115,1.7115,1.7115,1.7196,1.7513,1.7674,1.7755,1.8167,1.8336,1.8327,1.8336,1.8496,1.8665,1.8984,1.9231,1.9478,1.9951,2.0108,2.0186,2.0411,2.0498,2.0508,2.0264,2.043,2.0819,2.1272,2.1502,2.1731,2.1959,2.2402,2.2852,2.3075,2.3706,2.4276,2.4802,2.517,2.5606,2.6062,2.6201,2.627,2.6465,2.6589,2.6658,2.6658,2.6998,2.7201,2.7201,2.7268,2.7323,2.7323,2.7323,2.7323,2.739,2.7523,2.7776,2.8026,2.7577,2.7643,2.8287,2.8352,2.8675,2.931,2.9373,2.9623,3.0007,3.0129,3.0326,3.0642,3.0702,3.0984,3.1364,3.1379,3.1667,3.2079,3.2231,3.2382,3.2602,3.2926,3.3087,3.3193,2.2969,2.3057,2.2871,2.2031,2.1885,2.1592,2.0703,2.0489,2.0489,2.0489,2.0255,2.0108,2.0108,2.0098,1.9932,1.9863,1.9784,1.9311,1.8336,1.7925,1.7594,1.7107,1.7025,1.6706,1.6214,1.5974,1.5809,1.5809,1.5809,1.5884,1.6124,1.6394,1.6886,1.7448,1.7764,1.8006,1.8256,1.8256,1.8256,1.8256,1.8496,1.8576,1.8727,1.8975,1.8984,1.9063,1.9152,1.9231,1.9399,1.9706,1.9942,2.0186,2.0508,2.0741,2.0964,2.1041,2.0974,2.0906,2.0974,2.1195,2.1512,2.2025,2.2327,2.2553,2.3128,2.3423,2.3717,2.4154,2.4576,2.5004,2.5382,2.5688,2.605,2.6327,2.6339,2.6396,2.6589,2.6782,2.6918,2.7121,2.739,2.759,2.7656,2.7723,2.7776,2.7776,2.7776,2.7842,2.8039,2.8091,2.8417,2.898,2.8739,2.8803,2.9107,2.9373,2.9623,3.0007,3.019,3.0387,3.0568,3.0747,3.0925,3.1058,3.1249,3.1524,3.1796,3.1951,3.2272,3.2641,3.2765,3.3087,3.3455,3.361,3.3815,3.4068,2.3135,2.3135,2.2871,2.2031,2.1885,2.1592,2.0703,2.0566,2.0566,2.0566,2.0566,2.0566,2.0566,2.0566,2.0566,2.0411,2.0342,2.0186,1.9872,1.9381,1.8895,1.8327,1.8247,1.7925,1.7188,1.6862,1.6706,1.6706,1.6706,1.6862,1.7188,1.7359,1.7853,1.8576,1.8825,1.8984,1.9231,1.9231,1.9231,1.9231,1.932,1.939,1.9539,1.9618,1.9618,1.9618,1.9794,1.9872,1.996,2.0352,2.0576,2.0799,2.1051,2.1359,2.1655,2.1731,2.1578,2.1436,2.1731,2.1959,2.2252,2.2916,2.3213,2.3497,2.4215,2.4443,2.4659,2.5087,2.5312,2.5606,2.591,2.6119,2.6339,2.6465,2.6521,2.6589,2.6782,2.704,2.731,2.7656,2.7973,2.8222,2.8352,2.8417,2.8481,2.8481,2.8481,2.861,2.8853,2.8917,2.9233,2.987,2.9808,2.9808,2.987,3.0251,3.0447,3.0568,3.0807,3.094,3.1058,3.1292,3.1467,3.1509,3.1769,3.1981,3.2191,3.2437,3.2803,3.3214,3.3387,3.3781,3.425,3.43,3.4546,3.4804,2.3135,2.3135,2.2871,2.2031,2.1885,2.1592,2.0703,2.0566,2.0566,2.0566,2.0566,2.0566,2.0566,2.0566,2.0566,2.0566,2.0566,2.0566,2.0566,2.0479,2.0089,1.9213,1.8993,1.8834,1.8576,1.8496,1.8496,1.8496,1.8496,1.8496,1.8576,1.8754,1.8993,1.9222,1.9469,1.9636,1.9863,1.9863,1.9863,1.9863,2.0108,2.0186,2.0264,2.0411,2.0489,2.0489,2.0489,2.0654,2.0829,2.0829,2.1128,2.1502,2.1655,2.1883,2.2111,2.2252,2.2553,2.2777,2.2628,2.2777,2.3065,2.3863,2.4204,2.442,2.4862,2.5241,2.5535,2.5535,2.5828,2.6131,2.6131,2.6327,2.6465,2.6533,2.6589,2.6782,2.6973,2.7443,2.7842,2.8222,2.8803,2.9247,2.9435,2.9747,2.9931,2.9931,2.9931,2.9931,3.0007,3.0129,3.0312,3.0702,3.0387,3.0387,3.0702,3.0762,3.094,3.1219,3.1219,3.1424,3.1727,3.1727,3.1883,3.2135,3.2135,3.2398,3.2734,3.2895,3.3282,3.3848,3.4151,3.4399,3.4691,3.4947,3.5041,3.5105,2.3135,2.3135,2.2871,2.2031,2.1885,2.1592,2.0703,2.0566,2.0566,2.0566,2.0566,2.0566,2.0566,2.0566,2.0566,2.0566,2.0566,2.0566,2.0566,2.0566,2.0411,1.9942,1.9557,1.932,1.9231,1.9143,1.9054,1.9054,1.9054,1.9143,1.9231,1.932,1.9557,1.9942,2.0029,2.0186,2.0333,2.0333,2.0333,2.0333,2.0411,2.0498,2.0489,2.0566,2.0566,2.0644,2.0731,2.0896,2.1128,2.1349,2.1807,2.2252,2.2478,2.2916,2.3497,2.3779,2.3998,2.4215,2.4299,2.407,2.407,2.4719,2.5016,2.5229,2.5688,2.584,2.598,2.6107,2.6245,2.6396,2.6465,2.6589,2.6726,2.693,2.7066,2.7188,2.7577,2.7987,2.8509,2.9022,2.9498,2.9931,3.019,3.0326,3.0387,3.0387,3.0387,3.0447,3.0507,3.0807,3.1043,3.1204,3.1219,3.1176,3.1117,3.1176,3.1292,3.1409,3.1409,3.1539,3.1799,3.1898,3.2094,3.2342,3.2602,3.2926,3.3261,3.3662,3.4018,3.4399,3.4691,3.4947,3.5198,3.5291,3.5367,3.5396,2.3135,2.3135,2.292,2.2207,2.1973,2.1641,2.0889,2.0654,2.0566,2.0566,2.0566,2.0566,2.0566,2.0566,2.0566,2.0566,2.0566,2.0566,2.0566,2.0566,2.0566,2.042,2.0108,1.9951,1.9951,1.9784,1.9696,1.9696,1.9696,1.9784,1.9951,1.9951,2.0108,2.042,2.042,2.0498,2.0566,2.0566,2.0566,2.0644,2.0654,2.0654,2.0731,2.0809,2.0876,2.0876,2.1128,2.1359,2.1655,2.1959,2.2553,2.315,2.335,2.3925,2.4576,2.4874,2.5087,2.5241,2.5535,2.53,2.5087,2.5465,2.5688,2.591,2.6201,2.6339,2.6396,2.6521,2.6658,2.6794,2.6863,2.6985,2.7121,2.739,2.759,2.7776,2.8222,2.8688,2.9212,2.9727,3.0129,3.0493,3.0807,3.0881,3.0881,3.0881,3.0881,3.094,3.1132,3.1394,3.161,3.1724,3.1868,3.1868,3.1682,3.164,3.1655,3.1655,3.1697,3.1811,3.2038,3.2247,3.2508,3.2873,3.323,3.3559,3.3899,3.43,3.4643,3.4899,3.5152,3.5337,3.552,3.552,3.5594,3.5667,2.3135,2.3135,2.3008,2.2588,2.2168,2.1738,2.1299,2.0859,2.0566,2.0566,2.0566,2.0566,2.0566,2.0566,2.0566,2.0566,2.0566,2.0566,2.0566,2.0566,2.0566,2.0566,2.0566,2.0566,2.0566,2.0566,2.0566,2.0566,2.0566,2.0566,2.0566,2.0566,2.0566,2.0566,2.0566,2.0566,2.0566,2.0566,2.0566,2.0644,2.0819,2.0906,2.0984,2.1359,2.1512,2.1502,2.1731,2.2101,2.2478,2.2628,2.3224,2.3959,2.4288,2.4862,2.5382,2.5535,2.5606,2.5688,2.6062,2.6213,2.6213,2.6213,2.6213,2.627,2.6465,2.6589,2.6714,2.6714,2.6998,2.7335,2.7335,2.759,2.7776,2.7776,2.8222,2.861,2.8803,2.9373,2.9931,3.0251,3.0732,3.1087,3.1278,3.1409,3.1482,3.1482,3.1524,3.1597,3.1799,3.2038,3.2191,3.2191,3.2342,3.2398,3.2398,3.215,3.1981,3.1996,3.215,3.2342,3.2586,3.2895,3.3335,3.3899,3.405,3.4349,3.4691,3.4851,3.5041,3.5291,3.5446,3.5566,3.5622,3.5622,3.5684,3.5817,2.3135,2.3135,2.3008,2.2588,2.2168,2.1738,2.1299,2.0859,2.0566,2.0566,2.0566,2.0566,2.0566,2.0566,2.0566,2.0566,2.0566,2.0566,2.0566,2.0566,2.0566,2.0566,2.0566,2.0566,2.0566,2.0566,2.0566,2.0566,2.0566,2.0566,2.0566,2.0566,2.0566,2.0566,2.0566,2.0566,2.0566,2.0566,2.0654,2.0819,2.1061,2.1282,2.1578,2.1807,2.2025,2.2176,2.2553,2.2777,2.315,2.3706,2.4215,2.4814,2.5465,2.5758,2.598,2.6176,2.6245,2.6245,2.6396,2.6465,2.6521,2.6396,2.6396,2.6465,2.6589,2.6782,2.6985,2.7188,2.7456,2.7789,2.8105,2.8222,2.8481,2.898,2.917,2.9435,2.9808,3.0129,3.0493,3.0732,3.1029,3.1278,3.1409,3.1597,3.1727,3.1727,3.1868,3.2079,3.2342,3.2437,3.2602,3.2873,3.2926,3.3087,3.3314,3.2617,3.2342,3.2453,3.2437,3.2656,3.3018,3.3261,3.3626,3.4201,3.4399,3.4707,3.4994,3.5245,3.5354,3.5446,3.5566,3.5639,3.5728,3.5728,3.5905,3.6079,2.3135,2.3135,2.3057,2.2803,2.2412,2.1992,2.1562,2.1193,2.0918,2.0751,2.0886,2.0954,2.0954,2.1031,2.1031,2.0954,2.0809,2.0731,2.0731,2.0644,2.0644,2.0731,2.0731,2.0731,2.0731,2.0731,2.0731,2.0809,2.0809,2.0809,2.0809,2.0809,2.0876,2.0954,2.0954,2.1031,2.1108,2.1108,2.1118,2.1282,2.1578,2.1883,2.2176,2.2628,2.2916,2.3128,2.357,2.379,2.4082,2.4576,2.5087,2.5606,2.6119,2.6339,2.6339,2.6521,2.6589,2.6589,2.6794,2.6863,2.693,2.6985,2.693,2.6863,2.693,2.7175,2.751,2.7776,2.8105,2.8481,2.8853,2.9107,2.9373,2.9808,3.0007,3.019,3.0447,3.0687,3.0925,3.1102,3.1278,3.1409,3.1597,3.1784,3.194,3.2094,3.2398,3.2656,3.2819,3.3071,3.3282,3.3559,3.3662,3.3815,3.4,3.3507,3.3177,3.3033,3.3124,3.3351,3.3662,3.3933,3.43,3.4707,3.4899,3.5135,3.5321,3.552,3.5611,3.5611,3.5773,3.5905,3.5949,3.6036,3.6233,3.6444,2.3222,2.3222,2.3222,2.3222,2.2869,2.2448,2.2119,2.1747,2.1461,2.1043,2.1359,2.1578,2.1578,2.1731,2.1807,2.1589,2.1205,2.0984,2.0984,2.0809,2.0809,2.0984,2.0984,2.0984,2.1061,2.0984,2.1061,2.1282,2.1282,2.1282,2.1282,2.1282,2.1359,2.1578,2.1578,2.1655,2.1873,2.1873,2.1883,2.1959,2.2327,2.2628,2.2916,2.3666,2.4093,2.436,2.4647,2.4933,2.5087,2.5312,2.5758,2.627,2.6465,2.6533,2.6521,2.6714,2.6726,2.6863,2.7268,2.7403,2.7469,2.7776,2.7656,2.7456,2.7403,2.7789,2.8157,2.8352,2.8917,2.9435,2.9685,3.0068,3.0372,3.0372,3.0642,3.0895,3.0895,3.1176,3.1336,3.1409,3.1467,3.1655,3.1841,3.1996,3.2247,3.2695,3.3087,3.3298,3.3335,3.3882,3.4151,3.4201,3.4448,3.4546,3.4546,3.4546,3.43,3.3797,3.405,3.425,3.4399,3.4739,3.5041,3.5337,3.5446,3.552,3.5622,3.5773,3.5817,3.5861,3.6122,3.6251,3.6293,3.6461,3.6673,3.6895,2.4155,2.4155,2.4155,2.4155,2.3883,2.3442,2.3012,2.2531,2.2148,2.1859,2.1959,2.2035,2.2176,2.2252,2.2252,2.2176,2.1959,2.1807,2.1655,2.1568,2.1578,2.1578,2.1731,2.1959,2.2327,2.1883,2.1731,2.1883,2.1883,2.1883,2.1883,2.1883,2.1949,2.1959,2.2101,2.2252,2.2252,2.2252,2.2478,2.2777,2.3001,2.3497,2.4059,2.4432,2.4719,2.5087,2.5312,2.5453,2.5535,2.591,2.6188,2.6465,2.6465,2.6589,2.6714,2.6905,2.7121,2.739,2.7656,2.7973,2.8287,2.8352,2.8739,2.8917,2.8352,2.8417,2.8803,2.9373,2.9747,3.0068,3.0447,3.0642,3.0762,3.1043,3.1161,3.1292,3.1554,3.167,3.1769,3.1966,3.2023,3.2079,3.2247,3.2602,3.3018,3.3575,3.3781,3.4034,3.4382,3.4497,3.4643,3.4899,3.4947,3.4994,3.5152,3.5152,3.4899,3.4497,3.4546,3.4707,3.4947,3.4994,3.5198,3.5446,3.5492,3.5611,3.5773,3.5888,3.6062,3.6216,3.636,3.655,3.6759,3.6799,3.7017,3.7395,2.485,2.485,2.485,2.485,2.4651,2.4346,2.3885,2.3562,2.3243,2.2928,2.2971,2.3128,2.3276,2.3423,2.3412,2.3276,2.2841,2.2478,2.2402,2.2176,2.2176,2.2327,2.2478,2.2841,2.3423,2.3191,2.2979,2.2852,2.2852,2.2852,2.2852,2.2852,2.2916,2.3128,2.3202,2.335,2.3486,2.3486,2.3632,2.3863,2.4009,2.4432,2.4862,2.5158,2.5453,2.5758,2.5968,2.6037,2.6037,2.6258,2.6396,2.6533,2.6589,2.6714,2.6905,2.731,2.7643,2.7973,2.8417,2.8739,2.9044,2.931,2.9623,2.9747,2.917,2.931,2.9623,3.0068,3.0372,3.0673,3.1029,3.1234,3.1366,3.1582,3.164,3.1697,3.194,3.2053,3.2135,3.2342,3.2453,3.2602,3.2888,3.3351,3.3764,3.4151,3.4448,3.4643,3.4899,3.4994,3.5152,3.5291,3.5321,3.5367,3.5458,3.5458,3.5367,3.5118,3.5088,3.5152,3.5291,3.5321,3.5412,3.5566,3.5611,3.5745,3.5905,3.6148,3.6343,3.6574,3.6834,3.7034,3.7208,3.7358,3.7632,3.7931,2.56,2.56,2.56,2.56,2.56,2.5532,2.5044,2.4807,2.4548,2.4126,2.4232,2.436,2.4371,2.4647,2.4647,2.436,2.3717,2.3361,2.3287,2.299,2.2916,2.3287,2.3287,2.3644,2.436,2.4492,2.436,2.3813,2.3813,2.3813,2.3813,2.3813,2.402,2.4371,2.436,2.4504,2.4791,2.4791,2.4791,2.4862,2.5016,2.5229,2.5453,2.5828,2.6062,2.627,2.6465,2.6533,2.6533,2.6521,2.6521,2.6602,2.6726,2.6985,2.7242,2.7776,2.8235,2.8675,2.9247,2.9623,2.987,3.0312,3.0433,3.0372,2.9993,3.0129,3.0447,3.0687,3.0911,3.119,3.1537,3.1754,3.194,3.2094,3.2094,3.215,3.2358,3.2453,3.2602,3.2803,3.3002,3.323,3.3642,3.4151,3.4448,3.4643,3.4947,3.5182,3.5182,3.5383,3.5537,3.5537,3.5594,3.5622,3.5622,3.5622,3.5622,3.5622,3.5566,3.5537,3.5537,3.5594,3.5622,3.5622,3.5817,3.5949,3.6105,3.6444,3.6713,3.6974,3.7356,3.7523,3.7667,3.7966,3.8204,3.8354,2.7476,2.7476,2.7476,2.7476,2.7476,2.7313,2.6825,2.6314,2.5955,2.5663,2.5205,2.4945,2.5158,2.5158,2.5158,2.4933,2.4791,2.4647,2.4504,2.442,2.442,2.4504,2.4647,2.4874,2.5158,2.5312,2.5241,2.4802,2.4802,2.4802,2.4802,2.4802,2.4862,2.4874,2.5087,2.517,2.5229,2.5229,2.5312,2.5465,2.5535,2.5758,2.6062,2.6131,2.627,2.6465,2.6465,2.6533,2.6521,2.6658,2.6658,2.6726,2.7134,2.7456,2.7776,2.8314,2.8894,2.954,2.9884,3.0312,3.0642,3.0702,3.094,3.1161,3.1102,3.0866,3.0881,3.1321,3.1422,3.1537,3.2007,3.2135,3.2247,3.2492,3.2547,3.2656,3.3033,3.3087,3.3298,3.3832,3.4134,3.4333,3.4497,3.4707,3.4899,3.5198,3.5354,3.5475,3.5532,3.5577,3.5577,3.5577,3.5577,3.5622,3.5622,3.5622,3.5622,3.5622,3.5728,3.5684,3.5577,3.5728,3.5773,3.5773,3.6036,3.6251,3.6444,3.6736,3.7091,3.7503,3.7739,3.7985,3.8223,3.8382,3.8446,3.8478,2.8167,2.8167,2.8167,2.8167,2.8167,2.8084,2.7949,2.7538,2.7076,2.6697,2.6299,2.6064,2.5865,2.5828,2.5758,2.5688,2.5453,2.5312,2.5229,2.5087,2.5087,2.5229,2.5312,2.5465,2.5828,2.591,2.5898,2.5804,2.5594,2.5523,2.5523,2.5523,2.5535,2.5676,2.5758,2.5898,2.5955,2.5955,2.6025,2.6107,2.6107,2.6188,2.6396,2.6396,2.6396,2.6533,2.6589,2.6726,2.693,2.6998,2.7188,2.7377,2.7709,2.8105,2.8481,2.9071,2.9637,3.0083,3.0493,3.0866,3.1117,3.1176,3.1292,3.1409,3.1409,3.1366,3.1424,3.1739,3.1894,3.216,3.2586,3.2711,3.2873,3.314,3.3208,3.3314,3.3662,3.3764,3.3984,3.4497,3.4691,3.4851,3.4899,3.5088,3.5291,3.54,3.552,3.5594,3.5622,3.5622,3.5622,3.5622,3.5622,3.5622,3.5622,3.5622,3.5622,3.5711,3.5861,3.5844,3.5728,3.5949,3.6036,3.6105,3.6385,3.6632,3.6873,3.7206,3.7541,3.7863,3.8104,3.8322,3.8533,3.8578,3.8609,3.8609]}]]